[[{"header":{"parameterUnit":"m.s-1","parameterCategory":1,"la1":30.6,"la2":29.2853,"lo1":-89.7004,"lo2":-87.6739,"dy":0.0162,"dx":0.0183,"nx":112,"ny":82,"refTime":"2023-06-22T06:00:00:Z","depth":0,"parameterNumber":2,"parameterNumberName":"U-component_of_WINDS"},"data":[0.0,0.0,0.0,0.0,0.0,0.0,0.0,0.0,0.0,0.0,0.0,0.0,0.0,0.0,0.0,0.0,0.0,0.0,0.0,0.0,0.0,0.0,0.0,0.0,0.0,0.0,0.0,0.0,0.0,0.0,0.0,0.0,0.0,0.0,0.0,0.0,0.0,0.0,0.0,0.0,0.0,0.0,0.0,0.0,0.0,0.0,0.0,0.0,0.0,0.0,0.0,0.0,0.0,0.0,0.0,0.0,0.0,0.0,0.0,0.0,0.0,0.0,0.0,0.0,0.0,0.0,0.0,0.0,0.0,0.0,0.0,0.0,0.0,0.0,0.0,0.0,0.0,0.0,0.0,0.0,0.0,0.0,0.0,0.0,0.0,0.0,0.0,0.0,0.0,0.0,0.3509,0.2642,0.3729,0.433,0.3828,0.4254,0.4065,0.3088,0.0,0.0,0.0,0.0,0.0,0.0,0.0,0.0,0.0,0.0,0.0,0.0,0.0,0.0,0.0,0.0,0.0,0.0,0.0,0.0,0.0,0.0,0.0,0.0,0.0,0.0,0.0,0.0,0.0,0.0,0.0,0.0,0.0,0.0,0.0,0.0,0.0,0.0,0.0,0.0,0.0,0.0,0.0,0.0,0.0,0.0,0.0,0.0,0.0,0.0,0.0,0.0,0.0,0.0,0.0,0.0,0.0,0.0,0.0,0.0,0.0,0.0,0.0,0.0,0.0,0.0,0.0,0.0,0.0,0.0,0.0,0.0,0.0,0.0,0.0,0.0,0.0,0.0,0.0,0.0,0.0,0.0,0.0,0.0,0.0,0.0,0.0,0.0,0.0,0.0,0.0,0.0,0.0,0.0,0.0,0.0,0.0,0.0,0.0,0.0,0.0,0.0,0.0,0.0,0.3752,0.4141,0.4341,0.3477,0.0896,0.3008,0.3349,0.0723,0.0,0.0,0.0,0.0,0.0,0.0,0.0,0.0,0.0,0.0,0.0,0.0,0.0,0.0,0.0,0.0,0.0,0.0,0.0,0.0,0.0,0.0,0.0,0.0,0.0,0.0,0.0,0.0,0.0,0.0,0.0,0.0,0.0,0.0,0.0,0.0,0.0,0.0,0.0,0.0,0.0,0.0,0.0,0.0,0.0,0.0,0.0,0.0,0.0,0.0,0.0,0.0,0.0,0.0,0.0,0.0,0.0,0.0,0.0,0.0,0.0,0.0,0.0,0.0,0.0,0.0,0.0,0.0,0.0,0.0,0.0,0.0,0.0,0.0,0.0,0.0,0.0,0.0,0.0,0.0,0.0,0.0,0.0,0.0,0.0,0.0,0.0,0.0,0.0,0.0,0.0,0.0,0.0,0.0,0.0,0.0,0.0,0.0,0.0,0.0,0.0,0.0,0.0,0.4017,0.3988,0.4436,0.3779,0.289,0.2024,0.2933,0.2835,0.1298,0.1189,0.0,0.0,0.0,0.0,0.0,0.0,0.0,0.0,0.0,0.0,0.0,0.0,0.0,0.0,0.0,0.0,0.0,0.0,0.0,0.0,0.0,0.0,0.0,0.0,0.0,0.0,0.0,0.0,0.0,0.0,0.0,0.0,0.0,0.0,0.0,0.0,0.0,0.0,0.0,0.0,0.0,0.0,0.0,0.0,0.0,0.0,0.0,0.0,0.0,0.0,0.0,0.0,0.0,0.0,0.0,0.0,0.0,0.0,0.0,0.0,0.0,0.0,0.0,0.0,0.0,0.0,0.0,0.0,0.0,0.0,0.0,0.0,0.0,0.0,0.0,0.0,0.0,0.0,0.0,0.0,0.0,0.0,0.0,0.0,0.0,0.0,0.0,0.0,0.0,0.0,0.0,0.0,0.0,0.0,0.0,0.0,0.0,0.0,0.0,0.0,0.0,0.0,0.4236,0.4185,0.4467,0.3471,0.2984,0.3545,0.3027,0.264,0.2542,0.2661,0.0,0.0,0.0,0.0,0.0,0.0,0.0,0.0,0.0,0.0,0.0,0.0,0.0,0.0,0.0,0.0,0.0,0.0,0.0,0.0,0.0,0.0,0.0,0.0,0.0,0.0,0.0,0.0,0.0,0.0,0.0,0.0,0.0,0.0,0.0,0.0,0.0,0.0,0.0,0.0,0.0,0.0,0.0,0.0,0.0,0.0,0.0,0.0,0.0,0.0,0.0,0.0,0.0,0.0,0.0,0.0,0.0,0.0,0.0,0.0,0.0,0.0,0.0,0.0,0.0,0.0,0.0,0.0,0.0,0.0,0.0,0.0,0.0,0.0,0.0,0.0,0.0,0.0,0.0,0.0,0.0,0.0,0.0,0.0,0.0,0.0,0.0,0.0,0.0,0.0,0.0,0.0,0.0,0.0,0.0,0.0,0.0,0.0,0.0,0.0,0.0,0.0,0.4338,0.4257,0.448,0.4392,0.4116,0.3658,0.3051,0.2947,0.3448,0.401,0.0,0.0,0.0,0.0,0.0,0.0,0.0,0.0,0.0,0.0,0.0,0.0,0.0,0.0,0.0,0.0,0.0,0.0,0.0,0.0,0.0,0.0,0.0,0.0,0.0,0.0,0.0,0.0,0.0,0.0,0.0,0.0,0.0,0.0,0.0,0.0,0.0,0.0,0.0,0.0,0.0,0.0,0.0,0.0,0.0,0.0,0.0,0.0,0.0,0.0,0.0,0.0,0.0,0.0,0.0,0.0,0.0,0.0,0.0,0.0,0.0,0.0,0.0,0.0,0.0,0.0,0.0,0.0,0.0,0.0,0.0,0.0,0.0,0.0,0.0,0.0,0.0,0.0,0.0,0.0,0.0,0.0,0.0,0.0,0.0,0.0,0.0,0.0,0.0,0.0,0.0,0.0,0.0,0.0,0.0,0.0,0.0,0.0,0.0,0.0,0.0,0.0,0.4426,0.403,0.0,0.3934,0.3632,0.1553,0.2523,0.3366,0.3592,0.0,0.0,0.0,0.0,0.0,0.0,0.0,0.0,0.0,0.0,0.0,0.0,0.0,0.0,0.0,0.0,0.0,0.0,0.0,0.0,0.0,0.0,0.0,0.0,0.0,0.0,0.0,0.0,0.0,0.0,0.0,0.0,0.0,0.0,0.0,0.0,0.0,0.0,0.0,0.0,0.0,0.0,0.0,0.0,0.0,0.0,0.0,0.0,0.0,0.0,0.0,0.0,0.0,0.0,0.0,0.0,0.0,0.0,0.0,0.0,0.0,0.0,0.0,0.0,0.0,0.0,0.0,0.0,0.0,0.0,0.0,0.0,0.0,0.0,0.0,0.0,0.0,0.0,0.0,0.0,0.0,0.0,0.0,0.0,0.0,0.0,0.0,0.0,0.0,0.0,0.0,0.0,0.0,0.0,0.0,0.0,0.0,0.0,0.0,0.0,0.0,0.0,0.4522,0.4477,0.4089,0.0,0.3028,0.2237,0.0152,0.1849,0.3195,0.367,0.0,0.0,0.0,0.0,0.0,0.0,0.0,0.0,0.0,0.0,0.0,0.0,0.0,0.0,0.0,0.0,0.0,0.0,0.0,0.0,0.0,0.0,0.0,0.0,0.0,0.0,0.0,0.0,0.0,0.0,0.0,0.0,0.0,0.0,0.0,0.0,0.0,0.0,0.0,0.0,0.0,0.0,0.0,0.0,0.0,0.0,0.0,0.0,0.0,0.0,0.0,0.0,0.0,0.0,0.0,0.0,0.0,0.0,0.0,0.0,0.0,0.0,0.0,0.0,0.0,0.0,0.0,0.0,0.0,0.0,0.0,0.0,0.0,0.0,0.0,0.0,0.0,0.0,0.0,0.0,0.0,0.0,0.0,0.0,0.0,0.0,0.0,0.0,0.0,0.0,0.0,0.0,0.0,0.0,0.0,0.0,0.0,0.0,0.0,0.0,0.0,0.0,0.4588,0.449,0.4501,0.4511,0.1794,-0.0,0.0051,0.1117,0.2413,0.0,0.0,0.0,0.0,0.0,0.0,0.0,0.0,0.0,0.0,0.0,0.0,0.0,0.0,0.0,0.0,0.0,0.0,0.0,0.0,0.0,0.0,0.0,0.0,0.0,0.0,0.0,0.0,0.0,0.0,0.0,0.0,0.0,0.0,0.0,0.0,0.0,0.0,0.0,0.0,0.0,0.0,0.0,0.0,0.0,0.0,0.0,0.0,0.0,0.0,0.0,0.0,0.0,0.0,0.0,0.0,0.0,0.0,0.0,0.0,0.0,0.0,0.0,0.0,0.0,0.0,0.0,0.0,0.0,0.0,0.0,0.0,0.0,0.0,0.0,0.0,0.0,0.0,0.0,0.0,0.0,0.0,0.0,0.0,0.0,0.0,0.0,0.0,0.0,0.0,0.0,0.0,0.0,0.0,0.0,0.0,0.0,0.0,0.0,0.0,0.0,0.0,0.0,0.4532,0.3577,0.3304,0.4396,0.1811,0.069,0.2387,0.2093,0.2461,0.4029,0.0,0.0,0.0,0.0,0.0,0.0,0.0,0.0,0.0,0.0,0.0,0.0,0.0,0.0,0.0,0.0,0.0,0.0,0.0,0.0,0.0,0.0,0.0,0.0,0.0,0.0,0.0,0.0,0.0,0.0,0.0,0.0,0.0,0.0,0.0,0.0,0.0,0.0,0.0,0.0,0.0,0.0,0.0,0.0,0.0,0.0,0.0,0.0,0.0,0.0,0.0,0.0,0.0,0.0,0.0,0.0,0.0,0.0,0.0,0.0,0.0,0.0,0.0,0.0,0.0,0.0,0.0,0.0,0.0,0.0,0.0,0.0,0.0,0.0,0.0,0.0,0.0,0.0,0.0,0.0,0.0,0.0,0.0,0.0,0.0,0.0,0.0,0.0,0.0,0.0,0.0,0.0,0.0,0.0,0.0,0.0,0.0,0.0,0.0,0.0,0.0,0.0,0.4484,0.313,0.2347,0.2693,0.1101,0.1072,0.3746,0.319,0.31,0.4139,0.0,0.0,0.0,0.0,0.0,0.0,0.0,0.0,0.0,0.0,0.0,0.0,0.0,0.0,0.0,0.0,0.0,0.0,0.0,0.0,0.0,0.0,0.0,0.0,0.0,0.0,0.0,0.0,0.0,0.0,0.0,0.0,0.0,0.0,0.0,0.0,0.0,0.0,0.0,0.0,0.0,0.0,0.0,0.0,0.0,0.0,0.0,0.0,0.0,0.0,0.0,0.0,0.0,0.0,0.0,0.0,0.0,0.0,0.0,0.0,0.0,0.0,0.0,0.0,0.0,0.0,0.0,0.0,0.0,0.0,0.0,0.0,0.0,0.0,0.0,0.0,0.0,0.0,0.0,0.0,0.0,0.0,0.0,0.0,0.0,0.0,0.0,0.0,0.0,0.0,0.0,0.0,0.0,0.0,0.0,0.0,0.0,0.0,0.0,0.0,0.0,0.0,0.4494,0.3186,0.1786,0.056,0.0279,0.1377,0.4241,0.4217,0.4095,0.4171,0.0,0.0,0.0,0.0,0.0,0.0,0.0,0.0,0.0,0.0,0.0,0.0,0.0,0.0,0.0,0.0,0.0,0.0,0.0,0.0,0.0,0.0,0.0,0.0,0.0,0.0,0.0,0.0,0.0,0.0,0.0,0.0,0.0,0.0,0.0,0.0,0.0,0.0,0.0,0.0,0.0,0.0,0.0,0.0,0.0,0.0,0.0,0.0,0.0,0.0,0.0,0.0,0.0,0.0,0.0,0.0,0.0,0.0,0.0,0.0,1.6415,0.0,0.0,0.0,0.0,0.0,0.0,0.0,0.0,0.0,0.0,0.0,0.0,0.0,0.0,0.0,0.0,0.0,0.0,0.0,0.0,0.0,0.0,0.0,0.0,0.0,0.0,0.0,0.0,0.0,0.0,0.0,0.0,0.0,0.0,0.0,0.0,0.0,0.0,0.0,0.0,0.0,0.4494,0.3519,0.3014,0.3485,0.2458,0.2406,0.4111,0.4213,0.4175,0.4199,0.4117,0.0,0.0,0.0,0.0,0.0,0.0,0.0,0.0,0.0,0.0,0.0,0.0,0.0,0.0,0.0,0.0,0.0,0.0,0.0,0.0,0.0,0.0,0.0,0.0,0.0,0.0,0.0,0.0,0.0,0.0,0.0,0.0,0.0,0.0,0.0,0.0,0.0,0.0,0.0,0.0,0.0,0.0,0.0,0.0,0.0,0.0,0.0,0.0,0.0,0.0,0.0,0.0,0.0,0.0,0.0,0.0,0.0,0.0,0.0,0.0,1.586,0.0,0.0,0.0,0.0,0.0,0.0,0.0,0.0,0.0,0.0,0.0,0.0,0.0,0.0,0.0,0.0,0.0,0.0,0.0,0.0,0.0,0.0,0.0,0.0,0.0,0.0,0.0,0.0,0.0,0.0,0.0,0.0,0.0,0.0,0.0,0.0,0.0,0.0,0.0,0.0,0.4487,0.403,0.3919,0.4445,0.3811,0.3596,0.426,0.435,0.4302,0.4197,0.4239,0.0,0.0,0.0,0.0,0.0,0.0,0.0,0.0,0.0,0.0,0.0,0.0,0.0,0.0,0.0,0.0,0.0,0.0,0.0,0.0,0.0,0.0,0.0,0.0,0.0,0.0,0.0,0.0,0.0,0.0,0.0,0.0,0.0,0.0,0.0,0.0,0.0,0.0,0.0,0.0,0.0,0.0,0.0,0.0,0.0,0.0,0.0,0.0,0.0,0.0,0.0,0.0,0.0,1.2546,1.2871,1.3481,1.3481,1.4004,1.4955,1.4745,1.445,1.4242,0.0,0.0,0.0,0.0,0.0,0.0,0.0,0.0,0.0,0.0,0.0,0.0,0.0,0.0,0.0,0.0,0.0,0.0,0.0,0.0,0.0,0.0,0.0,0.0,0.0,0.9561,0.8837,0.0,0.0,0.0,0.0,0.0,0.0,0.0,0.0,0.0,0.0,0.0,0.0,0.4255,0.4373,0.449,0.4494,0.449,0.4487,0.4477,0.4477,0.4423,0.4241,0.4372,0.4324,0.0,0.0,0.0,0.0,0.0,0.0,0.0,0.0,0.0,0.0,0.0,0.0,0.0,0.0,0.0,0.0,0.0,0.0,0.0,0.0,0.0,0.0,0.0,0.0,0.0,0.0,0.0,0.0,0.0,0.0,0.0,0.0,0.7661,0.7661,0.0,0.0,0.0,0.0,0.0,0.0,0.0,0.0,0.0,0.0,0.0,0.0,0.0,0.0,1.1006,1.1525,1.1847,1.1977,1.223,1.2683,1.3338,1.3338,1.3682,1.4364,1.4356,0.0,1.5203,1.5217,0.0,0.0,0.0,0.0,0.0,0.0,0.0,0.0,0.0,0.0,0.0,0.0,0.0,0.0,0.0,0.0,0.0,0.0,0.0,0.0,0.0,0.0,0.9363,0.9717,0.965,0.9208,0.0,0.7577,0.7128,0.5171,0.0,0.0,0.0,0.0,0.0,0.0,0.0,0.0,0.3299,0.3959,0.4525,0.448,0.4473,0.4522,0.4519,0.4519,0.4512,0.4436,0.4334,0.4314,0.4453,0.4304,0.0,0.0,0.0,0.0,0.0,0.0,0.0,0.0,0.0,0.0,0.0,0.0,0.0,0.0,0.0,0.0,0.0,0.0,0.0,0.0,0.0,0.0,0.0,0.0,0.0,0.0,0.0,0.0,0.0,0.7524,0.7938,0.8293,0.9248,0.9918,0.0,0.0,0.0,0.0,0.0,0.0,0.0,0.0,0.0,1.1337,1.1356,1.1516,1.1977,1.2231,1.2619,1.312,1.3247,1.3642,1.4289,1.4289,1.476,1.5617,1.5348,1.5586,1.6131,1.5038,1.4888,1.5416,0.0,0.0,0.0,0.0,0.0,1.5899,1.4573,0.0,0.0,0.0,0.0,0.0,0.0,0.0,0.0,0.0,0.0,0.0,0.0,0.0,0.0,1.0019,0.9733,0.9126,0.8425,0.8345,0.7701,0.0,0.4816,0.4894,0.4738,0.0,0.0,0.0,0.0,0.4382,0.391,0.4242,0.4525,0.4525,0.4522,0.4519,0.4519,0.4519,0.4519,0.4519,0.4402,0.4362,0.4341,0.4358,0.4362,0.0,0.0,0.0,0.0,0.0,0.0,0.0,0.0,0.0,0.0,0.0,0.0,0.0,0.0,0.0,0.0,0.0,0.0,0.0,0.0,0.0,0.0,0.0,0.0,0.0,0.0,0.0,0.0,0.7354,0.7624,0.8646,0.9283,0.975,0.0,0.0,0.0,0.0,0.0,0.0,1.2265,1.1847,1.1764,1.2198,1.2358,1.2679,1.3193,1.3353,1.3687,1.4422,1.4422,1.4689,1.5184,1.5184,1.5624,1.6393,1.6066,1.629,1.679,1.5449,1.5349,1.6095,1.6084,1.6351,1.6725,1.6437,1.595,1.5198,1.3563,1.2515,1.1701,0.9723,0.0,0.8575,0.8544,0.0,0.0,0.0,0.0,1.054,1.1019,0.0,0.9002,0.9867,0.9484,0.881,0.8575,0.8526,0.7845,0.0,0.4979,0.4866,0.4748,0.0,0.0,0.0,0.0,0.4524,0.4525,0.4525,0.4473,0.4519,0.4519,0.4519,0.4519,0.4519,0.4519,0.4519,0.4519,0.4412,0.4307,0.4406,0.4412,0.4304,0.0,0.0,0.0,0.0,0.0,0.0,0.0,0.0,0.0,0.0,0.0,0.0,0.0,0.0,0.0,0.0,0.0,0.0,0.0,0.0,0.0,0.0,0.0,0.0,0.0,0.0,0.0,0.0,0.0,0.7819,0.7489,0.0,0.0,0.0,0.0,1.0757,1.093,1.1459,1.2728,1.2939,1.3113,1.314,1.3687,1.4122,1.4429,1.471,1.5017,1.5331,1.5331,1.5491,1.5785,1.5785,1.5785,1.588,1.5859,1.6223,1.7018,1.6731,1.6475,1.6258,1.6529,1.6919,1.7187,1.5689,1.4998,1.4488,1.2699,1.1793,1.1162,0.9267,0.8285,0.7687,0.7004,0.7981,0.0,0.0,0.8168,0.8576,0.8408,0.8318,0.8292,0.8635,0.8684,0.8336,0.7429,0.7178,0.6962,0.0,0.6087,0.5856,0.5026,0.0,0.485,0.4711,0.4684,0.4626,0.4536,0.4519,0.4519,0.4519,0.4519,0.4519,0.4519,0.4519,0.4519,0.4519,0.4519,0.4515,0.4508,0.4515,0.4515,0.4508,0.4515,0.0,0.0,0.0,0.0,0.0,0.0,0.0,0.0,0.0,0.0,0.0,0.0,0.0,0.0,0.0,0.0,0.0,0.0,0.0,0.0,0.0,0.0,0.0,0.0,0.0,0.0,0.0,0.0,0.8387,0.8496,0.0,0.8975,0.8837,0.9396,1.0958,1.114,1.1822,1.3587,1.4075,1.4509,1.4883,1.5097,1.5351,1.5645,1.5565,1.5571,1.5671,1.5671,1.5732,1.5737,1.4949,1.4561,1.4561,1.3692,1.3437,1.375,1.4216,1.5345,1.6698,1.6007,1.5921,1.5953,1.4824,1.4421,1.4305,1.3216,1.2825,1.2415,1.0067,0.8707,0.7821,0.741,0.766,0.8217,0.8586,0.8798,0.9005,0.9168,0.8704,0.838,0.9009,0.8688,0.8219,0.818,0.8178,0.7877,0.6871,0.6096,0.5548,0.5133,0.4979,0.4931,0.4969,0.4897,0.4782,0.4629,0.4609,0.4572,0.4529,0.4519,0.4519,0.4519,0.4519,0.4519,0.4519,0.4519,0.4519,0.4519,0.4519,0.4519,0.4519,0.4519,0.4567,0.0,0.0,0.0,0.0,0.0,0.0,0.0,0.0,0.0,0.0,0.0,0.0,0.0,0.0,0.0,0.0,0.0,0.0,0.0,0.0,0.0,0.0,0.0,0.0,0.0,0.0,0.7488,0.9027,0.8814,0.8677,0.9095,0.8708,0.9275,1.125,1.1602,1.2709,1.4993,1.5585,1.5979,1.6266,1.6273,1.6319,1.642,1.6226,1.6072,1.5979,1.5979,1.5684,1.5185,1.4304,1.3727,1.3316,1.2365,1.1945,1.193,1.2511,1.3659,1.5205,1.5461,1.5638,1.5638,1.5053,1.4962,1.4991,1.4118,1.3474,1.2669,1.0762,0.9294,0.8205,0.7529,0.73,0.7517,0.8218,0.8399,0.8443,0.8639,0.8193,0.782,0.8532,0.8087,0.7664,0.7903,0.797,0.7729,0.6857,0.626,0.5763,0.5165,0.5053,0.5023,0.5114,0.5009,0.4901,0.4847,0.4799,0.4728,0.4626,0.4568,0.4538,0.4538,0.4538,0.4573,0.4522,0.4567,0.4573,0.4519,0.4567,0.4538,0.4538,0.4538,0.4589,0.4691,0.0,0.0,0.0,0.0,0.0,0.0,0.0,0.0,0.0,0.0,0.0,0.0,0.0,0.0,0.0,0.0,0.0,0.0,0.0,0.0,0.0,0.0,0.0,0.7098,0.6839,0.733,0.9424,0.8202,0.7528,0.858,0.7945,0.8714,1.1691,1.2325,1.3993,1.7012,1.7422,1.7455,1.7174,1.7174,1.7027,1.6727,1.672,1.6573,1.6286,1.6286,1.5582,1.4074,1.3916,1.3252,1.2164,1.1855,1.176,1.176,1.1755,1.1621,1.167,1.493,1.6133,1.6133,1.6374,1.6477,1.6397,1.5377,1.3665,1.1827,1.1054,0.9923,0.8653,0.714,0.6824,0.6915,0.6706,0.6589,0.6628,0.6605,0.6644,0.6691,0.6891,0.6763,0.6503,0.6284,0.6217,0.6173,0.6191,0.6527,0.6435,0.5331,0.5088,0.5088,0.5081,0.503,0.0,0.5114,0.5009,0.4925,0.4925,0.4792,0.4704,0.4697,0.4697,0.4629,0.4529,0.4602,0.4616,0.4522,0.4606,0.4684,0.4684,0.4687,0.4691,0.4691,0.0,0.0,0.0,0.0,0.0,0.0,0.0,0.0,0.0,0.0,0.0,0.0,0.0,0.0,0.0,0.0,0.0,0.0,0.0,0.0,0.0,0.0,0.65,0.682,0.6934,0.7281,0.8251,0.8083,0.8096,0.85,0.8352,0.9408,1.2214,1.2537,1.3964,1.7025,1.7422,1.7549,1.7468,1.7682,1.7549,1.7034,1.7027,1.6881,1.6587,1.6587,1.587,1.4341,1.335,1.2243,1.0865,0.9778,0.9307,0.9299,0.9172,0.8989,0.9217,1.1848,1.2665,1.2575,1.3407,1.4115,1.4771,1.465,1.354,1.2008,1.1128,0.9962,0.8723,0.7528,0.7217,0.7244,0.7042,0.7108,0.6734,0.4908,0.4495,0.4512,0.4513,0.4468,0.4329,0.404,0.3959,0.3962,0.3949,0.4101,0.4382,0.5179,0.5431,0.5464,0.5352,0.5366,0.0,0.5152,0.5098,0.5074,0.5074,0.5036,0.4969,0.4863,0.4857,0.4745,0.4532,0.4556,0.4563,0.4519,0.456,0.458,0.458,0.4633,0.4691,0.0,0.0,0.0,0.0,0.0,0.0,0.0,0.0,0.0,0.0,0.0,0.0,0.0,0.0,0.0,0.0,0.0,0.0,0.0,0.0,0.0,0.0,0.6712,0.7068,0.7322,0.7394,0.7587,0.8038,0.8252,0.8418,0.8564,0.8577,0.9572,1.1829,1.2777,1.4325,1.6769,1.783,1.8277,1.815,1.8203,1.8003,1.7528,1.6871,1.6352,1.5954,1.5445,1.4395,1.2842,1.2024,1.0997,0.0,0.873,0.833,0.8272,0.818,0.8109,0.0,0.0,0.0,0.0,0.0,1.289,1.3611,1.3453,1.2916,1.206,1.082,0.9754,0.8771,0.7784,0.7465,0.7472,0.731,0.6605,0.5223,0.2755,0.206,0.211,0.207,0.2094,0.203,0.1819,0.179,0.2082,0.2899,0.0,0.0,0.4162,0.436,0.4723,0.544,0.5529,0.5514,0.5405,0.5276,0.5196,0.5196,0.5145,0.5098,0.5013,0.5006,0.0,0.0,0.0,0.4626,0.4562,0.4558,0.0,0.0,0.0,0.4755,0.4691,0.0,0.0,0.0,0.5111,0.5199,0.0,0.0,0.0,0.0,0.0,0.0,0.0,0.0,0.0,0.0,0.0,0.0,0.0,0.0,0.0,0.0,0.735,0.7675,0.8262,0.8113,0.8085,0.8486,0.8533,0.8601,0.8771,0.8771,0.9523,1.1152,1.2885,1.4448,1.6098,0.0,0.0,0.0,0.0,1.8183,1.7718,1.629,1.5269,1.4769,1.3602,1.2201,1.0753,1.0581,0.9863,0.8726,0.8574,0.8442,0.8336,0.8303,0.8001,0.7672,0.9229,0.9891,1.0066,1.123,1.2099,0.0,0.0,0.0,0.0,1.0254,0.9363,0.8774,0.7851,0.7624,0.7631,0.757,0.5646,0.3059,0.0671,-0.0,-0.0,-0.0,-0.0,-0.0,-0.0,-0.0,0.0586,0.2382,0.2783,0.2681,0.2459,0.2425,0.3025,0.4836,0.5135,0.5243,0.5426,0.5278,0.5186,0.5345,0.0,0.0,0.5159,0.5155,0.503,0.4735,0.4843,0.4857,0.4721,0.4718,0.4718,0.4718,0.485,0.4853,0.4718,0.4867,0.5006,0.5135,0.527,0.5352,0.0,0.0,0.0,0.0,0.0,0.0,0.0,0.0,0.0,0.0,0.0,0.0,0.0,0.0,0.0,0.7441,0.7841,0.8262,0.874,0.8757,0.8754,0.8842,0.8852,0.8954,0.9225,0.914,0.9811,1.1355,1.1712,1.2697,1.4577,1.616,0.0,1.693,1.7207,1.6954,1.626,1.4899,1.4087,1.3628,0.0,0.0,1.105,1.1012,1.0159,0.8886,0.8733,0.8662,0.8528,0.8387,0.6856,0.5024,0.7447,0.8856,0.9581,0.987,1.0464,1.1204,1.1021,1.0486,0.9674,0.9498,0.8707,0.7858,0.7822,0.777,0.0,0.7627,0.5814,0.3281,0.0699,-0.0,-0.0,-0.0,-0.0,-0.0,-0.0,-0.0,0.0084,0.0502,0.0586,0.0581,0.0568,0.0552,0.0691,0.1059,0.248,0.3505,0.3302,0.3276,0.3802,0.5266,0.5341,0.5322,0.5328,0.5318,0.5189,0.4894,0.4904,0.4904,0.4877,0.4874,0.4874,0.4874,0.4904,0.4904,0.4874,0.502,0.5104,0.5131,0.5162,0.5243,0.0,0.0,0.0,0.0,0.0,0.0,0.0,0.0,0.0,0.0,0.0,0.707,0.0,0.0,0.7543,0.8072,0.8408,0.8737,0.9106,0.9161,0.9161,0.9161,0.9161,0.9249,0.9473,0.9425,0.9789,1.0635,1.1382,1.2221,1.3122,1.4662,1.5604,1.5604,1.5598,1.5418,1.5057,1.3585,1.2629,1.2335,1.1668,1.0891,1.0143,1.0059,0.9632,0.9039,0.8889,0.8801,0.8632,0.6849,0.5331,0.4227,0.6971,0.8329,0.8721,0.8721,0.9315,1.0098,0.9545,0.927,0.9158,0.8779,0.8239,0.7733,0.7882,0.7933,0.7851,0.7776,0.6924,0.5044,0.1009,-0.0,-0.0,-0.0,-0.0,-0.0,-0.0,-0.0,-0.0,-0.0,-0.0,-0.0,-0.0,-0.0,-0.0,-0.0,0.0846,0.1532,0.1362,0.1328,0.2409,0.5129,0.5386,0.5431,0.542,0.5335,0.5182,0.5033,0.4958,0.4918,0.4918,0.4918,0.4918,0.4918,0.4989,0.5023,0.5023,0.5172,0.5247,0.5247,0.5325,0.5362,0.0,0.0,0.0,0.0,0.0,0.0,0.0,0.9746,0.9129,0.8654,0.8734,0.8822,0.8489,0.8302,0.8364,0.9026,0.9078,0.9072,0.9344,0.9408,0.9435,0.9462,0.9415,0.9452,0.9632,0.9598,0.9635,0.9808,1.0989,1.1703,1.1736,1.3292,1.4128,1.4128,1.3947,1.383,1.379,1.2169,1.1193,1.0868,0.9889,0.9317,0.9191,0.9049,0.9045,0.9147,0.9005,0.853,0.7834,0.4543,0.3194,0.3429,0.5564,0.6776,0.7263,0.7772,0.855,0.9083,0.8252,0.8412,0.8887,0.8206,0.7933,0.7879,0.8001,0.7955,0.7872,0.7369,0.7594,0.679,0.1414,-0.0,-0.0,-0.0,-0.0,-0.0,-0.0,-0.0,-0.0,-0.0,-0.0,-0.0,-0.0,-0.0,-0.0,-0.0,-0.0,-0.0,-0.0,-0.0,0.1133,0.402,0.502,0.544,0.5437,0.5319,0.522,0.522,0.5114,0.5036,0.5006,0.506,0.5064,0.5006,0.5172,0.5247,0.522,0.5372,0.5447,0.545,0.5576,0.5549,1.5526,1.4442,1.324,1.3149,1.1814,1.0813,0.0,1.1461,1.1027,1.1237,1.1512,1.1662,1.1864,1.1074,1.0406,1.0567,0.9816,0.9188,0.9357,0.95,0.9632,0.9758,0.954,0.949,0.9771,0.9561,0.952,0.9798,0.9823,0.9926,1.0051,1.1615,1.2453,1.2453,1.2431,1.2337,1.2281,1.0657,0.9756,0.9582,0.9487,0.9371,0.9351,0.9198,0.9137,0.9147,0.9025,0.7368,0.479,0.1697,0.0416,0.0505,0.0808,0.232,0.4738,0.7172,0.8082,0.8139,0.806,0.8028,0.7983,0.7824,0.7916,0.8018,0.8035,0.7955,0.7463,0.5127,0.6158,0.679,0.1414,-0.0,-0.0,-0.0,-0.0,-0.0,-0.0,-0.0,-0.0,-0.0,-0.0,-0.0,-0.0,-0.0,-0.0,-0.0,-0.0,-0.0,-0.0,-0.0,0.0151,0.0529,0.3618,0.5682,0.5663,0.557,0.5538,0.5538,0.5521,0.5454,0.5318,0.5562,0.5579,0.5318,0.5586,0.5664,0.5538,0.5681,0.5752,0.5752,0.5769,0.5701,1.541,1.5191,1.478,1.4021,1.3528,1.3308,1.3374,1.3243,1.3115,1.3042,1.3183,1.323,1.2573,1.2161,1.1883,0.0,1.1008,1.0324,1.0593,1.0011,0.9466,0.9435,0.9323,0.9398,0.9785,0.971,0.969,0.9812,0.9768,0.9758,0.9819,1.0418,1.0778,1.0778,1.0778,1.0744,1.0673,1.0088,0.9659,0.9513,0.9513,0.9466,0.9381,0.9313,0.9239,0.9147,0.9025,0.8134,0.6482,0.191,-0.0,-0.0,-0.0,0.0707,0.1815,0.2919,0.4301,0.5864,0.748,0.7977,0.7963,0.7963,0.7997,0.8041,0.7955,0.7969,0.7779,0.6667,0.4847,0.2827,0.0606,-0.0,-0.0,-0.0,-0.0,-0.0,-0.0,-0.0,-0.0,-0.0,-0.0,-0.0,-0.0,-0.0,-0.0,-0.0,-0.0,-0.0,-0.0,-0.0,-0.0,-0.0,0.1434,0.3329,0.5557,0.5711,0.5668,0.5661,0.5661,0.5627,0.562,0.5735,0.5742,0.562,0.5739,0.5776,0.5661,0.5718,0.5751,0.5833,0.5772,0.5782,1.553,1.5919,1.6017,1.4895,1.5173,1.5462,1.4627,1.4863,1.512,1.4774,1.4894,1.4813,1.3909,1.3416,1.3241,1.3539,1.2036,1.099,1.1419,1.0222,0.9276,0.9167,0.9117,0.9235,0.9602,0.9635,0.9673,0.9754,0.9764,0.9781,0.9819,0.9822,0.9822,0.9822,0.9822,0.9822,0.9822,0.9781,0.973,0.9666,0.9629,0.9571,0.95,0.9418,0.9276,0.9089,0.9001,0.8821,0.8368,0.415,0.146,-0.0,-0.0,-0.0,-0.0,-0.0,0.1207,0.3214,0.5135,0.6247,0.7054,0.7772,0.7965,0.7955,0.7972,0.7989,0.8006,0.8019,0.4144,-0.0,-0.0,-0.0,-0.0,-0.0,-0.0,-0.0,-0.0,-0.0,-0.0,-0.0,-0.0,-0.0,-0.0,-0.0,-0.0,-0.0,-0.0,-0.0,-0.0,-0.0,-0.0,-0.0,-0.0,0.1144,0.3952,0.4738,0.5012,0.5006,0.5453,0.5729,0.5817,0.5895,0.5898,0.5817,0.5895,0.5852,0.5755,0.5191,0.4981,0.5067,0.5084,0.507,1.5928,1.6078,1.5998,1.5599,1.6141,1.6544,1.5552,1.6246,1.6994,1.6633,1.6914,1.7034,1.6653,1.5368,1.4532,1.4902,1.269,1.1054,1.1239,1.0047,0.9157,0.9154,0.9028,0.9005,0.0,0.9174,0.9296,0.9595,0.9615,0.9676,0.9815,0.9822,0.9822,0.9822,0.9822,0.9822,0.9822,0.9686,0.9683,0.9812,0.9676,0.968,0.9798,0.951,0.9222,0.8947,0.894,0.8876,0.8872,0.8395,0.4952,-0.0,-0.0,-0.0,-0.0,-0.0,0.0101,0.0101,0.0201,0.1908,0.4522,0.7166,0.7989,0.7989,0.7992,0.8006,0.8022,0.8026,0.4144,-0.0,-0.0,-0.0,-0.0,-0.0,-0.0,-0.0,-0.0,-0.0,-0.0,-0.0,-0.0,-0.0,-0.0,-0.0,-0.0,-0.0,-0.0,-0.0,-0.0,-0.0,-0.0,-0.0,-0.0,0.008,0.0157,0.1986,0.3167,0.3167,0.4844,0.578,0.5785,0.6129,0.6146,0.5785,0.6135,0.6133,0.5767,0.4015,0.3195,0.3195,0.3198,0.3161,1.6814,1.738,1.7731,1.7292,1.7198,1.7113,1.6436,1.6573,1.6827,1.6727,1.6319,1.5899,1.5605,1.5165,1.4967,1.5249,1.4355,1.3438,1.2687,1.1634,1.0385,0.8862,0.8845,0.0,0.0,0.0,0.0,0.9581,0.9513,0.9564,0.9808,0.9822,0.9822,0.9822,0.9822,0.9774,0.9683,0.9635,0.9585,0.9527,0.9378,0.9384,0.9517,0.9222,0.9083,0.9076,0.8981,0.8869,0.8527,0.6645,0.5586,0.4981,0.1424,-0.0,-0.0,-0.0,-0.0,-0.0,-0.0,0.0604,0.1507,0.2412,0.392,0.5639,0.7491,0.8019,0.7302,0.3737,0.1414,-0.0,-0.0,-0.0,-0.0,-0.0,-0.0,-0.0,-0.0,-0.0,-0.0,-0.0,-0.0,-0.0,-0.0,-0.0,-0.0,-0.0,-0.0,-0.0,-0.0,-0.0,-0.0,-0.0,-0.0,-0.0,-0.0,0.0638,0.1024,0.1006,0.1624,0.2543,0.3973,0.4112,0.4115,0.3973,0.4112,0.4846,0.6167,0.5497,0.3799,0.1043,0.1043,0.1788,1.7279,1.8011,1.8372,1.8232,1.8069,1.7792,1.6932,1.6707,1.6587,1.6166,1.5258,1.4462,1.3976,1.3885,1.4047,1.4533,1.4339,1.4162,1.3922,1.2351,1.0835,0.9708,0.9124,0.8821,0.0,0.0,0.0,0.9493,0.949,0.9568,0.9808,0.9822,0.9825,0.9832,0.9825,0.9758,0.9622,0.9561,0.9452,0.93,0.9256,0.9256,0.9293,0.9103,0.9035,0.9072,0.8988,0.8876,0.8527,0.6762,0.5718,0.4816,0.1326,-0.0,-0.0204,-0.2125,-0.2827,-0.2625,-0.0707,-0.0,-0.0,-0.0,0.1208,0.2918,0.4647,0.5159,0.4448,0.101,-0.0,-0.0,-0.0,-0.0,-0.0,-0.0,-0.0,-0.0,-0.0,-0.0,-0.0,-0.0,-0.0,-0.0,-0.0,-0.0,-0.0,-0.0,-0.0,-0.0,-0.0,-0.0,-0.0,-0.0,-0.0,-0.0,-0.0,-0.0,-0.0,-0.0,-0.0,0.0629,0.19,0.198,0.198,0.198,0.1997,0.2641,0.4066,0.4021,0.2681,-0.0,-0.0,0.0751,1.7338,1.8048,1.8071,1.8476,1.8718,1.8549,1.7068,1.666,1.6195,1.515,1.39,1.2723,1.1888,0.0,1.2131,1.2997,1.3069,1.3454,1.478,1.2596,1.092,0.0,0.0,0.0,0.0,0.0,0.0,0.9384,0.0,0.9663,0.9812,0.9829,0.9839,0.9856,0.9579,0.9509,0.9513,0.9452,0.9289,0.9147,0.9293,0.9283,0.9144,0.9144,0.9069,0.8944,0.8853,0.8903,0.8886,0.8862,0.5339,-0.0,-0.0,-0.0,-0.0621,-0.6012,-0.8026,-0.7305,-0.2221,-0.0303,-0.0202,-0.0202,-0.0202,-0.0202,-0.0202,-0.0101,-0.0,-0.0,-0.0,-0.0,-0.0,-0.0,-0.0,-0.0,-0.0,-0.0,-0.0,-0.0,-0.0,-0.0,-0.0,-0.0,-0.0,-0.0,-0.0,-0.0,-0.0,-0.0,-0.0,-0.0,-0.0,-0.0,-0.0,-0.0,-0.0,-0.0,-0.0,-0.0,-0.0,-0.0,-0.0,-0.0,-0.0,-0.0,-0.0,-0.0,-0.0,-0.0,-0.0,-0.0,-0.0,-0.0,1.732,1.8222,1.8542,1.9078,1.8181,1.7189,1.682,1.5531,1.4245,1.3467,1.1717,1.0247,0.9985,1.0094,0.0,1.2302,1.3782,0.0,1.5247,1.526,0.0,1.1746,1.1201,1.0591,0.9428,0.9357,0.0,0.0,0.9605,0.9551,0.9808,0.9947,0.9968,0.9859,0.7414,0.7324,0.9745,0.9239,0.896,0.9018,0.9059,0.9049,0.8994,0.8994,0.8984,0.8853,0.886,0.891,0.8907,0.8869,0.5406,-0.0,-0.0,-0.0,-0.061,-0.5984,-0.8026,-0.7815,-0.6467,-0.4632,-0.3015,-0.3015,-0.3015,-0.3015,-0.3015,-0.1609,-0.0,-0.0,-0.0,-0.0,-0.0,-0.0,-0.0,-0.0,-0.0,-0.0,-0.0,-0.0,-0.0,-0.0,-0.0,-0.0,-0.0,-0.0,-0.0,-0.0,-0.0,-0.0,-0.0,-0.0,-0.0,-0.0,-0.0,-0.0,-0.0,-0.0,-0.0,-0.0,-0.0,-0.0,-0.0,-0.0,-0.0,-0.0,-0.0,-0.0,-0.0,-0.0,-0.0,-0.0,-0.0,-0.0,1.6209,1.6918,1.7299,1.845,1.7846,1.6767,1.6246,1.475,1.3193,1.2023,1.0067,0.846,0.82,0.8657,0.9622,0.0,0.0,0.0,1.6068,1.6392,1.5847,0.0,1.2839,0.0,1.0856,1.0109,0.99,0.0,0.9917,0.9819,0.9917,1.0025,0.9382,0.7752,0.5812,0.5806,0.7609,0.7244,0.6924,0.6974,0.8273,0.887,0.8856,0.8899,0.8879,0.8889,0.0,0.8907,0.8725,0.61,0.3061,-0.0,-0.0,-0.1431,-0.3786,-0.5777,-0.7214,-0.8093,-0.8177,-0.7134,-0.5888,-0.5751,-0.5737,-0.5737,-0.5737,-0.4728,-0.3016,-0.0704,-0.0,-0.0,-0.0,-0.0,-0.0,-0.0,-0.0,-0.0,-0.0,-0.0,-0.0,-0.0,-0.0,-0.0,-0.0,-0.0,-0.0,-0.0,-0.0,-0.0,-0.0,-0.0,-0.0,-0.0,-0.0,-0.0,-0.0,-0.0,-0.0,-0.0,-0.0,-0.0,-0.0,-0.0,-0.0,-0.0,-0.0,-0.0,-0.0,-0.0,-0.0,-0.0,-0.0,-0.0,1.4212,1.4982,1.5517,1.7309,1.7483,1.6794,1.5558,1.3989,1.2272,1.0518,0.8573,0.7047,0.6585,0.7359,0.8478,0.9741,0.0,1.4539,1.6711,1.6518,1.6486,1.7043,1.4801,1.2996,1.2564,1.1215,1.0419,1.0327,1.0337,1.0263,1.009,1.0107,0.8381,0.4403,0.4221,0.4217,0.4244,0.4023,0.388,0.3923,0.645,0.797,0.8291,0.8297,0.8477,0.8927,0.0,0.0,0.7363,0.2126,-0.0,-0.0,-0.0,-0.3335,-0.7865,-0.5698,-0.6393,-0.8282,-0.8252,-0.8241,-0.8221,-0.8019,-0.7982,-0.7982,-0.7982,-0.7985,-0.7065,-0.2412,-0.0804,-0.0402,-0.0101,-0.0,-0.0,-0.0,-0.0,-0.0,-0.0,-0.0,-0.0,-0.0,-0.0,-0.0,-0.0,-0.0,-0.0,-0.0,-0.0,-0.0,-0.0,-0.0,-0.0,-0.0,-0.0,-0.0,-0.0,-0.0,-0.0,-0.0,-0.0,-0.0,-0.0,-0.0,-0.0,-0.0,-0.0,-0.0,-0.0,-0.0,-0.0359,-0.0898,-0.0898,-0.0808,1.1612,1.4035,1.6016,1.6333,1.6611,1.6328,1.4728,1.2428,1.0245,0.8413,0.6794,0.5755,0.5631,0.5989,0.683,0.8555,1.0778,1.3157,1.5559,1.7143,1.7924,0.0,1.6834,1.5676,1.3169,1.2693,0.0,0.0,0.0,1.0527,1.0256,1.028,0.7401,0.1069,0.0828,0.0813,0.0896,0.0784,0.0777,0.0763,0.133,0.2883,0.5259,0.5208,0.6589,0.8873,0.0,0.0,0.1411,0.0435,-0.0,-0.0,-0.0,-0.3611,-0.8642,-0.7764,-0.7798,-0.8269,-0.813,-0.8079,-0.8075,-0.8055,-0.8048,-0.8048,-0.8048,-0.7962,-0.7772,-0.6853,-0.5027,-0.2812,-0.0604,-0.0,-0.0,-0.0,-0.0,-0.0,-0.0,-0.0,-0.0,-0.0,-0.0,-0.0,-0.0,-0.0,-0.0,-0.0,-0.0,-0.0,-0.0,-0.0,-0.0,-0.0,-0.0,-0.0,-0.0,-0.0,-0.0,-0.0,-0.0,-0.0,-0.0,-0.0,-0.0,-0.0,-0.0,-0.0,-0.0,-0.0,-0.2066,-0.5858,-0.5858,-0.4851,0.9798,1.205,1.4009,1.5584,1.5545,1.4844,1.3499,1.1466,0.9365,0.7471,0.619,0.5428,0.5428,0.5944,0.6792,0.8097,0.9707,1.178,1.4658,1.6128,1.7392,1.833,1.8004,1.7224,1.5813,1.4153,1.28,0.0,0.0,1.0507,1.0293,0.85,0.5176,0.0118,-0.0,-0.0,-0.0,-0.0,-0.0,-0.0,-0.0,0.078,0.2211,0.2211,0.2877,0.4322,0.4322,0.0,-0.0,-0.0,-0.0,-0.032,-0.3448,-0.5487,-0.6728,-0.7981,-0.8488,-0.8496,-0.8414,-0.8336,-0.8269,-0.8269,-0.8163,-0.8038,-0.8038,-0.8045,-0.7975,-0.816,-0.7104,-0.5749,-0.448,-0.2127,-0.0,-0.0,-0.0,-0.0,-0.0,-0.0,-0.0,-0.0,-0.0,-0.0,-0.0,-0.0,-0.0,-0.0,-0.0,-0.0,-0.0,-0.0,-0.0,-0.0,-0.0,-0.0,-0.0,-0.0,-0.0,-0.0,-0.0,-0.0,-0.0,-0.0,-0.0,-0.0,-0.0,-0.0,-0.0,-0.0,-0.1174,-0.3466,-0.5986,-0.6488,0.8511,1.029,1.1693,1.4119,1.4195,1.3193,1.1878,1.0431,0.8748,0.6802,0.5881,0.5428,0.5428,0.6013,0.6781,0.7479,0.8553,1.0399,1.321,1.4394,1.5848,1.8122,1.7821,0.0,1.7102,1.4756,0.0,0.0,0.0,0.0,1.0246,0.7614,0.4242,0.0117,-0.0,-0.0,-0.0,-0.0,-0.0,-0.0,-0.0,-0.0,-0.0,-0.0,-0.0,-0.0,-0.0,0.0,0.0,-0.1861,-0.1528,-0.1402,-0.6141,-0.688,-0.5708,-0.7956,-0.8832,-0.8706,-0.8672,-0.8581,-0.8482,-0.8482,-0.8282,-0.8052,-0.8116,-0.8113,-0.8116,-0.8248,-0.8201,-0.8046,-0.8071,-0.4912,-0.1523,-0.0311,-0.0,-0.0,-0.0,-0.0,-0.0,-0.0,-0.0,-0.0,-0.0,-0.0,-0.0,-0.0,-0.0,-0.0,-0.0,-0.0,-0.0,-0.0,-0.0,-0.0,-0.0,-0.0,-0.0,-0.0,-0.0,-0.0,-0.0,-0.0,-0.0,-0.0,-0.0,-0.0,-0.0,-0.0,-0.0,-0.0093,-0.4324,-0.6337,0.8055,0.9828,1.0213,1.1377,1.2087,1.2027,0.9899,0.8668,0.7496,0.5854,0.5425,0.5428,0.5428,0.5495,0.5712,0.6103,0.7409,0.8845,1.0389,1.1999,1.3551,1.4844,0.0,0.0,1.366,1.334,0.0,0.0,0.0,0.0,0.0,0.9968,0.6803,0.0235,-0.0,-0.0,-0.0,-0.0,-0.0,-0.0,-0.0,-0.0,-0.0,-0.0,-0.0,-0.0,0.0,0.0,0.0,-0.8091,-0.649,-0.4118,-0.4684,-0.6359,-0.8468,-0.8587,-0.8632,-0.8693,-0.855,-0.8492,-0.8482,-0.8482,-0.8282,-0.8089,-0.836,-0.835,-0.8252,-0.8269,-0.8262,-0.8258,-0.8282,-0.7862,-0.6215,-0.116,-0.0,-0.0,-0.0,-0.0,-0.0,-0.0,-0.0,-0.0,-0.0,-0.0,-0.0,-0.0,-0.0,-0.0,-0.0,-0.0,-0.0,-0.0,-0.0,-0.0,-0.0,-0.0,-0.0,-0.0,-0.0,-0.0,-0.0,-0.0,-0.0,-0.0,-0.0,-0.0,-0.0,-0.0,-0.0,-0.0095,-0.2655,-0.3892,0.3165,0.6786,0.9835,0.998,0.9852,0.943,0.8896,0.808,0.6965,0.5491,0.5294,0.5308,0.5128,0.5167,0.5257,0.5447,0.5926,0.7007,0.8855,0.9979,1.1432,1.3691,1.4396,0.0,0.0,0.0,0.0,0.0,0.0,0.0,0.0,0.9717,0.7698,0.3051,0.104,-0.0,-0.0,-0.0,-0.0,-0.0,-0.0,-0.0,-0.0,-0.0,-0.1906,-0.539,0.0,0.0,0.0,-0.8214,-0.8211,-0.7179,-0.7168,-0.7844,-0.8853,-0.8779,-0.8746,-0.8838,-0.8777,-0.8696,-0.8635,-0.8726,-0.855,-0.8326,-0.8445,-0.8442,-0.8418,-0.8509,-0.8469,-0.8421,-0.8516,-0.855,-0.7496,-0.3659,-0.1318,-0.0,-0.0,-0.0,-0.0,-0.0,-0.2901,-0.421,-0.0658,-0.0,-0.0,-0.0,-0.0,-0.0,-0.0,-0.0,-0.0,-0.0,-0.0,-0.0,-0.0,-0.0,-0.0,-0.0,-0.3021,-0.4818,-0.4823,-0.1694,-0.0,-0.0,-0.0,-0.0,-0.0,-0.0,-0.0,-0.0,-0.0958,-0.2316,-0.0,0.3377,0.7015,0.7749,0.7945,0.8018,0.8026,0.7372,0.6439,0.5407,0.5199,0.5226,0.5102,0.4999,0.4917,0.4725,0.4941,0.5815,0.7614,0.8226,0.9367,1.1628,0.0,1.3011,0.0,0.0,0.0,0.0,0.0,0.0,0.0,0.9456,0.8377,0.6292,0.2979,0.1357,0.1344,0.0448,-0.0,-0.0,-0.0,-0.0,-0.0,-0.0,-0.3251,-0.8913,0.0,0.0,0.0,-0.8081,-0.8883,-0.8873,-0.886,-0.8853,-0.885,-0.8944,-0.894,-0.894,-0.894,-0.8869,-0.8798,-0.8903,-0.8794,-0.8618,-0.8618,-0.8584,-0.857,-0.8679,-0.8632,-0.8574,-0.8682,-0.8652,-0.8256,-0.6262,-0.421,-0.2346,-0.1563,-0.1342,-0.1344,-0.1344,-0.4709,-0.6492,-0.3202,-0.187,-0.1305,-0.1375,-0.1258,-0.1141,-0.1222,-0.1213,-0.1209,-0.1209,-0.1209,-0.1513,-0.2322,-0.2323,-0.2006,-0.1187,-0.4749,-0.7189,-0.7948,-0.4327,-0.1626,-0.0,-0.0,-0.0,-0.0,-0.0,-0.0,-0.0,-0.0,-0.1476,-0.0,-0.0,0.0887,0.4176,0.697,0.8477,0.7087,0.6214,0.5709,0.5435,0.5133,0.4994,0.5363,0.5071,0.4538,0.3763,0.4596,0.5686,0.6445,0.6854,0.7363,0.0,0.0,0.9062,0.0,0.0,0.0,0.0,0.0,0.0,0.0,0.9239,0.9167,0.9188,0.609,0.4472,0.447,0.1452,-0.0,-0.0,-0.0,-0.0,-0.0,-0.0,-0.3251,0.0,0.0,0.0,0.0,-0.8863,-0.885,-0.894,-0.894,-0.894,-0.894,-0.894,-0.894,-0.894,-0.894,-0.8937,-0.8937,-0.894,-0.8937,-0.8933,-0.8933,-0.8828,-0.871,-0.871,-0.871,-0.871,-0.871,-0.8838,-0.886,-0.886,-0.8876,-0.7979,-0.5033,-0.447,-0.447,-0.447,-0.447,-0.5483,-0.832,-0.6386,-0.4443,-0.4477,-0.4183,-0.4003,-0.393,-0.396,-0.3915,-0.3915,-0.3915,-0.5033,-0.7711,-0.7922,-0.6779,-0.4117,-0.4016,-0.5187,-0.7885,-0.7979,-0.5446,-0.0095,-0.0,-0.0,-0.0,-0.0,-0.0,-0.0,-0.0,-0.141,-0.0,-0.0,0.0289,0.133,0.2217,0.3177,0.4513,0.4222,0.3652,0.359,0.3478,0.3333,0.3219,0.4124,0.475,0.4284,0.4692,0.5296,0.6029,0.0,0.0,0.7585,0.8402,0.0,0.0,0.0,0.0,0.0,0.0,0.0,0.0,0.9055,0.9079,0.9184,0.8133,0.751,0.7522,0.651,0.403,-0.0,-0.0,-0.0,-0.0,-0.0,0.0,0.0,0.0,0.0,0.0,-0.8856,-0.8856,-0.8853,-0.8853,-0.8853,-0.885,-0.8944,-0.894,-0.894,-0.894,-0.894,-0.894,-0.894,-0.894,-0.894,-0.894,-0.8906,-0.8866,-0.8866,-0.8866,-0.8866,-0.8866,-0.8906,-0.895,-0.895,-0.8856,-0.8641,-0.773,-0.7513,-0.7522,-0.7522,-0.7513,-0.7847,-0.8775,-0.8081,-0.7465,-0.7463,-0.7408,-0.7333,-0.7095,-0.6864,-0.6782,-0.6782,-0.6707,-0.635,-0.5338,-0.6971,-0.7688,-0.6759,-0.6751,-0.7138,-0.8014,-0.8014,-0.7183,-0.5539,-0.3673,-0.2687,-0.2691,-0.2707,-0.2715,-0.2715,-0.2715,-0.4123,-0.0,-0.0,-0.0,-0.0,-0.0,0.0453,0.2097,0.206,0.168,0.1672,0.2568,0.2975,0.1616,0.3216,0.4676,0.454,0.4696,0.495,0.5286,0.0,0.0,0.7563,0.0,0.0,0.0,0.0,0.0,0.0,0.0,0.0,0.0,0.0,0.8917,0.9117,0.8913,0.887,0.8883,0.8903,0.7081,0.3356,0.112,-0.0,-0.0,-0.0,0.0,0.0,0.0,0.0,0.0,-0.8856,-0.8856,-0.885,-0.885,-0.885,-0.8846,-0.8944,-0.894,-0.894,-0.894,-0.894,-0.894,-0.894,-0.894,-0.894,-0.894,-0.894,-0.894,-0.894,-0.894,-0.894,-0.894,-0.894,-0.894,-0.894,-0.895,-0.885,-0.885,-0.886,-0.887,-0.887,-0.886,-0.8853,-0.8866,-0.886,-0.8933,-0.8855,-0.8903,-0.872,-0.8625,-0.8371,-0.817,-0.817,-0.8143,-0.7434,-0.5785,-0.7083,-0.7979,-0.7972,-0.7965,-0.7959,-0.7959,-0.7959,-0.7965,-0.7972,-0.6339,-0.5529,-0.5534,-0.5534,-0.5534,-0.5534,-0.5534,-0.6445,0.0,-0.0158,-0.0415,-0.0415,-0.0311,-0.0144,-0.0,-0.0,0.0,-0.0,0.2228,0.3364,0.0772,0.2525,0.4381,0.4473,0.4559,0.4512,0.0,0.5901,0.0,0.0,0.0,0.0,0.0,0.0,0.0,0.0,0.0,0.0,0.0,0.0,0.8782,0.8552,0.8762,0.8752,0.8631,0.8782,0.8913,0.8798,0.2803,-0.0,-0.0,-0.0,0.0,0.0,0.0,0.0,0.0,-0.886,-0.885,-0.8944,-0.8944,-0.8944,-0.8944,-0.894,-0.894,-0.894,-0.894,-0.894,-0.894,-0.894,-0.894,-0.894,-0.894,-0.894,-0.894,-0.894,-0.894,-0.894,-0.894,-0.8947,-0.8954,-0.8954,-0.8954,-0.8957,-0.8967,-0.8954,-0.8944,-0.895,-0.8947,-0.894,-0.894,-0.894,-0.894,-0.894,-0.8818,-0.8726,-0.8726,-0.8594,-0.8499,-0.8499,-0.837,-0.8286,-0.8286,-0.8153,-0.7962,-0.8041,-0.8038,-0.8038,-0.8038,-0.8038,-0.8048,-0.7969,-0.7972,-0.7975,-0.7985,-0.7985,-0.7985,-0.7985,-0.7985,-0.7982,-0.0,0.0,-0.4141,-0.4141,-0.3072,-0.1687,0.0,-0.0,-0.0,-0.0,0.0582,0.1558,0.3119,0.3275,0.3404,0.4365,0.352,0.3097,0.3918,0.0,0.0,0.0,0.0,0.0,0.0,0.0,0.0,0.0,0.0,0.0,0.0,0.0,0.7874,0.5596,0.7753,0.7865,0.559,0.7759,0.8913,0.8798,0.2803,-0.0,-0.0,-0.0,0.0,0.0,0.0,0.0,-0.6813,-0.8288,-0.887,-0.888,-0.886,-0.8866,-0.8876,-0.8954,-0.894,-0.894,-0.894,-0.894,-0.894,-0.894,-0.894,-0.894,-0.894,-0.894,-0.894,-0.894,-0.894,-0.894,-0.894,-0.9022,-0.9103,-0.9103,-0.9103,-0.9133,-0.9252,-0.91,-0.8971,-0.9083,-0.9015,-0.894,-0.894,-0.894,-0.894,-0.894,-0.891,-0.8882,-0.8882,-0.875,-0.8655,-0.8655,-0.8523,-0.8431,-0.8431,-0.8194,-0.8045,-0.8038,-0.8038,-0.8038,-0.8038,-0.8038,-0.8041,-0.8048,-0.8048,-0.8048,-0.7952,-0.7952,-0.7952,-0.7952,-0.7952,-0.8048,-0.0,-0.2627,-0.5413,-0.5413,-0.4671,-0.3711,-0.268,-0.1197,-0.0,-0.0,-0.0,0.0725,0.3028,0.2921,0.3192,0.0,0.4784,0.0,0.0,0.0,0.0,0.0,0.0,0.0,0.0,0.0,0.0,0.0,0.0,0.0,0.0,0.0,0.4713,0.4484,0.7321,0.8115,0.6507,0.5386,0.4826,0.4825,0.1569,-0.0,-0.0,-0.0,0.0,0.0,0.0,0.0,-0.7402,-0.8428,-0.8883,-0.8765,-0.7952,-0.8063,-0.8863,-0.8947,-0.894,-0.894,-0.894,-0.894,-0.894,-0.894,-0.894,-0.894,-0.894,-0.894,-0.894,-0.894,-0.894,-0.894,-0.894,-0.9045,-0.9154,-0.9154,-0.9208,-0.9283,-0.9364,-0.9256,-0.9164,-0.9242,-0.9137,-0.9035,-0.9035,-0.8981,-0.894,-0.894,-0.894,-0.894,-0.894,-0.8866,-0.8815,-0.8815,-0.8679,-0.8587,-0.8587,-0.8316,-0.8147,-0.8147,-0.8147,-0.8113,-0.8041,-0.8038,-0.8038,-0.8038,-0.8038,-0.8038,-0.8038,-0.8038,-0.8038,-0.8038,-0.8038,-0.8038,-0.0,-0.2228,-0.4684,-0.5279,-0.5373,-0.5431,-0.5424,-0.3044,-0.0697,-0.012,-0.0,0.0495,0.2141,0.2392,0.0,0.0,0.0,0.0,0.0,0.0,0.0,0.0,0.0,0.0,0.0,0.0,0.0,0.0,0.0,0.0,0.0,0.0,0.0,0.3708,0.6198,0.7558,0.7541,0.2578,-0.0,-0.0,-0.0,-0.0,-0.0,-0.0,-0.0,0.0,0.0,0.0,-0.7539,-0.7994,-0.8549,-0.8752,-0.7043,-0.7485,-0.895,-0.8944,-0.894,-0.894,-0.894,-0.894,-0.894,-0.894,-0.894,-0.894,-0.894,-0.894,-0.894,-0.894,-0.894,-0.894,-0.894,-0.9062,-0.9181,-0.9157,-0.9289,-0.9415,-0.9415,-0.9398,-0.9381,-0.9381,-0.9259,-0.9147,-0.9123,-0.9018,-0.8947,-0.8967,-0.8954,-0.8947,-0.8967,-0.8954,-0.894,-0.894,-0.8821,-0.8747,-0.8747,-0.8516,-0.8364,-0.834,-0.8275,-0.8177,-0.8045,-0.8038,-0.8038,-0.8038,-0.8038,-0.8038,-0.8038,-0.8038,-0.8038,-0.8038,-0.8038,-0.8038,-0.0,-0.041,-0.1588,-0.4616,-0.5386,-0.5394,-0.5396,-0.4987,-0.3719,-0.0617,-0.0,0.0695,0.0,0.3376,0.4129,0.0,0.0,0.0,0.0,0.0,0.0,0.0,0.0,0.0,0.0,0.0,0.0,0.0,0.0,0.0,0.0,0.0,0.0,0.0673,0.1121,0.1346,0.1345,0.0448,-0.0,-0.0,-0.0,-0.0,-0.0,-0.0,-0.0,0.0,0.0,-0.0559,-0.1564,-0.4137,-0.6619,-0.89,-0.853,-0.8641,-0.888,-0.8954,-0.894,-0.894,-0.894,-0.894,-0.894,-0.894,-0.894,-0.894,-0.894,-0.894,-0.894,-0.894,-0.894,-0.894,-0.894,-0.914,-0.9313,-0.9184,-0.9367,-0.9574,-0.9574,-0.9473,-0.9381,-0.9381,-0.9259,-0.9113,-0.8991,-0.8954,-0.8981,-0.91,-0.9018,-0.8984,-0.9103,-0.9015,-0.894,-0.894,-0.8916,-0.8903,-0.8903,-0.8862,-0.8781,-0.8652,-0.8286,-0.8065,-0.8041,-0.8038,-0.8038,-0.8038,-0.8038,-0.8038,-0.8038,-0.8038,-0.8038,-0.8038,-0.8038,-0.8038,-0.0527,-0.0,-0.041,-0.2063,-0.3197,-0.4171,-0.516,-0.5376,-0.4384,-0.0719,-0.0,0.0343,0.0,0.0,0.4933,0.3377,0.0,0.0,0.0,0.0,0.0,0.0,0.0,0.0,0.0,0.0,0.0,0.0,0.0,0.0,0.0,0.0,0.0,0.0,-0.0,-0.0,-0.0,-0.0,-0.0,-0.0,-0.0,-0.0,-0.0,-0.0,-0.0,-0.0,0.0,-0.0,-0.0112,-0.1454,-0.3808,-0.6512,-0.6497,-0.7507,-0.8873,-0.895,-0.894,-0.894,-0.894,-0.894,-0.894,-0.894,-0.894,-0.894,-0.894,-0.894,-0.894,-0.894,-0.8994,-0.9035,-0.8957,-0.9157,-0.9364,-0.9293,-0.9445,-0.9632,-0.9707,-0.9669,-0.9595,-0.952,-0.9381,-0.9228,-0.9079,-0.8991,-0.896,-0.9028,-0.9049,-0.9049,-0.9039,-0.9049,-0.9025,-0.8947,-0.894,-0.894,-0.894,-0.8862,-0.8784,-0.8716,-0.8367,-0.8163,-0.8163,-0.8082,-0.8038,-0.8038,-0.8038,-0.8038,-0.8038,-0.8038,-0.8038,-0.8038,-0.8038,-0.8038,-0.2004,-0.0661,-0.0,-0.0,-0.1057,-0.2417,-0.3795,-0.4104,-0.3368,-0.0573,-0.0,0.0,0.0,0.2961,0.0,0.0,0.0,0.0,0.0,0.0,0.0,0.0,0.0,0.0,0.0,0.0,0.0,0.0,0.0,0.0,0.0,0.0,0.0,0.0,-0.0,-0.0,-0.0,-0.0,-0.0,-0.0,-0.0,-0.0,-0.0,-0.0,-0.0,-0.0,-0.0,-0.0,-0.0,-0.0,-0.1793,-0.4484,-0.4474,-0.6262,-0.8853,-0.8947,-0.894,-0.894,-0.894,-0.894,-0.894,-0.894,-0.894,-0.894,-0.894,-0.896,-0.8981,-0.8947,-0.9069,-0.9164,-0.8984,-0.913,-0.9327,-0.9327,-0.9473,-0.9639,-0.9747,-0.9798,-0.9778,-0.9639,-0.9513,-0.9388,-0.9232,-0.9113,-0.9052,-0.9089,-0.9157,-0.9181,-0.9106,-0.9161,-0.915,-0.9005,-0.8988,-0.8974,-0.8944,-0.8832,-0.8764,-0.8764,-0.8486,-0.8319,-0.8319,-0.8174,-0.8092,-0.8092,-0.8058,-0.8038,-0.8038,-0.8038,-0.8038,-0.8038,-0.8038,-0.8038,-0.5084,-0.2554,-0.0,-0.0,-0.0068,-0.0209,-0.0381,-0.0383,-0.0308,-0.0082,-0.0,-0.0,0.0,0.026,0.0,0.0,0.0,0.0,0.0,0.0,0.0,0.0,0.0,0.0,0.0,0.0,0.0,0.0,0.0,0.0,0.0,0.0,0.0,0.0,0.0,-0.0,-0.0,-0.0,-0.0,-0.0,-0.0,-0.0,-0.0,-0.0,-0.0,-0.0,-0.0,-0.0,-0.0,-0.0,-0.1795,-0.4494,-0.4477,-0.6255,-0.894,-0.894,-0.894,-0.894,-0.894,-0.894,-0.894,-0.894,-0.894,-0.894,-0.894,-0.9032,-0.911,-0.8977,-0.9144,-0.93,-0.9011,-0.9052,-0.9167,-0.9167,-0.9395,-0.9612,-0.9622,-0.9727,-0.9778,-0.9639,-0.9602,-0.9544,-0.9391,-0.9357,-0.9398,-0.954,-0.9449,-0.9412,-0.9544,-0.9445,-0.9306,-0.9154,-0.9137,-0.9083,-0.895,-0.8927,-0.8923,-0.8923,-0.8635,-0.8465,-0.8465,-0.833,-0.8255,-0.8255,-0.8113,-0.8038,-0.8038,-0.8038,-0.8038,-0.8038,-0.8038,-0.8038,-0.4816,-0.4392,-0.2795,-0.0554,-0.0,-0.0,-0.0,-0.0,-0.0,-0.0,-0.0,-0.0,0.0,0.0,0.0,0.0,0.0,0.0,0.0,0.0,0.0,0.0,0.0,0.0,0.0,0.0,0.0,0.0,0.0,0.0,0.0,0.0,0.0,0.0,0.0,-0.0,-0.0,-0.0,-0.0,-0.0,-0.0,-0.0,-0.0,-0.0,-0.0,-0.0,-0.0,-0.0,-0.0,-0.0,-0.0673,-0.2019,-0.583,-0.7961,-0.8846,-0.8944,-0.894,-0.894,-0.894,-0.894,-0.894,-0.894,-0.894,-0.894,-0.894,-0.8977,-0.9008,-0.8954,-0.9022,-0.91,-0.9079,-0.9181,-0.932,-0.9415,-0.9523,-0.9635,-0.9724,-0.9785,-0.9778,-0.9639,-0.9608,-0.9561,-0.9408,-0.9381,-0.9401,-0.9459,-0.95,-0.951,-0.9473,-0.95,-0.9429,-0.9178,-0.9072,-0.9032,-0.9069,-0.8991,-0.8977,-0.9066,-0.8791,-0.8625,-0.8625,-0.8397,-0.8272,-0.8272,-0.8116,-0.8038,-0.8038,-0.8038,-0.8038,-0.8038,-0.8038,-0.8038,-0.3001,-0.4512,-0.4537,-0.0899,-0.0,-0.0,-0.0,-0.0,-0.0,-0.0,-0.0,-0.0,-0.0,0.0,0.0,0.0,0.0,0.0,0.0,0.0,0.0,0.0,0.0,0.0,0.0,0.0,0.0,0.0,0.0,0.0,0.0,0.0,0.0,0.0,0.0,0.0,-0.0,-0.0,-0.0,-0.0,-0.0,-0.0,-0.0,-0.0,-0.0,-0.0,-0.0,-0.0,-0.0,-0.0,-0.0,-0.0448,-0.4479,-0.7287,-0.887,-0.8856,-0.885,-0.885,-0.8954,-0.8954,-0.885,-0.8954,-0.8954,-0.885,-0.8954,-0.887,-0.8893,-0.8954,-0.8971,-0.9028,-0.9127,-0.9228,-0.9337,-0.9442,-0.954,-0.9635,-0.9734,-0.9788,-0.9791,-0.9696,-0.9676,-0.9642,-0.9537,-0.952,-0.952,-0.952,-0.9608,-0.9639,-0.9534,-0.9612,-0.9561,-0.9256,-0.9137,-0.9079,-0.9086,-0.9035,-0.9028,-0.9083,-0.8893,-0.8781,-0.8781,-0.854,-0.8387,-0.8336,-0.8187,-0.8089,-0.8038,-0.8038,-0.8038,-0.8041,-0.8089,-0.8113,-0.0,-0.2593,-0.4511,-0.0871,-0.0,-0.0,-0.0,-0.0,-0.0,-0.0,-0.0,-0.0,-0.0,-0.0,0.0,0.0,0.0,0.0,0.0,0.0,0.0,0.0,0.0,0.0,0.0,0.0,0.0,0.0,0.0,0.0,0.0,0.0,0.0,0.0,0.0,0.0,-0.0,-0.0,-0.0,-0.0,-0.0,-0.0,-0.0,-0.0,-0.0,-0.0,-0.0,-0.0,-0.0,-0.0,-0.0,-0.0,-0.0,-0.3576,-0.8782,-0.8893,-0.8893,-0.889,-0.887,-0.8876,-0.8893,-0.887,-0.8876,-0.889,-0.8866,-0.8845,-0.8917,-0.8873,-0.9042,-0.915,-0.915,-0.915,-0.9154,-0.9157,-0.9388,-0.9608,-0.9612,-0.9724,-0.9822,-0.9822,-0.9822,-0.9822,-0.9822,-0.9822,-0.9822,-0.9822,-0.9822,-0.9822,-0.9822,-0.9819,-0.9707,-0.9412,-0.9381,-0.9262,-0.8967,-0.9069,-0.9093,-0.895,-0.894,-0.894,-0.894,-0.8791,-0.8638,-0.8486,-0.8343,-0.8197,-0.8041,-0.8041,-0.8041,-0.8045,-0.8201,-0.8272,-0.0,-0.0805,0.0,-0.0283,0.0,0.0,-0.0,-0.0,-0.0,-0.0,-0.0,-0.0,-0.0,0.0,0.0,0.0,0.0,0.0,0.0,0.0,0.0,0.0,0.0,0.0,0.0,0.0,0.0,0.0,0.0,0.0,0.0,0.0,0.0,0.0,0.0,0.0,-0.0,-0.0,-0.0,-0.0,-0.0,-0.0,-0.0,-0.0,-0.0,-0.0,-0.0,-0.0,-0.0,-0.0,-0.0,-0.0,-0.0,-0.1106,-0.2905,-0.5035,-0.5822,-0.5822,-0.5817,-0.7176,-0.8549,-0.6495,-0.5819,-0.5822,-0.5817,-0.7301,-0.8913,-0.8866,-0.8981,-0.9001,-0.9001,-0.9079,-0.9208,-0.9422,-0.9544,-0.9639,-0.9737,-0.9791,-0.9822,-0.9822,-0.9822,-0.9822,-0.9822,-0.9822,-0.9822,-0.9822,-0.9822,-0.9822,-0.9822,-0.9734,-0.9598,-0.9401,-0.9286,-0.9228,-0.9249,-0.91,-0.9072,-0.9239,-0.9052,-0.894,-0.894,-0.8791,-0.8689,-0.8645,-0.8496,-0.8397,-0.835,-0.835,-0.835,-0.835,-0.8397,-0.8418,-0.0,-0.0,0.0,-0.0,-0.0,-0.0,-0.0,0.0,0.0,0.0,-0.0,-0.0,-0.0,0.0,0.0,0.0,0.0,0.0,0.0,0.0,0.0,0.0,0.0,0.0,0.0,0.0,0.0,0.0,0.0,0.0,0.0,0.0,0.0,0.0,0.0,0.0,-0.0,-0.0,-0.0,-0.0,-0.0,-0.0,-0.0,-0.0,-0.0,-0.0,-0.0,-0.0,-0.0,-0.0,-0.0,-0.0,-0.0,-0.0,-0.0221,-0.2089,-0.2754,-0.2659,-0.2767,-0.3895,-0.5495,-0.6056,-0.459,-0.2908,-0.4136,-0.5704,-0.7388,-0.8621,-0.895,-0.894,-0.894,-0.9001,-0.9113,-0.93,-0.9432,-0.9544,-0.9629,-0.9693,-0.9754,-0.9812,-0.9822,-0.9822,-0.9822,-0.9822,-0.9822,-0.9822,-0.9822,-0.9822,-0.9822,-0.9747,-0.9635,-0.949,-0.9439,-0.9408,-0.9384,-0.9273,-0.9232,-0.9286,-0.9123,-0.8998,-0.894,-0.8852,-0.8771,-0.8713,-0.8618,-0.8543,-0.8482,-0.8482,-0.8482,-0.8482,-0.8547,-0.8574,-0.0,-0.0,-0.0,-0.0,-0.0,0.0,-0.0,-0.0,-0.0,-0.0,0.0,-0.0,0.0,0.0,0.0,0.0,0.0,0.0,0.0,0.0,0.0,0.0,0.0,0.0,0.0,0.0,0.0,0.0,0.0,0.0,0.0,0.0,0.0,0.0,0.0,0.0,-0.0311,-0.0102,-0.0,0.0,-0.0,-0.0,-0.0,-0.0,-0.0,-0.0,-0.0,-0.0,-0.0,-0.0528,-0.0752,-0.0654,-0.0428,-0.0323,-0.0327,-0.0322,-0.0323,-0.0328,-0.0327,-0.033,-0.1342,-0.6728,-0.4819,-0.0896,-0.3689,-0.4695,-0.5477,-0.8159,-0.894,-0.894,-0.894,-0.894,-0.894,-0.894,-0.9154,-0.9367,-0.9395,-0.951,-0.9652,-0.9791,-0.9822,-0.9822,-0.9822,-0.9822,-0.9822,-0.9822,-0.9822,-0.9822,-0.9822,-0.9822,-0.9768,-0.9625,-0.9724,-0.9693,-0.9425,-0.9503,-0.9456,-0.9191,-0.915,-0.9076,-0.8944,-0.894,-0.8872,-0.8733,-0.873,-0.8662,-0.8523,-0.8523,-0.8523,-0.8526,-0.8665,-0.873,-0.0,-0.0,0.0,0.0,-0.0,-0.0,-0.0,-0.0,-0.0,-0.0,-0.0,0.0,0.0,0.0,0.0,0.0,0.0,0.0,0.0,0.0,0.0,0.0,0.0,0.0,0.0,0.0,0.0,0.0,0.0,0.0,0.0,0.0,0.0,0.0,0.0,-0.1012,-0.3133,-0.101,-0.0,0.0,-0.0,-0.0,-0.0,-0.0,-0.0,-0.0,-0.0,-0.0,-0.0311,-0.4521,-0.6269,-0.6114,-0.3984,-0.3153,-0.3095,-0.319,-0.3192,-0.3096,-0.3093,-0.3346,-0.3726,-0.5047,-0.4536,-0.3689,-0.4247,-0.6151,-0.8066,-0.8742,-0.8954,-0.894,-0.894,-0.894,-0.894,-0.894,-0.9072,-0.9266,-0.9507,-0.9588,-0.9652,-0.9791,-0.9822,-0.9822,-0.9822,-0.9822,-0.9822,-0.9822,-0.9822,-0.9822,-0.9822,-0.9822,-0.9768,-0.9625,-0.9635,-0.9629,-0.9564,-0.9371,-0.9273,-0.9327,-0.9113,-0.8971,-0.894,-0.894,-0.8923,-0.8889,-0.8889,-0.8872,-0.8842,-0.8842,-0.8842,-0.8842,-0.8872,-0.8889,-0.0,0.0,0.0,-0.0,0.0,-0.0,-0.0,-0.0,-0.0,-0.0,0.0,0.0,0.0,0.0,0.0,0.0,0.0,0.0,0.0,0.0,0.0,0.0,0.0,0.0,0.0,0.0,0.0,0.0,0.0,0.0,0.0,0.0,0.0,0.0,-0.5242,-0.4529,-0.5854,-0.4543,-0.2522,-0.0,-0.0,-0.0,-0.0,-0.0,-0.0,-0.0,-0.0,-0.0,-0.041,-0.5792,-0.7952,-0.7814,-0.6497,-0.5889,-0.5874,-0.5926,-0.594,-0.5879,-0.5879,-0.6056,-0.6266,-0.6536,-0.6598,-0.6654,-0.6589,-0.773,-0.8843,-0.8872,-0.8889,-0.892,-0.8849,-0.8882,-0.894,-0.894,-0.8994,-0.9113,-0.9344,-0.9449,-0.9544,-0.969,-0.9774,-0.9822,-0.9822,-0.9822,-0.9822,-0.9822,-0.9822,-0.9822,-0.9822,-0.9822,-0.9791,-0.972,-0.971,-0.971,-0.971,-0.9564,-0.9445,-0.9384,-0.9235,-0.9086,-0.8944,-0.894,-0.894,-0.894,-0.894,-0.894,-0.894,-0.894,-0.894,-0.894,-0.894,-0.894,-0.0,0.0,-0.0,-0.0,-0.0,0.0,-0.0,-0.0,-0.0,0.0,0.0,0.0,0.0,0.0,0.0,0.0,0.0,0.0,0.0,0.0,0.0,0.0,0.0,0.0,0.0,0.0,0.0,0.0,0.0,0.0,0.0,0.0,-0.8009,-0.7989,-0.7989,-0.7999,-0.8016,-0.8026,-0.5773,-0.1414,-0.0404,-0.0,-0.0,-0.0,-0.0,-0.0,-0.0,-0.0,-0.0404,-0.5256,-0.7572,-0.7981,-0.8039,-0.7955,-0.8047,-0.8026,-0.7958,-0.7958,-0.7958,-0.8053,-0.8091,-0.8648,-0.8821,-0.8865,-0.8889,-0.8816,-0.8786,-0.875,-0.8801,-0.8869,-0.8743,-0.8804,-0.8906,-0.893,-0.894,-0.8977,-0.9123,-0.9252,-0.9395,-0.9574,-0.9724,-0.9822,-0.9822,-0.9822,-0.9822,-0.9822,-0.9822,-0.9822,-0.9822,-1.0061,-1.0058,-0.9819,-1.0061,-1.0058,-0.9819,-0.9798,-0.9669,-0.9398,-0.9357,-0.9222,-0.895,-0.894,-0.894,-0.894,-0.8964,-0.8977,-0.8977,-0.9001,-0.9001,-0.8977,-0.9001,-0.8988,-0.0,0.0,-0.0,0.0,-0.0,-0.0,0.0,0.0,-0.0,0.0,0.0,0.0,0.0,0.0,0.0,0.0,0.0,0.0,0.0,0.0,0.0,0.0,0.0,0.0,0.0,0.0,0.0,0.0,0.0,0.0,0.0,-0.8006,-0.7989,-0.7975,-0.7985,-0.7985,-0.7979,-0.8029,-0.7633,-0.6894,-0.2221,-0.0,-0.0,-0.0,-0.0,-0.0,-0.0,-0.0,-0.0202,-0.332,-0.5954,-0.8019,-0.7965,-0.7959,-0.7972,-0.7952,-0.7959,-0.7975,-0.7975,-0.8076,-0.8309,-0.8333,-0.8421,-0.855,-0.8699,-0.8747,-0.874,-0.8716,-0.8723,-0.8737,-0.8716,-0.8726,-0.8774,-0.8906,-0.894,-0.8977,-0.9123,-0.9167,-0.9266,-0.9554,-0.9724,-0.9822,-0.9822,-0.9822,-0.9822,-0.9822,-0.9822,-0.9822,-0.9822,-1.102,-1.1378,-0.994,-1.102,-1.1378,-0.994,-0.9707,-0.9564,-0.9391,-0.9256,-0.911,-0.8947,-0.894,-0.894,-0.894,-0.9059,-0.9123,-0.9123,-0.9259,-0.9256,-0.9127,-0.9259,-0.9184,-0.0,-0.0,-0.0,0.0,-0.0,-0.0,-0.0,0.0,0.0,0.0,0.0,0.0,0.0,0.0,0.0,0.0,0.0,0.0,0.0,0.0,0.0,0.0,0.0,0.0,0.0,0.0,0.0,0.0,0.0,0.0,-0.5749,-0.7093,-0.7845,-0.7926,-0.7862,-0.7133,-0.5754,-0.7277,-0.6494,-0.3523,-0.1088,-0.0,-0.0,-0.0,-0.0,-0.0,-0.0,-0.1716,-0.4446,-0.4124,-0.5532,-0.7979,-0.8048,-0.8038,-0.8038,-0.8038,-0.8038,-0.8038,-0.8038,-0.8082,-0.8153,-0.8241,-0.8313,-0.8391,-0.8537,-0.8581,-0.8567,-0.8486,-0.852,-0.8581,-0.8581,-0.8645,-0.875,-0.8903,-0.894,-0.8957,-0.9018,-0.9096,-0.9245,-0.9551,-0.9724,-0.9822,-0.9822,-0.9822,-0.9822,-0.9822,-0.9822,-0.9822,-0.9822,-1.0422,-1.0539,-0.9819,-1.0418,-1.0539,-0.9819,-0.9764,-0.9666,-0.9517,-0.9445,-0.9303,-0.9069,-0.914,-0.911,-0.8944,-0.9001,-0.9072,-0.9154,-0.9218,-0.9218,-0.9154,-0.9222,-0.914,0.0,0.0,-0.0,-0.0,-0.0,-0.0,0.0,0.0,0.0,0.0,0.0,0.0,0.0,0.0,0.0,0.0,0.0,0.0,0.0,0.0,0.0,0.0,0.0,0.0,0.0,0.0,0.0,0.0,0.0,0.0,-0.5059,-0.666,-0.7681,-0.7763,-0.7675,-0.6859,-0.5047,-0.5638,-0.3915,-0.0,-0.0,-0.0,-0.0,-0.0,-0.0707,-0.2019,-0.2019,-0.4345,-0.7818,-0.5844,-0.6239,-0.7972,-0.8048,-0.8038,-0.8038,-0.8038,-0.8038,-0.8038,-0.8038,-0.8038,-0.8058,-0.8174,-0.8211,-0.8238,-0.8384,-0.8428,-0.8408,-0.8299,-0.8347,-0.8428,-0.8428,-0.854,-0.8693,-0.8845,-0.891,-0.894,-0.894,-0.9052,-0.9232,-0.95,-0.9669,-0.9778,-0.9815,-0.9822,-0.9822,-0.9822,-0.9822,-0.9822,-0.9822,-1.0179,-1.0301,-0.9822,-1.0179,-1.0179,-0.9819,-1.0179,-1.0339,-1.0144,-1.0521,-1.0623,-1.0393,-1.0543,-1.0383,-1.0094,-0.9802,-0.955,-0.9211,-0.9286,-0.9303,-0.9269,-0.9306,-0.9225,-0.0,-0.0,0.0,-0.0,-0.0,0.0,0.0,0.0,0.0,0.0,0.0,0.0,0.0,0.0,0.0,0.0,0.0,0.0,0.0,0.0,0.0,0.0,0.0,0.0,0.0,0.0,0.0,0.0,0.0,0.0,-0.739,-0.7449,-0.753,-0.7725,-0.7641,-0.7662,-0.7784,-0.2861,-0.0286,-0.0,-0.0,-0.0,-0.0,-0.0,-0.2726,-0.7613,-0.7613,-0.7717,-0.8019,-0.7885,-0.7869,-0.7972,-0.8048,-0.8038,-0.8038,-0.8038,-0.8038,-0.8038,-0.8038,-0.8038,-0.8041,-0.8048,-0.8052,-0.8079,-0.8235,-0.8282,-0.8279,-0.8272,-0.8275,-0.8282,-0.8282,-0.8387,-0.8533,-0.8686,-0.8832,-0.894,-0.894,-0.9052,-0.9201,-0.9361,-0.9517,-0.9663,-0.9798,-0.9822,-0.9822,-0.9822,-0.9822,-0.9822,-0.9822,-1.114,-1.1499,-0.994,-1.1137,-1.1499,-0.994,-1.1257,-1.1823,-1.1463,-1.311,-1.3949,-1.3497,-1.3693,-1.3698,-1.3472,-1.2221,-1.0847,-0.9371,-0.9649,-0.9717,-0.9588,-0.9724,-0.9632,-0.0,-0.0,0.0,-0.0,-0.0,-0.0,0.0,0.0,0.0,0.0,0.0,0.0,0.0,0.0,0.0,0.0,0.0,0.0,0.0,0.0,0.0,0.0,0.0,0.0,0.0,0.0,0.0,0.0,0.0,0.0,-0.7344,-0.7439,-0.7386,-0.7482,-0.7322,-0.589,-0.285,-0.3952,-0.4595,-0.4505,-0.2991,-0.1518,-0.0096,-0.1764,-0.4589,-0.8022,-0.8002,-0.7992,-0.7992,-0.7979,-0.7965,-0.7952,-0.8041,-0.8038,-0.8038,-0.8038,-0.8038,-0.8038,-0.8038,-0.8038,-0.8038,-0.8038,-0.8038,-0.8052,-0.8106,-0.8123,-0.8123,-0.8123,-0.8123,-0.8143,-0.8245,-0.8377,-0.8547,-0.8798,-0.8899,-0.894,-0.894,-0.9052,-0.9198,-0.9351,-0.9503,-0.9656,-0.9795,-0.9822,-0.9822,-0.9822,-0.9822,-0.9822,-0.9822,-1.0301,-1.0418,-0.9819,-1.1257,-1.1976,-1.1378,-1.2813,-1.3641,-1.323,-1.4005,-1.4281,-1.3826,-1.4018,-1.4142,-1.3918,-1.2547,-1.1438,-1.0747,-1.0051,-0.9659,-0.9612,-0.9663,-0.9578,-0.0,-0.0,-0.0,0.0,0.0,-0.0,0.0,0.0,0.0,0.0,0.0,0.0,0.0,0.0,0.0,0.0,0.0,0.0,0.0,0.0,0.0,0.0,0.0,0.0,0.0,0.0,0.0,0.0,0.0,0.0,-0.7181,-0.7238,-0.7188,-0.7252,-0.5618,-0.3957,-0.2425,-0.5494,-0.7131,-0.7125,-0.5494,-0.3901,-0.2448,-0.3456,-0.5278,-0.7753,-0.7831,-0.7878,-0.7972,-0.7965,-0.7952,-0.8038,-0.8038,-0.8038,-0.8038,-0.8038,-0.8038,-0.8038,-0.8038,-0.8038,-0.8038,-0.8038,-0.8038,-0.8038,-0.8038,-0.8038,-0.8038,-0.8038,-0.8038,-0.8062,-0.8167,-0.8336,-0.856,-0.8866,-0.894,-0.894,-0.894,-0.9015,-0.914,-0.9344,-0.9462,-0.9595,-0.9788,-0.9822,-0.9822,-0.9822,-0.9822,-0.9822,-0.9822,-0.9822,-0.9822,-0.9822,-1.1257,-1.2213,-1.2213,-1.4123,-1.5322,-1.4966,-1.577,-1.5959,-1.5551,-1.5758,-1.589,-1.5756,-1.3795,-1.2637,-1.2316,-1.0539,-0.968,-0.968,-0.968,-0.9574,0.0,0.0,0.0,0.0,0.0,0.0,0.0,0.0,0.0,0.0,0.0,0.0,0.0,0.0,0.0,0.0,0.0,0.0,0.0,0.0,0.0,0.0,0.0,0.0,0.0,0.0,0.0,0.0,0.0,-0.685,-0.7068,-0.6937,-0.6853,-0.685,-0.2425,-0.2246,-0.7039,-0.7131,-0.7125,-0.7104,-0.7063,-0.7132,-0.705,-0.4706,-0.5029,-0.7422,-0.7422,-0.7588,-0.7959,-0.8035,-0.8028,-0.8028,-0.8031,-0.8031,-0.8031,-0.8038,-0.8038,-0.8038,-0.8038,-0.8038,-0.8038,-0.8038,-0.8038,-0.8038,-0.8038,-0.8038,-0.8038,-0.8038,-0.8038,-0.8041,-0.8045,-0.8262,-0.8557,-0.8859,-0.8933,-0.894,-0.894,-0.894,-0.9028,-0.9323,-0.9384,-0.9479,-0.9771,-0.9822,-0.9822,-0.9822,-0.9822,-0.9822,-0.9822,-0.9822,-0.9822,-0.9822,-1.1257,-1.2213,-1.2213,-1.5063,-1.6856,-1.6477,-1.825,-1.9232,-1.8931,-1.9199,-1.9219,-1.8824,-1.6021,-1.4365,-1.4023,-1.1172,-0.9822,-0.9822,-0.9822,-0.9669,-0.0,0.0,0.0,0.0,0.0,0.0,0.0,0.0,0.0,0.0,0.0,0.0,0.0,0.0,0.0,0.0,0.0,0.0,0.0,0.0,0.0,0.0,0.0,0.0,0.0,0.0,0.0,0.0,-0.6726,-0.6739,-0.6844,-0.6936,-0.5505,-0.2106,-0.0713,-0.2319,-0.7065,-0.7068,-0.7104,-0.7091,-0.7115,-0.7101,-0.7126,-0.6587,-0.6746,-0.7422,-0.751,-0.7651,-0.7729,-0.7726,-0.7723,-0.7733,-0.7834,-0.7875,-0.7889,-0.7997,-0.8038,-0.8038,-0.8038,-0.8038,-0.8038,-0.8038,-0.8038,-0.8038,-0.8038,-0.8038,-0.8038,-0.8038,-0.8038,-0.8065,-0.8177,-0.8343,-0.853,-0.8726,-0.8859,-0.894,-0.894,-0.894,-0.9028,-0.9323,-0.9469,-0.9605,-0.9788,-0.9822,-0.9822,-0.9822,-0.9822,-0.9822,-0.9822,-0.9822,-0.9822,-0.9822,-1.1257,-1.2213,-1.2213,-1.4118,-1.5563,-1.6477,-1.7181,-1.8037,-1.8824,-1.8998,-1.8518,-1.7573,-1.5454,-1.381,-1.2724,-1.0755,-0.9822,-0.9822,-0.9822,-0.9778,-0.0,-0.0,-0.0,-0.0,0.0,0.0,-0.0,-0.0,0.0,0.0,0.0,0.0,0.0,0.0,0.0,0.0,0.0,0.0,0.0,0.0,0.0,0.0,0.0,0.0,0.0,0.0,0.0,0.0,-0.6512,-0.6586,-0.6565,-0.6901,-0.4923,-0.0174,-0.0,-0.1857,-0.5643,-0.6612,-0.7091,-0.7071,-0.7058,-0.7104,-0.7108,-0.7188,-0.7235,-0.7322,-0.7319,-0.7407,-0.7407,-0.7407,-0.7482,-0.7614,-0.7756,-0.7811,-0.7831,-0.7984,-0.8038,-0.8038,-0.8038,-0.8038,-0.8038,-0.8038,-0.8038,-0.8038,-0.8038,-0.8038,-0.8038,-0.8038,-0.8038,-0.8089,-0.8303,-0.8421,-0.8537,-0.8754,-0.8872,-0.894,-0.894,-0.8984,-0.91,-0.9334,-0.9452,-0.9581,-0.9785,-0.9822,-0.9822,-0.9822,-0.9822,-0.9822,-0.9822,-0.9822,-0.9822,-0.9822,-1.1257,-1.2213,-1.2213,-1.3646,-1.5253,-1.6634,-1.6879,-1.7615,-1.8997,-1.9112,-1.8474,-1.7079,-1.5285,-1.3282,-1.1257,-1.0301,-0.9822,-0.9822,-0.9822,-0.9788,-0.0,-0.0,-0.0,-0.0,-0.0,0.0,-0.0,-0.0,0.0,0.0,0.0,0.0,0.0,0.0,0.0,0.0,0.0,0.0,0.0,0.0,0.0,0.0,0.0,0.0,0.0,0.0,-0.6051,-0.6241,-0.6047,-0.5805,-0.5635,-0.6086,-0.4409,-0.0173,-0.0521,-0.1662,-0.3546,-0.5902,-0.7084,-0.7139,-0.7139,-0.7132,-0.7115,-0.7132,-0.7132,-0.7115,-0.7132,-0.7139,-0.7139,-0.7139,-0.7302,-0.7563,-0.7706,-0.7773,-0.7804,-0.796,-0.8024,-0.8038,-0.8038,-0.8038,-0.8038,-0.8038,-0.8038,-0.8038,-0.8038,-0.8038,-0.8038,-0.8038,-0.8038,-0.8099,-0.8364,-0.8459,-0.855,-0.8821,-0.8913,-0.894,-0.894,-0.9039,-0.9174,-0.9327,-0.9367,-0.9462,-0.9727,-0.9785,-0.9798,-0.9798,-0.9812,-0.9822,-0.9822,-0.9822,-0.9822,-0.9822,-1.114,-1.1976,-1.1976,-1.3412,-1.5074,-1.6615,-1.685,-1.7683,-1.9366,-1.9366,-1.8525,-1.6733,-1.4955,-1.2693,-0.9822,-0.9822,-0.9822,-0.9822,-0.9822,-0.9754,-0.0,-0.0,-0.0,-0.0,0.0,0.0,-0.0,-0.0,-0.0,0.0,0.0,0.0,0.0,0.0,0.0,0.0,0.0,0.0,0.0,0.0,0.0,0.0,0.0,0.0,0.0,0.0,-0.4472,-0.6165,-0.4709,-0.3003,-0.1297,-0.1306,-0.0985,-0.0,-0.3676,-0.5016,-0.365,-0.59,-0.7078,-0.7139,-0.7139,-0.7082,-0.6973,-0.7088,-0.7078,-0.6976,-0.7092,-0.7139,-0.7139,-0.7139,-0.7177,-0.7244,-0.7397,-0.7533,-0.7658,-0.7801,-0.7933,-0.8038,-0.8038,-0.8038,-0.8038,-0.8038,-0.8038,-0.8038,-0.8038,-0.8038,-0.8038,-0.8038,-0.8038,-0.8055,-0.8109,-0.8303,-0.8499,-0.8557,-0.876,-0.894,-0.894,-0.896,-0.9025,-0.9167,-0.9296,-0.9398,-0.9456,-0.9568,-0.9649,-0.9649,-0.9747,-0.9822,-0.9822,-0.9822,-0.9822,-0.9822,-1.0061,-1.0301,-1.0301,-1.1736,-1.3407,-1.4955,-1.6256,-1.7683,-1.9366,-1.9366,-1.8052,-1.5079,-1.2213,-1.0418,-0.9822,-0.9822,-0.9822,-0.9822,-0.9822,-0.9805,0.0,0.0,0.0,-0.0,0.0,0.0,0.0,-0.0,-0.0,0.0,0.0,0.0,0.0,0.0,0.0,0.0,0.0,0.0,0.0,0.0,0.0,0.0,0.0,0.0,0.0,0.0,-0.5021,-0.6193,-0.5323,-0.3299,-0.0159,-0.0,-0.0975,-0.3096,-0.5485,-0.6181,-0.5129,-0.6371,-0.7004,-0.7068,-0.7075,-0.6997,-0.6929,-0.7004,-0.6997,-0.6936,-0.7078,-0.7139,-0.7139,-0.7139,-0.7139,-0.7156,-0.7312,-0.7465,-0.7617,-0.7756,-0.7909,-0.8038,-0.8038,-0.8038,-0.8038,-0.8038,-0.8038,-0.8038,-0.8038,-0.8038,-0.8038,-0.8038,-0.8038,-0.8058,-0.8136,-0.8316,-0.8503,-0.8577,-0.8771,-0.894,-0.894,-0.894,-0.896,-0.9032,-0.9106,-0.9208,-0.9357,-0.9507,-0.9608,-0.9608,-0.973,-0.9822,-0.9822,-0.9822,-0.9822,-0.9822,-0.9822,-1.0058,-1.0899,-1.1736,-1.3287,-1.5666,-1.6492,-1.7683,-1.9366,-1.8642,-1.6733,-1.3526,-1.102,-0.9822,-0.9822,-0.9822,-0.9822,-0.9822,-0.9822,-0.9822,0.0,0.0,0.0,0.0,0.0,-0.0,0.0,0.0,0.0,0.0,0.0,0.0,0.0,0.0,0.0,0.0,0.0,0.0,0.0,0.0,0.0,0.0,0.0,0.0,0.0,0.0,-0.6098,-0.622,-0.6261,-0.4776,-0.1409,-0.0481,-0.1543,-0.4984,-0.5847,-0.6392,-0.6589,-0.6474,-0.6608,-0.6997,-0.6949,-0.6868,-0.6844,-0.6871,-0.6885,-0.6895,-0.7037,-0.7115,-0.7139,-0.7139,-0.7143,-0.716,-0.7278,-0.7438,-0.7614,-0.7729,-0.7885,-0.8038,-0.8038,-0.8038,-0.8038,-0.8038,-0.8038,-0.8038,-0.8038,-0.8038,-0.8038,-0.8038,-0.8038,-0.8069,-0.8194,-0.8353,-0.8513,-0.8635,-0.8804,-0.894,-0.894,-0.894,-0.894,-0.894,-0.894,-0.9025,-0.9289,-0.9462,-0.9564,-0.9564,-0.971,-0.9812,-0.9785,-0.9802,-0.9822,-0.9822,-0.9822,-1.0422,-1.2093,-1.2453,-1.388,-1.6844,-1.7325,-1.7923,-1.8887,-1.7091,-1.4826,-1.2213,-1.0899,-1.0058,-0.9822,-1.0058,-1.0058,-0.9822,-0.9822,-0.9822,0.0,0.0,0.0,0.0,-0.0,0.0,0.0,0.0,-0.0,-0.0,0.0,0.0,0.0,0.0,0.0,0.0,0.0,0.0,0.0,0.0,0.0,0.0,0.0,0.0,0.0,0.0,0.0,-0.6057,-0.6193,-0.6122,-0.5578,-0.2002,-0.0244,-0.0732,-0.4331,-0.6347,-0.6363,-0.5304,-0.5468,-0.6853,-0.6742,-0.6654,-0.6529,-0.6664,-0.6725,-0.6736,-0.6888,-0.7024,-0.7139,-0.7139,-0.7064,-0.7081,-0.717,-0.7343,-0.76,-0.7617,-0.7801,-0.8038,-0.8038,-0.8038,-0.8038,-0.8038,-0.8038,-0.8038,-0.8038,-0.8038,-0.8038,-0.8038,-0.8038,-0.8041,-0.8062,-0.8272,-0.8486,-0.8503,-0.8726,-0.894,-0.894,-0.894,-0.894,-0.894,-0.894,-0.8991,-0.915,-0.9306,-0.9408,-0.9408,-0.9642,-0.9774,-0.9649,-0.9744,-0.9822,-0.9822,-0.9822,-1.0422,-1.2093,-1.3526,-1.5074,-1.685,-1.8286,-1.8525,-1.7325,-1.4356,-1.2573,-1.2217,-1.1972,-1.1257,-0.9822,-1.1257,-1.1137,-0.9822,-0.9822,-0.9822,0.0,0.0,0.0,0.0,0.0,0.0,-0.0,0.0,-0.0,0.0,0.0,0.0,0.0,0.0,0.0,0.0,0.0,0.0,0.0,0.0,0.0,0.0,0.0,0.0,0.0,0.0,0.0,0.0,0.0,-0.6179,-0.6291,-0.3441,-0.1208,-0.0,-0.1709,-0.3796,-0.6309,-0.4526,-0.4632,-0.6482,-0.6637,-0.663,-0.6474,-0.6539,-0.6569,-0.6576,-0.6729,-0.6878,-0.7017,-0.7017,-0.6991,-0.7084,-0.7074,-0.7202,-0.7306,-0.758,-0.7736,-0.7919,-0.8007,-0.8038,-0.8038,-0.8038,-0.8038,-0.8038,-0.8038,-0.8038,-0.8038,-0.8038,-0.8038,-0.8038,-0.8038,-0.8197,-0.8381,-0.8462,-0.8648,-0.8828,-0.892,-0.894,-0.894,-0.894,-0.9008,-0.9083,-0.9144,-0.9279,-0.9351,-0.9262,-0.9574,-0.9771,-0.9629,-0.9734,-0.9822,-0.9822,-0.9822,-1.0422,-1.2093,-1.2813,-1.3885,-1.5548,-1.6267,-1.5902,-1.4237,-1.2928,-1.1736,-1.0778,-1.0778,-1.0418,-0.9822,-1.0539,-1.0418,-0.9822,-0.9822,-0.9822,-0.0,0.0,0.0,0.0,0.0,0.0,0.0,0.0,0.0,0.0,0.0,0.0,0.0,0.0,-0.2985,-0.5133,0.0,-0.5538,0.0,0.0,0.0,0.0,0.0,0.0,0.0,0.0,0.0,0.0,-0.5983,0.0,-0.63,-0.4227,-0.2169,-0.0079,-0.0,-0.1463,-0.457,-0.3065,-0.2995,-0.462,-0.5928,-0.652,-0.642,-0.642,-0.6437,-0.6481,-0.6641,-0.6793,-0.6932,-0.698,-0.6981,-0.7088,-0.7094,-0.7072,-0.7181,-0.7456,-0.7706,-0.7841,-0.7987,-0.8038,-0.8038,-0.8038,-0.8038,-0.8038,-0.8038,-0.8038,-0.8038,-0.8038,-0.8038,-0.8038,-0.8038,-0.8153,-0.8296,-0.8397,-0.857,-0.874,-0.8852,-0.891,-0.894,-0.894,-0.9022,-0.9106,-0.9147,-0.9313,-0.9378,-0.9184,-0.9534,-0.9754,-0.9571,-0.9707,-0.9822,-0.9822,-0.9822,-1.0422,-1.2093,-1.2213,-1.2933,-1.4485,-1.4242,-1.3412,-1.2213,-1.1736,-1.102,-0.9819,-1.0179,-1.0179,-0.9822,-1.0179,-1.0179,-0.9822,-0.9822,-0.9822,0.0,0.0,0.0,-0.0,0.0,0.0,0.0,0.0,-0.0,0.0,0.0,0.0,0.0,-0.0076,-0.1346,-0.5201,-0.5567,0.0,0.0,0.0,0.0,0.0,0.0,0.0,0.0,0.0,0.0,-0.5603,-0.5867,0.0,-0.6286,-0.4265,-0.2185,-0.0081,-0.0,-0.0081,-0.0163,-0.0159,-0.0157,-0.0235,-0.4318,-0.6295,-0.6285,-0.6285,-0.6352,-0.6481,-0.6572,-0.6723,-0.6943,-0.7024,-0.7091,-0.7088,-0.7121,-0.7125,-0.7141,-0.7323,-0.7617,-0.7966,-0.7994,-0.8038,-0.8038,-0.8038,-0.8038,-0.8038,-0.8038,-0.8038,-0.8038,-0.8038,-0.8038,-0.8038,-0.8038,-0.8153,-0.8272,-0.8275,-0.8499,-0.8713,-0.8716,-0.8832,-0.894,-0.894,-0.8944,-0.8991,-0.913,-0.9401,-0.95,-0.9198,-0.9534,-0.9717,-0.9425,-0.9642,-0.9822,-0.9822,-0.9822,-1.0422,-1.2093,-1.2213,-1.2933,-1.4485,-1.3172,-1.2213,-1.2213,-1.0657,-0.9822,-0.9822,-1.1378,-1.1378,-0.9822,-1.1378,-1.1378,-0.9822,-0.9822,-0.9822,0.0,0.0,-0.0,-0.0,0.0,0.0,0.0,0.0,0.0,0.0,0.0,0.0,0.0,-0.0,-0.0844,-0.3595,-0.4899,-0.5557,0.0,0.0,0.0,0.0,0.0,0.0,0.0,0.0,0.0,-0.5583,-0.5769,-0.6002,0.0,-0.5613,-0.3642,-0.0079,-0.0,-0.0,-0.0,-0.0,-0.0,-0.0,-0.1487,-0.2815,-0.4224,-0.5662,-0.6301,-0.6351,-0.642,-0.5616,-0.4504,-0.6138,-0.6926,-0.7108,-0.7316,-0.6418,-0.5041,-0.508,-0.63,-0.7828,-0.796,-0.8038,-0.8038,-0.8038,-0.8038,-0.8038,-0.8038,-0.8038,-0.8038,-0.8038,-0.8038,-0.8038,-0.8038,-0.8079,-0.8167,-0.8364,-0.8486,-0.8615,-0.8818,-0.8903,-0.894,-0.894,-0.9015,-0.9096,-0.9144,-0.9408,-0.954,-0.9337,-0.9598,-0.9751,-0.9557,-0.97,-0.9822,-0.9822,-0.9822,-1.0061,-1.0539,-1.066,-1.0899,-1.1378,-1.0899,-1.066,-1.066,-1.0061,-0.9822,-0.9822,-1.0301,-1.0301,-0.9822,-1.0301,-1.0301,-0.9822,-0.9822,-0.9822,-0.0,-0.0,0.0,-0.0,-0.0,0.0,-0.0,0.0,0.0,0.0,0.0,0.0,0.0,-0.0628,-0.1555,-0.288,-0.4591,-0.5691,0.0,-0.5423,0.0,0.0,0.0,0.0,0.0,0.0,-0.541,-0.5508,-0.5698,-0.5854,0.0,0.0,-0.5015,-0.2345,-0.2272,-0.1882,-0.1096,-0.0392,-0.0,-0.0,-0.0,-0.0704,-0.2033,-0.3451,-0.4468,-0.5211,-0.5975,-0.5062,-0.3293,-0.5793,-0.6662,-0.6379,-0.7269,-0.6667,-0.5368,-0.5419,-0.6463,-0.7794,-0.7977,-0.8038,-0.8038,-0.8038,-0.8038,-0.8038,-0.8038,-0.8038,-0.8052,-0.8106,-0.8082,-0.8052,-0.8106,-0.8123,-0.817,-0.8364,-0.8486,-0.8618,-0.8815,-0.8899,-0.894,-0.894,-0.9055,-0.9171,-0.9225,-0.9442,-0.9557,-0.9405,-0.9632,-0.9771,-0.9629,-0.9734,-0.9822,-0.9822,-0.9822,-0.9822,-0.9822,-0.9822,-0.9822,-0.9822,-0.9822,-0.9822,-0.9822,-0.9822,-0.9873,-0.9981,-0.9876,-0.9876,-0.9985,-0.9873,-0.9849,-0.99,-0.9846,-0.988]},{"header":{"parameterUnit":"m.s-1","parameterCategory":1,"la1":30.6,"la2":29.2853,"lo1":-89.7004,"lo2":-87.6739,"dy":0.0162,"dx":0.0183,"nx":112,"ny":82,"refTime":"2023-06-22T06:00:00:Z","depth":0,"parameterNumber":3,"parameterNumberName":"V-component_of_WINDS"},"data":[0.0,0.0,0.0,0.0,0.0,0.0,0.0,0.0,0.0,0.0,0.0,0.0,0.0,0.0,0.0,0.0,0.0,0.0,0.0,0.0,0.0,0.0,0.0,0.0,0.0,0.0,0.0,0.0,0.0,0.0,0.0,0.0,0.0,0.0,0.0,0.0,0.0,0.0,0.0,0.0,0.0,0.0,0.0,0.0,0.0,0.0,0.0,0.0,0.0,0.0,0.0,0.0,0.0,0.0,0.0,0.0,0.0,0.0,0.0,0.0,0.0,0.0,0.0,0.0,0.0,0.0,0.0,0.0,0.0,0.0,0.0,0.0,0.0,0.0,0.0,0.0,0.0,0.0,0.0,0.0,0.0,0.0,0.0,0.0,0.0,0.0,0.0,0.0,0.0,0.0,-2.3134,-2.319,-2.4582,-2.5534,-2.5614,-2.4437,-2.4291,-2.5615,0.0,0.0,0.0,0.0,0.0,0.0,0.0,0.0,0.0,0.0,0.0,0.0,0.0,0.0,0.0,0.0,0.0,0.0,0.0,0.0,0.0,0.0,0.0,0.0,0.0,0.0,0.0,0.0,0.0,0.0,0.0,0.0,0.0,0.0,0.0,0.0,0.0,0.0,0.0,0.0,0.0,0.0,0.0,0.0,0.0,0.0,0.0,0.0,0.0,0.0,0.0,0.0,0.0,0.0,0.0,0.0,0.0,0.0,0.0,0.0,0.0,0.0,0.0,0.0,0.0,0.0,0.0,0.0,0.0,0.0,0.0,0.0,0.0,0.0,0.0,0.0,0.0,0.0,0.0,0.0,0.0,0.0,0.0,0.0,0.0,0.0,0.0,0.0,0.0,0.0,0.0,0.0,0.0,0.0,0.0,0.0,0.0,0.0,0.0,0.0,0.0,0.0,0.0,0.0,-2.4025,-2.41,-2.4937,-2.5546,-2.5668,-2.285,-2.2407,-2.5497,0.0,0.0,0.0,0.0,0.0,0.0,0.0,0.0,0.0,0.0,0.0,0.0,0.0,0.0,0.0,0.0,0.0,0.0,0.0,0.0,0.0,0.0,0.0,0.0,0.0,0.0,0.0,0.0,0.0,0.0,0.0,0.0,0.0,0.0,0.0,0.0,0.0,0.0,0.0,0.0,0.0,0.0,0.0,0.0,0.0,0.0,0.0,0.0,0.0,0.0,0.0,0.0,0.0,0.0,0.0,0.0,0.0,0.0,0.0,0.0,0.0,0.0,0.0,0.0,0.0,0.0,0.0,0.0,0.0,0.0,0.0,0.0,0.0,0.0,0.0,0.0,0.0,0.0,0.0,0.0,0.0,0.0,0.0,0.0,0.0,0.0,0.0,0.0,0.0,0.0,0.0,0.0,0.0,0.0,0.0,0.0,0.0,0.0,0.0,0.0,0.0,0.0,0.0,-2.4002,-2.3829,-2.4841,-2.5286,-2.5363,-2.5016,-2.2662,-2.2281,-2.4771,-2.3681,0.0,0.0,0.0,0.0,0.0,0.0,0.0,0.0,0.0,0.0,0.0,0.0,0.0,0.0,0.0,0.0,0.0,0.0,0.0,0.0,0.0,0.0,0.0,0.0,0.0,0.0,0.0,0.0,0.0,0.0,0.0,0.0,0.0,0.0,0.0,0.0,0.0,0.0,0.0,0.0,0.0,0.0,0.0,0.0,0.0,0.0,0.0,0.0,0.0,0.0,0.0,0.0,0.0,0.0,0.0,0.0,0.0,0.0,0.0,0.0,0.0,0.0,0.0,0.0,0.0,0.0,0.0,0.0,0.0,0.0,0.0,0.0,0.0,0.0,0.0,0.0,0.0,0.0,0.0,0.0,0.0,0.0,0.0,0.0,0.0,0.0,0.0,0.0,0.0,0.0,0.0,0.0,0.0,0.0,0.0,0.0,0.0,0.0,0.0,0.0,0.0,0.0,-2.4024,-2.3735,-2.5332,-2.5507,-2.5215,-2.4451,-2.2611,-2.2305,-2.4183,-2.248,0.0,0.0,0.0,0.0,0.0,0.0,0.0,0.0,0.0,0.0,0.0,0.0,0.0,0.0,0.0,0.0,0.0,0.0,0.0,0.0,0.0,0.0,0.0,0.0,0.0,0.0,0.0,0.0,0.0,0.0,0.0,0.0,0.0,0.0,0.0,0.0,0.0,0.0,0.0,0.0,0.0,0.0,0.0,0.0,0.0,0.0,0.0,0.0,0.0,0.0,0.0,0.0,0.0,0.0,0.0,0.0,0.0,0.0,0.0,0.0,0.0,0.0,0.0,0.0,0.0,0.0,0.0,0.0,0.0,0.0,0.0,0.0,0.0,0.0,0.0,0.0,0.0,0.0,0.0,0.0,0.0,0.0,0.0,0.0,0.0,0.0,0.0,0.0,0.0,0.0,0.0,0.0,0.0,0.0,0.0,0.0,0.0,0.0,0.0,0.0,0.0,0.0,-2.4601,-2.4456,-2.5409,-2.5563,-2.5272,-2.4474,-2.2056,-2.1656,-2.415,-2.1902,0.0,0.0,0.0,0.0,0.0,0.0,0.0,0.0,0.0,0.0,0.0,0.0,0.0,0.0,0.0,0.0,0.0,0.0,0.0,0.0,0.0,0.0,0.0,0.0,0.0,0.0,0.0,0.0,0.0,0.0,0.0,0.0,0.0,0.0,0.0,0.0,0.0,0.0,0.0,0.0,0.0,0.0,0.0,0.0,0.0,0.0,0.0,0.0,0.0,0.0,0.0,0.0,0.0,0.0,0.0,0.0,0.0,0.0,0.0,0.0,0.0,0.0,0.0,0.0,0.0,0.0,0.0,0.0,0.0,0.0,0.0,0.0,0.0,0.0,0.0,0.0,0.0,0.0,0.0,0.0,0.0,0.0,0.0,0.0,0.0,0.0,0.0,0.0,0.0,0.0,0.0,0.0,0.0,0.0,0.0,0.0,0.0,0.0,0.0,0.0,0.0,0.0,-2.5101,-2.5089,0.0,-2.5558,-2.505,-2.3699,-2.2142,-2.1871,-2.3338,0.0,0.0,0.0,0.0,0.0,0.0,0.0,0.0,0.0,0.0,0.0,0.0,0.0,0.0,0.0,0.0,0.0,0.0,0.0,0.0,0.0,0.0,0.0,0.0,0.0,0.0,0.0,0.0,0.0,0.0,0.0,0.0,0.0,0.0,0.0,0.0,0.0,0.0,0.0,0.0,0.0,0.0,0.0,0.0,0.0,0.0,0.0,0.0,0.0,0.0,0.0,0.0,0.0,0.0,0.0,0.0,0.0,0.0,0.0,0.0,0.0,0.0,0.0,0.0,0.0,0.0,0.0,0.0,0.0,0.0,0.0,0.0,0.0,0.0,0.0,0.0,0.0,0.0,0.0,0.0,0.0,0.0,0.0,0.0,0.0,0.0,0.0,0.0,0.0,0.0,0.0,0.0,0.0,0.0,0.0,0.0,0.0,0.0,0.0,0.0,0.0,0.0,-2.5322,-2.539,-2.5455,0.0,-2.5583,-2.4939,-2.3242,-2.2247,-2.2035,-2.2852,0.0,0.0,0.0,0.0,0.0,0.0,0.0,0.0,0.0,0.0,0.0,0.0,0.0,0.0,0.0,0.0,0.0,0.0,0.0,0.0,0.0,0.0,0.0,0.0,0.0,0.0,0.0,0.0,0.0,0.0,0.0,0.0,0.0,0.0,0.0,0.0,0.0,0.0,0.0,0.0,0.0,0.0,0.0,0.0,0.0,0.0,0.0,0.0,0.0,0.0,0.0,0.0,0.0,0.0,0.0,0.0,0.0,0.0,0.0,0.0,0.0,0.0,0.0,0.0,0.0,0.0,0.0,0.0,0.0,0.0,0.0,0.0,0.0,0.0,0.0,0.0,0.0,0.0,0.0,0.0,0.0,0.0,0.0,0.0,0.0,0.0,0.0,0.0,0.0,0.0,0.0,0.0,0.0,0.0,0.0,0.0,0.0,0.0,0.0,0.0,0.0,0.0,-2.537,-2.5466,-2.5524,-2.5582,-2.566,-2.498,-2.3242,-2.2238,-2.2036,0.0,0.0,0.0,0.0,0.0,0.0,0.0,0.0,0.0,0.0,0.0,0.0,0.0,0.0,0.0,0.0,0.0,0.0,0.0,0.0,0.0,0.0,0.0,0.0,0.0,0.0,0.0,0.0,0.0,0.0,0.0,0.0,0.0,0.0,0.0,0.0,0.0,0.0,0.0,0.0,0.0,0.0,0.0,0.0,0.0,0.0,0.0,0.0,0.0,0.0,0.0,0.0,0.0,0.0,0.0,0.0,0.0,0.0,0.0,0.0,0.0,0.0,0.0,0.0,0.0,0.0,0.0,0.0,0.0,0.0,0.0,0.0,0.0,0.0,0.0,0.0,0.0,0.0,0.0,0.0,0.0,0.0,0.0,0.0,0.0,0.0,0.0,0.0,0.0,0.0,0.0,0.0,0.0,0.0,0.0,0.0,0.0,0.0,0.0,0.0,0.0,0.0,0.0,-2.538,-2.5453,-2.5529,-2.5582,-2.5111,-2.4326,-2.3198,-2.2245,-2.2031,-2.2851,0.0,0.0,0.0,0.0,0.0,0.0,0.0,0.0,0.0,0.0,0.0,0.0,0.0,0.0,0.0,0.0,0.0,0.0,0.0,0.0,0.0,0.0,0.0,0.0,0.0,0.0,0.0,0.0,0.0,0.0,0.0,0.0,0.0,0.0,0.0,0.0,0.0,0.0,0.0,0.0,0.0,0.0,0.0,0.0,0.0,0.0,0.0,0.0,0.0,0.0,0.0,0.0,0.0,0.0,0.0,0.0,0.0,0.0,0.0,0.0,0.0,0.0,0.0,0.0,0.0,0.0,0.0,0.0,0.0,0.0,0.0,0.0,0.0,0.0,0.0,0.0,0.0,0.0,0.0,0.0,0.0,0.0,0.0,0.0,0.0,0.0,0.0,0.0,0.0,0.0,0.0,0.0,0.0,0.0,0.0,0.0,0.0,0.0,0.0,0.0,0.0,0.0,-2.5428,-2.5492,-2.5537,-2.5621,-2.521,-2.4547,-2.365,-2.3062,-2.2778,-2.289,0.0,0.0,0.0,0.0,0.0,0.0,0.0,0.0,0.0,0.0,0.0,0.0,0.0,0.0,0.0,0.0,0.0,0.0,0.0,0.0,0.0,0.0,0.0,0.0,0.0,0.0,0.0,0.0,0.0,0.0,0.0,0.0,0.0,0.0,0.0,0.0,0.0,0.0,0.0,0.0,0.0,0.0,0.0,0.0,0.0,0.0,0.0,0.0,0.0,0.0,0.0,0.0,0.0,0.0,0.0,0.0,0.0,0.0,0.0,0.0,0.0,0.0,0.0,0.0,0.0,0.0,0.0,0.0,0.0,0.0,0.0,0.0,0.0,0.0,0.0,0.0,0.0,0.0,0.0,0.0,0.0,0.0,0.0,0.0,0.0,0.0,0.0,0.0,0.0,0.0,0.0,0.0,0.0,0.0,0.0,0.0,0.0,0.0,0.0,0.0,0.0,0.0,-2.5486,-2.5485,-2.5543,-2.5677,-2.5604,-2.5216,-2.436,-2.4225,-2.383,-2.3063,0.0,0.0,0.0,0.0,0.0,0.0,0.0,0.0,0.0,0.0,0.0,0.0,0.0,0.0,0.0,0.0,0.0,0.0,0.0,0.0,0.0,0.0,0.0,0.0,0.0,0.0,0.0,0.0,0.0,0.0,0.0,0.0,0.0,0.0,0.0,0.0,0.0,0.0,0.0,0.0,0.0,0.0,0.0,0.0,0.0,0.0,0.0,0.0,0.0,0.0,0.0,0.0,0.0,0.0,0.0,0.0,0.0,0.0,0.0,0.0,-1.7993,0.0,0.0,0.0,0.0,0.0,0.0,0.0,0.0,0.0,0.0,0.0,0.0,0.0,0.0,0.0,0.0,0.0,0.0,0.0,0.0,0.0,0.0,0.0,0.0,0.0,0.0,0.0,0.0,0.0,0.0,0.0,0.0,0.0,0.0,0.0,0.0,0.0,0.0,0.0,0.0,0.0,-2.5486,-2.5441,-2.5467,-2.5604,-2.4957,-2.4433,-2.4244,-2.3592,-2.338,-2.3812,-2.3351,0.0,0.0,0.0,0.0,0.0,0.0,0.0,0.0,0.0,0.0,0.0,0.0,0.0,0.0,0.0,0.0,0.0,0.0,0.0,0.0,0.0,0.0,0.0,0.0,0.0,0.0,0.0,0.0,0.0,0.0,0.0,0.0,0.0,0.0,0.0,0.0,0.0,0.0,0.0,0.0,0.0,0.0,0.0,0.0,0.0,0.0,0.0,0.0,0.0,0.0,0.0,0.0,0.0,0.0,0.0,0.0,0.0,0.0,0.0,0.0,-1.9325,0.0,0.0,0.0,0.0,0.0,0.0,0.0,0.0,0.0,0.0,0.0,0.0,0.0,0.0,0.0,0.0,0.0,0.0,0.0,0.0,0.0,0.0,0.0,0.0,0.0,0.0,0.0,0.0,0.0,0.0,0.0,0.0,0.0,0.0,0.0,0.0,0.0,0.0,0.0,0.0,-2.5447,-2.5444,-2.5462,-2.5534,-2.5123,-2.4799,-2.4793,-2.4361,-2.4091,-2.411,-2.4043,0.0,0.0,0.0,0.0,0.0,0.0,0.0,0.0,0.0,0.0,0.0,0.0,0.0,0.0,0.0,0.0,0.0,0.0,0.0,0.0,0.0,0.0,0.0,0.0,0.0,0.0,0.0,0.0,0.0,0.0,0.0,0.0,0.0,0.0,0.0,0.0,0.0,0.0,0.0,0.0,0.0,0.0,0.0,0.0,0.0,0.0,0.0,0.0,0.0,0.0,0.0,0.0,0.0,-2.9026,-2.9779,-3.1004,-3.1004,-3.0729,-2.9994,-2.5157,-2.2358,-2.1115,0.0,0.0,0.0,0.0,0.0,0.0,0.0,0.0,0.0,0.0,0.0,0.0,0.0,0.0,0.0,0.0,0.0,0.0,0.0,0.0,0.0,0.0,0.0,0.0,0.0,-2.4908,-2.4614,0.0,0.0,0.0,0.0,0.0,0.0,0.0,0.0,0.0,0.0,0.0,0.0,-2.5428,-2.5447,-2.5466,-2.5486,-2.5466,-2.5447,-2.539,-2.539,-2.5082,-2.436,-2.4793,-2.4524,0.0,0.0,0.0,0.0,0.0,0.0,0.0,0.0,0.0,0.0,0.0,0.0,0.0,0.0,0.0,0.0,0.0,0.0,0.0,0.0,0.0,0.0,0.0,0.0,0.0,0.0,0.0,0.0,0.0,0.0,0.0,0.0,-2.7163,-2.7163,0.0,0.0,0.0,0.0,0.0,0.0,0.0,0.0,0.0,0.0,0.0,0.0,0.0,0.0,-2.9436,-3.0826,-3.1686,-3.2033,-3.271,-3.304,-3.3013,-3.3013,-3.2829,-3.2451,-3.1684,0.0,-2.5681,-2.4001,0.0,0.0,0.0,0.0,0.0,0.0,0.0,0.0,0.0,0.0,0.0,0.0,0.0,0.0,0.0,0.0,0.0,0.0,0.0,0.0,0.0,0.0,-2.5379,-2.6164,-2.6334,-2.6368,0.0,-2.5581,-2.4654,-2.5138,0.0,0.0,0.0,0.0,0.0,0.0,0.0,0.0,-2.549,-2.5357,-2.5341,-2.5409,-2.537,-2.5322,-2.5303,-2.5303,-2.5264,-2.5159,-2.4582,-2.4466,-2.4937,-2.4409,0.0,0.0,0.0,0.0,0.0,0.0,0.0,0.0,0.0,0.0,0.0,0.0,0.0,0.0,0.0,0.0,0.0,0.0,0.0,0.0,0.0,0.0,0.0,0.0,0.0,0.0,0.0,0.0,0.0,-2.8577,-2.8383,-2.7773,-2.8251,-2.8602,0.0,0.0,0.0,0.0,0.0,0.0,0.0,0.0,0.0,-2.9728,-3.0576,-3.1641,-3.2908,-3.3605,-3.4669,-3.6046,-3.6395,-3.6978,-3.7716,-3.7716,-3.7471,-3.7016,-3.66,-3.5007,-3.2354,-2.8282,-2.618,-2.528,0.0,0.0,0.0,0.0,0.0,-2.346,-2.3781,0.0,0.0,0.0,0.0,0.0,0.0,0.0,0.0,0.0,0.0,0.0,0.0,0.0,0.0,-2.7904,-2.8067,-2.8086,-2.7774,-2.7083,-2.642,0.0,-2.5983,-2.6088,-2.6533,0.0,0.0,0.0,0.0,-2.5842,-2.5404,-2.5351,-2.5341,-2.5341,-2.5322,-2.5303,-2.5303,-2.5303,-2.5303,-2.5303,-2.4966,-2.4736,-2.462,-2.4716,-2.4736,0.0,0.0,0.0,0.0,0.0,0.0,0.0,0.0,0.0,0.0,0.0,0.0,0.0,0.0,0.0,0.0,0.0,0.0,0.0,0.0,0.0,0.0,0.0,0.0,0.0,0.0,0.0,0.0,-2.9225,-2.9217,-2.8278,-2.9,-2.9567,0.0,0.0,0.0,0.0,0.0,0.0,-3.0939,-3.1477,-3.232,-3.3513,-3.3954,-3.4835,-3.6248,-3.6439,-3.7606,-3.9625,-3.9625,-4.0359,-4.1717,-4.1717,-4.1512,-4.1089,-4.0525,-3.9571,-3.7934,-3.2209,-2.9486,-2.8594,-2.574,-2.5059,-2.5631,-2.519,-2.6029,-2.7417,-2.7654,-2.8783,-3.009,-3.0376,0.0,-3.0152,-2.9795,0.0,0.0,0.0,0.0,-2.8192,-2.9868,0.0,-3.0149,-3.0145,-3.0309,-3.0226,-2.942,-2.9251,-2.8774,0.0,-2.6867,-2.6907,-2.6928,0.0,0.0,0.0,0.0,-2.5659,-2.5341,-2.5341,-2.537,-2.5303,-2.5303,-2.5303,-2.5303,-2.5303,-2.5303,-2.5303,-2.5303,-2.5024,-2.4428,-2.4986,-2.5024,-2.4409,0.0,0.0,0.0,0.0,0.0,0.0,0.0,0.0,0.0,0.0,0.0,0.0,0.0,0.0,0.0,0.0,0.0,0.0,0.0,0.0,0.0,0.0,0.0,0.0,0.0,0.0,0.0,0.0,0.0,-2.8437,-3.0037,0.0,0.0,0.0,0.0,-3.386,-3.4665,-3.5008,-3.4734,-3.555,-3.6028,-3.6101,-3.7606,-3.8799,-3.9643,-4.0414,-4.1258,-4.2121,-4.2121,-4.2561,-4.3369,-4.3369,-4.3369,-4.3334,-4.3279,-4.2539,-4.0834,-3.5276,-3.2509,-3.1567,-2.9515,-2.9158,-2.977,-2.9506,-3.0082,-3.0893,-2.9916,-3.0327,-3.152,-3.2859,-3.4508,-3.5405,-3.2256,-3.1424,0.0,0.0,-2.9455,-2.9664,-3.1656,-3.2164,-3.2353,-3.3091,-3.328,-3.3127,-3.2502,-3.2378,-3.1405,0.0,-2.7458,-2.7549,-2.7791,0.0,-2.7505,-2.6717,-2.6563,-2.6236,-2.5399,-2.5303,-2.5303,-2.5303,-2.5303,-2.5303,-2.5303,-2.5303,-2.5303,-2.5303,-2.5303,-2.5284,-2.5245,-2.5284,-2.5284,-2.5245,-2.5284,0.0,0.0,0.0,0.0,0.0,0.0,0.0,0.0,0.0,0.0,0.0,0.0,0.0,0.0,0.0,0.0,0.0,0.0,0.0,0.0,0.0,0.0,0.0,0.0,0.0,0.0,0.0,0.0,-3.2429,-3.4074,0.0,-3.502,-3.5116,-3.5375,-3.5843,-3.6155,-3.6656,-3.7331,-3.867,-3.9863,-4.0891,-4.1479,-4.2176,-4.2983,-4.2763,-4.2782,-4.3057,-4.3057,-4.3222,-4.3532,-4.3726,-4.3836,-4.3836,-4.4095,-4.3949,-4.3278,-4.0425,-3.7742,-3.5206,-3.3002,-3.2284,-3.2529,-3.2716,-3.3364,-3.4114,-3.3985,-3.4531,-3.5302,-3.5108,-3.5249,-3.5276,-3.4127,-3.3851,-3.3901,-3.3809,-3.3715,-3.3903,-3.5132,-3.5572,-3.5589,-3.5153,-3.5173,-3.4905,-3.3428,-3.3106,-3.2496,-3.0365,-2.9633,-2.9224,-2.8744,-2.8236,-2.7967,-2.8179,-2.7775,-2.7121,-2.6255,-2.614,-2.5928,-2.536,-2.5303,-2.5303,-2.5303,-2.5303,-2.5303,-2.5303,-2.5303,-2.5303,-2.5303,-2.5303,-2.5303,-2.5303,-2.5303,-2.5572,0.0,0.0,0.0,0.0,0.0,0.0,0.0,0.0,0.0,0.0,0.0,0.0,0.0,0.0,0.0,0.0,0.0,0.0,0.0,0.0,0.0,0.0,0.0,0.0,0.0,0.0,-3.4489,-3.5874,-3.7433,-3.8347,-3.825,-3.8099,-3.8267,-3.8914,-3.9483,-4.0309,-4.1475,-4.2818,-4.3901,-4.469,-4.4709,-4.4837,-4.5112,-4.458,-4.4158,-4.3901,-4.3901,-4.3986,-4.4099,-4.4023,-4.4207,-4.4597,-4.4587,-4.458,-4.4523,-4.3632,-4.1728,-3.9101,-3.687,-3.5966,-3.5966,-3.6342,-3.6801,-3.7337,-3.776,-3.7787,-3.759,-3.7225,-3.6934,-3.6631,-3.6198,-3.6285,-3.6539,-3.6689,-3.6748,-3.6938,-3.7795,-3.8134,-3.8012,-3.6957,-3.6858,-3.6449,-3.4577,-3.4181,-3.3815,-3.2607,-3.1473,-3.0356,-2.9294,-2.8659,-2.8486,-2.9006,-2.8409,-2.7794,-2.7486,-2.7217,-2.6813,-2.6236,-2.5909,-2.5736,-2.5736,-2.5736,-2.561,-2.5322,-2.5572,-2.561,-2.5303,-2.5572,-2.5736,-2.5736,-2.5736,-2.6024,-2.6601,0.0,0.0,0.0,0.0,0.0,0.0,0.0,0.0,0.0,0.0,0.0,0.0,0.0,0.0,0.0,0.0,0.0,0.0,0.0,0.0,0.0,0.0,0.0,-3.3754,-3.5599,-3.7274,-3.8512,-3.9868,-4.0617,-4.0368,-4.1353,-4.2355,-4.3253,-4.4821,-4.6127,-4.7058,-4.7865,-4.7957,-4.7186,-4.7186,-4.6783,-4.5957,-4.5938,-4.5535,-4.4745,-4.4745,-4.4934,-4.5326,-4.4475,-4.4739,-4.5795,-4.5028,-4.4669,-4.4669,-4.465,-4.414,-4.3177,-4.102,-4.0183,-4.0183,-4.0275,-4.0275,-4.0329,-4.0854,-3.9686,-3.8089,-3.9194,-3.9797,-3.9853,-3.8524,-3.87,-3.9219,-3.8522,-3.8344,-3.8575,-3.9471,-3.9702,-3.9456,-3.8589,-3.8354,-3.7844,-3.6098,-3.5713,-3.5463,-3.4666,-3.2814,-3.0939,-2.9483,-2.9228,-2.9228,-2.919,-2.8525,0.0,-2.9006,-2.8409,-2.7928,-2.7928,-2.7178,-2.6678,-2.664,-2.664,-2.6255,-2.536,-2.6101,-2.6178,-2.5322,-2.612,-2.6563,-2.6563,-2.6582,-2.6601,-2.6601,0.0,0.0,0.0,0.0,0.0,0.0,0.0,0.0,0.0,0.0,0.0,0.0,0.0,0.0,0.0,0.0,0.0,0.0,0.0,0.0,0.0,0.0,-3.6397,-3.6795,-3.8343,-4.0265,-4.2448,-4.4149,-4.5337,-4.586,-4.6184,-4.624,-4.5984,-4.6382,-4.6768,-4.7095,-4.7865,-4.8214,-4.7994,-4.8581,-4.8214,-4.6801,-4.6783,-4.6379,-4.5571,-4.5571,-4.5764,-4.6184,-4.6175,-4.6501,-4.7063,-4.6502,-4.6261,-4.6222,-4.559,-4.5189,-4.4804,-4.3088,-4.2081,-4.1455,-4.0659,-3.986,-3.9246,-3.9978,-3.9605,-3.8973,-4.0126,-4.0331,-4.0177,-4.0617,-4.0931,-4.1085,-4.0981,-4.1366,-4.1923,-4.2255,-4.1888,-4.1199,-4.0393,-3.9219,-3.7996,-3.6889,-3.6151,-3.5463,-3.4659,-3.4011,-3.3287,-3.2243,-3.2023,-3.18,-3.1145,-3.0825,0.0,-2.9217,-2.8909,-2.8775,-2.8775,-2.8563,-2.8179,-2.7582,-2.7544,-2.6909,-2.538,-2.5514,-2.5553,-2.5303,-2.5534,-2.5649,-2.5649,-2.6274,-2.6601,0.0,0.0,0.0,0.0,0.0,0.0,0.0,0.0,0.0,0.0,0.0,0.0,0.0,0.0,0.0,0.0,0.0,0.0,0.0,0.0,0.0,0.0,-3.8065,-4.0085,-4.1527,-4.1931,-4.3028,-4.5586,-4.6797,-4.774,-4.8567,-4.8644,-4.8677,-4.8802,-4.8966,-4.9146,-4.9399,-5.0002,-5.0215,-4.9866,-5.0013,-4.9462,-4.8159,-4.8311,-4.7829,-4.6664,-4.7185,-4.7454,-4.7514,-4.7345,-4.7634,0.0,-4.7684,-4.724,-4.6913,-4.6394,-4.599,0.0,0.0,0.0,0.0,0.0,-4.1194,-4.0096,-4.1404,-4.0654,-3.9447,-4.1463,-4.1426,-4.0826,-4.1999,-4.2335,-4.2374,-4.2541,-4.2913,-4.3319,-4.3487,-4.288,-4.2017,-4.1217,-3.9965,-3.8736,-3.7866,-3.7262,-3.666,-3.584,0.0,0.0,-3.4516,-3.3684,-3.3082,-3.2952,-3.2601,-3.2088,-3.1453,-3.0702,-3.024,-3.024,-2.9555,-2.8909,-2.8429,-2.839,0.0,0.0,0.0,-2.6236,-2.587,-2.5851,0.0,0.0,0.0,-2.6967,-2.6601,0.0,0.0,0.0,-2.8986,-2.9486,0.0,0.0,0.0,0.0,0.0,0.0,0.0,0.0,0.0,0.0,0.0,0.0,0.0,0.0,0.0,0.0,-4.1681,-4.3528,-4.6855,-4.6009,-4.5855,-4.8125,-4.8394,-4.8779,-4.974,-4.974,-5.0159,-5.1362,-5.1679,-5.2096,-5.2653,0.0,0.0,0.0,0.0,-5.0643,-4.9689,-5.0135,-4.9556,-4.7932,-4.9047,-4.9394,-4.901,-4.8228,-4.8479,-4.949,-4.8625,-4.7875,-4.7278,-4.7086,-4.6564,-4.5847,-4.536,-4.508,-4.4941,-4.4624,-4.3262,0.0,0.0,0.0,0.0,-4.2712,-4.2676,-4.1724,-4.2881,-4.3239,-4.3278,-4.3487,-4.362,-4.3741,-4.394,-4.3359,-4.248,-4.168,-4.0742,-3.9805,-3.8926,-3.8672,-3.8374,-3.76,-3.7455,-3.7169,-3.6303,-3.4681,-3.3732,-3.4408,-3.3851,-3.3577,-3.426,-3.286,-3.1846,-3.1939,0.0,0.0,-2.9256,-2.9236,-2.8525,-2.6851,-2.7467,-2.7544,-2.6774,-2.6755,-2.6755,-2.6755,-2.7505,-2.7525,-2.6755,-2.7601,-2.839,-2.9121,-2.989,-3.0352,0.0,0.0,0.0,0.0,0.0,0.0,0.0,0.0,0.0,0.0,0.0,0.0,0.0,0.0,0.0,-4.22,-4.447,-4.6855,-4.9567,-4.9663,-4.9644,-5.0144,-5.0202,-5.0779,-5.2318,-5.1837,-5.1674,-5.2297,-5.1758,-5.1887,-5.3013,-5.2858,0.0,-5.2494,-5.2958,-5.2178,-5.0042,-5.1115,-5.0798,-4.9141,0.0,0.0,-4.9844,-4.9673,-4.9934,-5.0394,-4.9529,-4.9125,-4.899,-4.7567,-4.6568,-4.5878,-4.5726,-4.5036,-4.4128,-4.4064,-4.2762,-4.1098,-4.1491,-4.1287,-4.1083,-4.2406,-4.2795,-4.2919,-4.3799,-4.4066,0.0,-4.4388,-4.4918,-4.5487,-4.5737,-4.5156,-4.4277,-4.3418,-4.2051,-4.0703,-3.9844,-3.9101,-3.8555,-3.8376,-3.8355,-3.8062,-3.7203,-3.6129,-3.5208,-3.4652,-3.4383,-3.4058,-3.3529,-3.2531,-3.2119,-3.2783,-3.1919,-3.0972,-3.0217,-3.016,-2.9429,-2.7755,-2.7813,-2.7813,-2.7659,-2.764,-2.764,-2.764,-2.7813,-2.7813,-2.764,-2.8467,-2.8948,-2.9102,-2.9275,-2.9737,0.0,0.0,0.0,0.0,0.0,0.0,0.0,0.0,0.0,0.0,0.0,-3.5952,0.0,0.0,-4.2777,-4.5778,-4.7682,-4.9548,-5.1645,-5.1952,-5.1952,-5.1952,-5.1952,-5.2452,-5.3722,-5.3453,-5.3467,-5.4081,-5.355,-5.3465,-5.4135,-5.3779,-5.3534,-5.3534,-5.3515,-5.2896,-5.1659,-5.2529,-5.2104,-5.0407,-5.1047,-5.1238,-5.0993,-5.0572,-5.0734,-5.126,-5.0414,-4.9913,-4.9586,-4.7971,-4.6787,-4.5998,-4.5959,-4.5494,-4.4863,-4.4863,-4.3825,-4.2468,-4.3056,-4.2697,-4.2181,-4.3637,-4.3921,-4.3855,-4.4701,-4.4989,-4.5103,-4.5255,-4.565,-4.6053,-4.6258,-4.5644,-4.4883,-4.4453,-4.3379,-4.2324,-4.1894,-4.1113,-4.0371,-3.998,-3.9551,-3.8965,-3.8105,-3.7559,-3.6816,-3.5508,-3.5263,-3.5084,-3.4661,-3.3802,-3.3409,-3.3812,-3.2625,-3.1607,-3.1133,-3.0256,-2.939,-2.8544,-2.8121,-2.789,-2.789,-2.789,-2.789,-2.789,-2.8294,-2.8486,-2.8486,-2.9333,-2.9756,-2.9756,-3.0198,-3.041,0.0,0.0,0.0,0.0,0.0,0.0,0.0,-3.2903,-3.4071,-3.6046,-3.7091,-3.8594,-4.1723,-4.3214,-4.513,-4.8702,-5.0201,-5.1452,-5.2991,-5.3356,-5.351,-5.3664,-5.3395,-5.3606,-5.4626,-5.4434,-5.4645,-5.5626,-5.5246,-5.5059,-5.5212,-5.4838,-5.4628,-5.4628,-5.3929,-5.3475,-5.3324,-5.3777,-5.323,-5.1682,-5.2713,-5.2837,-5.2125,-5.1318,-5.1298,-5.1875,-5.1068,-5.0297,-4.9461,-4.8283,-4.7157,-4.6142,-4.615,-4.6027,-4.5854,-4.583,-4.5035,-4.4153,-4.5071,-4.4306,-4.3197,-4.4821,-4.4989,-4.4682,-4.5374,-4.5699,-4.5813,-4.5877,-4.5998,-4.6124,-4.6267,-4.5781,-4.5215,-4.5039,-4.4453,-4.3906,-4.373,-4.3144,-4.2461,-4.1816,-4.0976,-4.0117,-3.9258,-3.8965,-3.832,-3.6738,-3.6367,-3.625,-3.625,-3.5293,-3.461,-3.4611,-3.3098,-3.2081,-3.2062,-3.0556,-2.9602,-2.9602,-2.9006,-2.8563,-2.839,-2.8698,-2.8717,-2.839,-2.9333,-2.9756,-2.9602,-3.0467,-3.0891,-3.091,-3.1621,-3.1468,-2.6624,-2.7161,-2.8393,-3.0977,-3.2239,-3.378,0.0,-3.8384,-3.91,-4.0866,-4.1864,-4.2775,-4.3894,-4.5689,-4.7426,-4.8671,-5.05,-5.2106,-5.3068,-5.3876,-5.4626,-5.5338,-5.4107,-5.3818,-5.5415,-5.4222,-5.3991,-5.5568,-5.5009,-5.4891,-5.5583,-5.5237,-5.5034,-5.5034,-5.4939,-5.452,-5.3731,-5.4196,-5.3949,-5.2988,-5.3124,-5.3145,-5.3029,-5.2164,-5.1818,-5.1875,-5.1183,-5.0046,-4.8632,-4.8603,-4.7674,-4.6286,-4.6282,-4.6192,-4.6046,-4.5928,-4.526,-4.4456,-4.457,-4.4397,-4.4147,-4.4374,-4.4893,-4.547,-4.5566,-4.5699,-4.5822,-4.5886,-4.5996,-4.6124,-4.6267,-4.623,-4.5957,-4.5176,-4.4922,-4.4648,-4.3867,-4.3613,-4.3535,-4.3437,-4.2715,-4.1855,-4.1055,-4.0273,-3.9434,-3.8457,-3.7656,-3.7148,-3.7148,-3.5703,-3.4668,-3.4605,-3.3713,-3.307,-3.2954,-3.1999,-3.141,-3.141,-3.1314,-3.0929,-3.016,-3.1545,-3.1641,-3.016,-3.1679,-3.2122,-3.141,-3.2218,-3.2622,-3.2622,-3.2718,-3.2333,-2.6691,-2.8421,-3.0472,-3.1492,-3.3484,-3.5831,-3.8298,-3.9293,-4.0364,-4.266,-4.3801,-4.4664,-4.5725,-4.6603,-4.7662,0.0,-5.0174,-5.1315,-5.2656,-5.3366,-5.3683,-5.351,-5.2876,-5.3299,-5.5491,-5.5068,-5.4953,-5.5645,-5.5395,-5.5338,-5.5684,-5.5535,-5.5446,-5.5446,-5.5446,-5.5274,-5.491,-5.51,-5.478,-5.3953,-5.3953,-5.3683,-5.3203,-5.2818,-5.2395,-5.1875,-5.1183,-4.9947,-4.8416,-4.8615,-4.7715,-4.6191,-4.6269,-4.6264,-4.6195,-4.6079,-4.5716,-4.5306,-4.5305,-4.524,-4.5163,-4.5163,-4.5355,-4.5605,-4.5699,-4.5776,-4.5868,-4.5984,-4.6113,-4.6222,-4.6285,-4.6308,-4.6211,-4.584,-4.5762,-4.5664,-4.5293,-4.4805,-4.4453,-4.4453,-4.375,-4.3047,-4.2715,-4.1933,-4.123,-4.0879,-3.9238,-3.8066,-3.8066,-3.7422,-3.6562,-3.5469,-3.458,-3.3801,-3.321,-3.2807,-3.2557,-3.2519,-3.2519,-3.2326,-3.1872,-3.2526,-3.2564,-3.1872,-3.2545,-3.2756,-3.2519,-3.2846,-3.3038,-3.3083,-3.359,-3.3647,-2.7589,-2.9627,-3.1777,-3.2684,-3.5316,-3.8032,-3.9383,-4.0836,-4.2404,-4.4156,-4.5166,-4.5932,-4.6581,-4.6786,-4.7343,-4.8821,-4.9656,-5.0617,-5.2043,-5.259,-5.2606,-5.1991,-5.1702,-5.2375,-5.4453,-5.4645,-5.4857,-5.5318,-5.5376,-5.5472,-5.5684,-5.5703,-5.5703,-5.5703,-5.5703,-5.5703,-5.5703,-5.5472,-5.5184,-5.4818,-5.4607,-5.428,-5.3876,-5.3414,-5.2606,-5.1548,-5.1048,-5.0029,-4.87,-4.8651,-4.779,-4.6504,-4.6367,-4.6308,-4.6289,-4.6191,-4.6078,-4.5962,-4.5964,-4.5905,-4.5827,-4.583,-4.5757,-4.5699,-4.5796,-4.5892,-4.5988,-4.6065,-4.6201,-4.6308,-4.6308,-4.6308,-4.6308,-4.6308,-4.6308,-4.6308,-4.6308,-4.5801,-4.5351,-4.5351,-4.4648,-4.4062,-4.4062,-4.334,-4.2676,-4.2441,-4.082,-3.9473,-3.9023,-3.875,-3.8008,-3.6445,-3.5703,-3.4942,-3.4029,-3.3712,-3.3534,-3.3495,-3.3485,-3.3339,-3.2987,-3.343,-3.3449,-3.2987,-3.343,-3.3615,-3.3493,-3.3724,-3.3834,-3.3901,-3.453,-3.4966,-2.9799,-3.056,-3.1568,-3.545,-3.8258,-4.0438,-4.1873,-4.4635,-4.6691,-4.6011,-4.6471,-4.6801,-4.6067,-4.6264,-4.68,-4.7625,-4.9069,-5.0383,-5.1223,-5.1689,-5.1933,-5.1914,-5.1202,-5.1068,0.0,-5.2029,-5.2722,-5.4414,-5.453,-5.4876,-5.5665,-5.5703,-5.5703,-5.5703,-5.5703,-5.5703,-5.5703,-5.4934,-5.4914,-5.5645,-5.4876,-5.4895,-5.5568,-5.3933,-5.2299,-5.0741,-5.0702,-5.0337,-4.9683,-4.8854,-4.8125,-4.7461,-4.6621,-4.6308,-4.6308,-4.6308,-4.6211,-4.6094,-4.6093,-4.6015,-4.5911,-4.5889,-4.5892,-4.5892,-4.5911,-4.5988,-4.6084,-4.6103,-4.6201,-4.6308,-4.6308,-4.6308,-4.6308,-4.6308,-4.6308,-4.6308,-4.6308,-4.6289,-4.6269,-4.6269,-4.5566,-4.4961,-4.4961,-4.4238,-4.3379,-4.2539,-4.2324,-4.1699,-4.0078,-3.9121,-3.8262,-3.7344,-3.7187,-3.6777,-3.5898,-3.4983,-3.4464,-3.4464,-3.4466,-3.4084,-3.3231,-3.4757,-3.4853,-3.3231,-3.4795,-3.5232,-3.4462,-3.5241,-3.5619,-3.5619,-3.5658,-3.6131,-2.987,-3.2345,-3.5178,-3.7945,-4.0271,-4.2357,-4.4253,-4.5535,-4.6232,-4.5957,-4.4837,-4.3681,-4.2873,-4.2824,-4.3162,-4.3974,-4.6589,-4.887,-4.9957,-5.1415,-5.1622,-4.9625,-5.0164,0.0,0.0,0.0,0.0,-5.4337,-5.3953,-5.4241,-5.5626,-5.5703,-5.5703,-5.5703,-5.5703,-5.5434,-5.4914,-5.4645,-5.4357,-5.403,-5.3183,-5.3222,-5.3972,-5.2299,-5.151,-5.1471,-5.0933,-5.0298,-4.9624,-4.8827,-4.8095,-4.7395,-4.6599,-4.6308,-4.6308,-4.6308,-4.6269,-4.623,-4.623,-4.6148,-4.603,-4.603,-4.5966,-4.5925,-4.5995,-4.6065,-4.6105,-4.6197,-4.6267,-4.6308,-4.6308,-4.6308,-4.6308,-4.6308,-4.6308,-4.6308,-4.6308,-4.6308,-4.6308,-4.6308,-4.6055,-4.5859,-4.5859,-4.5137,-4.4277,-4.3398,-4.2324,-4.1406,-4.084,-4.0,-3.9355,-3.9062,-3.8496,-3.7773,-3.6894,-3.6537,-3.6099,-3.5474,-3.5431,-3.526,-3.4872,-3.5406,-3.5426,-3.4872,-3.5406,-3.5609,-3.5424,-3.5712,-3.6148,-3.6762,-3.6762,-3.7223,-3.2841,-3.554,-3.8302,-4.0949,-4.2829,-4.4315,-4.559,-4.5902,-4.5571,-4.4415,-4.2791,-4.1125,-3.9743,-3.9485,-3.9946,-4.1328,-4.3806,-4.6321,-4.8551,-5.0001,-5.0431,-4.9367,-4.9836,-5.0029,0.0,0.0,0.0,-5.3837,-5.3818,-5.426,-5.5626,-5.5703,-5.5722,-5.5761,-5.5722,-5.5338,-5.4568,-5.4222,-5.3606,-5.2741,-5.2491,-5.2491,-5.2702,-5.1625,-5.1241,-5.1452,-5.0971,-5.0337,-4.9624,-4.889,-4.8315,-4.7824,-4.6739,-4.6484,-4.6718,-4.6357,-4.6222,-4.6234,-4.6284,-4.623,-4.6172,-4.6172,-4.6117,-4.606,-4.6153,-4.6177,-4.6192,-4.6278,-4.6308,-4.6308,-4.6308,-4.6308,-4.6308,-4.6308,-4.6308,-4.6308,-4.6308,-4.6308,-4.6308,-4.6308,-4.6308,-4.6308,-4.6308,-4.5586,-4.4805,-4.4258,-4.2988,-4.209,-4.209,-4.1328,-4.0684,-4.0391,-3.957,-3.8594,-3.7402,-3.7305,-3.6914,-3.5996,-3.5937,-3.6049,-3.6259,-3.6274,-3.6274,-3.6274,-3.6586,-3.6624,-3.6395,-3.6714,-3.7169,-3.7754,-3.7754,-3.8235,-3.8267,-3.9832,-4.0828,-4.4331,-4.5753,-4.62,-4.5956,-4.5773,-4.4799,-4.1625,-4.0369,-3.9157,-3.6861,0.0,-3.7336,-3.9704,-4.1138,-4.333,-4.7234,-4.7842,-4.8753,0.0,0.0,0.0,0.0,0.0,0.0,-5.3222,0.0,-5.4799,-5.5645,-5.5742,-5.5799,-5.5895,-5.5745,-5.5341,-5.4647,-5.3606,-5.2683,-5.1875,-5.2702,-5.2645,-5.1856,-5.1856,-5.1433,-5.0721,-5.0856,-5.0491,-4.976,-4.901,-4.8751,-4.8652,-4.6953,-4.6816,-4.7418,-4.6448,-4.6103,-4.6124,-4.6236,-4.6288,-4.6289,-4.6289,-4.6289,-4.6289,-4.6289,-4.6289,-4.6289,-4.6289,-4.6289,-4.6308,-4.6308,-4.6308,-4.6308,-4.6308,-4.6308,-4.6308,-4.6308,-4.6308,-4.6308,-4.6308,-4.6308,-4.6308,-4.6308,-4.5605,-4.5078,-4.5078,-4.4355,-4.3808,-4.3711,-4.2988,-4.2168,-4.1348,-4.0527,-3.9316,-3.7578,-3.7422,-3.7051,-3.6191,-3.6133,-3.6504,-3.7324,-3.7363,-3.7363,-3.7363,-3.8184,-3.8184,-3.7363,-3.8203,-3.8613,-3.8672,-3.8672,-3.9121,-3.9131,-4.1658,-4.4219,-4.6344,-4.6452,-4.5974,-4.5902,-4.4165,-4.1964,-3.996,-3.7161,-3.4873,-3.4258,-3.5202,0.0,-3.8143,-4.2735,0.0,-4.8356,-5.0703,0.0,-5.1389,-5.1591,-5.2058,-5.2797,-5.3068,0.0,0.0,-5.4472,-5.4164,-5.5626,-5.6415,-5.653,-5.5915,-5.5385,-5.4707,-5.3891,-5.2395,-5.1472,-5.1144,-5.1375,-5.1318,-5.101,-5.101,-5.0952,-5.0856,-5.0895,-5.0529,-4.9875,-4.9048,-4.839,-4.7812,-4.6738,-4.6445,-4.6597,-4.6235,-4.6103,-4.608,-4.6013,-4.5998,-4.5995,-4.5995,-4.5995,-4.5995,-4.5995,-4.6066,-4.6152,-4.6152,-4.6211,-4.6308,-4.6308,-4.6308,-4.6308,-4.6308,-4.6308,-4.6308,-4.6308,-4.6308,-4.6308,-4.6308,-4.6308,-4.6308,-4.6308,-4.6113,-4.5976,-4.5976,-4.5781,-4.5176,-4.3867,-4.3516,-4.3047,-4.2187,-4.1894,-4.1074,-3.9375,-3.9238,-3.8867,-3.7988,-3.7949,-3.8047,-3.8262,-3.8262,-3.8262,-3.8262,-3.8496,-3.8496,-3.8262,-3.8496,-3.8926,-3.957,-3.957,-4.0039,-4.3066,-4.4949,-4.6579,-4.8065,-4.7417,-4.6067,-4.4635,-4.2535,-4.001,-3.7002,-3.4539,-3.2713,-3.1993,-3.2883,-3.4402,0.0,0.0,0.0,-4.7677,-5.045,-5.2239,0.0,-5.348,0.0,-5.4575,-5.5215,-5.6145,0.0,-5.6242,-5.5684,-5.6242,-5.6857,-5.6828,-5.6048,-5.5301,-5.4103,-5.2478,-5.1544,-5.0879,-5.0418,-5.0795,-5.0952,-5.0875,-5.0471,-5.0356,-5.0414,0.0,-4.9875,-4.8856,-4.88,-4.8321,-4.7558,-4.7051,-4.6834,-4.68,-4.7049,-4.687,-4.6488,-4.6374,-4.6349,-4.6287,-4.6009,-4.5893,-4.5893,-4.5893,-4.5949,-4.6014,-4.6088,-4.6152,-4.623,-4.6289,-4.6308,-4.6308,-4.6308,-4.6308,-4.6308,-4.6308,-4.6308,-4.6308,-4.6308,-4.6308,-4.6308,-4.6308,-4.6308,-4.6308,-4.6308,-4.6308,-4.5957,-4.4961,-4.4512,-4.4082,-4.3594,-4.2851,-4.1875,-4.0586,-4.0117,-3.9531,-3.8652,-3.8594,-3.8769,-3.9141,-3.918,-3.918,-3.918,-3.9551,-3.9551,-3.918,-3.9551,-3.998,-4.0469,-4.0469,-4.0723,-4.7978,-4.8623,-4.8475,-4.9565,-4.8363,-4.614,-4.3036,-4.0917,-3.8338,-3.3873,-3.2562,-3.1787,-3.0328,-3.0652,-3.2203,-3.5423,0.0,-4.1056,-4.6544,-4.901,-5.1118,-5.3647,-5.5239,-5.6293,-5.6671,-5.7033,-5.762,-5.8569,-5.8627,-5.8204,-5.7223,-5.7319,-5.6925,-5.594,-5.5171,-5.3584,-5.1074,-5.1111,-5.0711,-4.9846,-5.0705,-5.1042,-5.0911,-5.0257,-4.9989,-4.999,0.0,0.0,-4.7835,-4.8703,-4.8555,-4.7773,-4.7773,-4.7696,-4.7636,-4.814,-4.7757,-4.6971,-4.6797,-4.674,-4.6624,-4.6065,-4.5853,-4.5853,-4.5853,-4.5873,-4.5905,-4.603,-4.6067,-4.6092,-4.623,-4.6269,-4.6308,-4.6445,-4.6387,-4.6367,-4.6601,-4.6641,-4.6641,-4.6641,-4.6543,-4.6465,-4.6465,-4.6387,-4.6308,-4.6308,-4.6308,-4.6308,-4.6308,-4.5644,-4.5137,-4.5019,-4.3652,-4.2422,-4.1601,-4.0723,-3.9902,-3.9141,-3.9004,-3.9277,-4.0039,-4.0078,-4.0078,-4.0078,-4.0801,-4.082,-4.0078,-4.082,-4.119,-4.1162,-4.1162,-4.1164,-4.9315,-5.0184,-5.0796,-5.1024,-4.8586,-4.5478,-4.3079,-3.9415,-3.5728,-3.3128,-3.1622,-3.0676,-3.0381,-3.1546,-3.357,-3.6691,-3.9534,-4.3034,-4.7887,-4.9787,-5.1687,0.0,-5.5062,-5.6052,-5.8197,-5.8462,0.0,0.0,0.0,-5.9704,-5.8165,-5.83,-5.7179,-5.4462,-5.4232,-5.3255,-5.134,-5.1342,-5.0873,-4.9975,-5.0783,-5.0777,-5.0037,-5.0612,-5.0903,-5.0972,0.0,0.0,-4.9726,-4.99,-4.9453,-4.8672,-4.8672,-4.8596,-4.8394,-4.7673,-4.7232,-4.6894,-4.6105,-4.5817,-4.5797,-4.5682,-4.5643,-4.5643,-4.5643,-4.5738,-4.583,-4.5858,-4.5897,-4.5969,-4.6109,-4.6133,-4.6348,-4.7187,-4.6816,-4.6699,-4.8144,-4.8457,-4.8457,-4.8457,-4.7871,-4.7363,-4.7363,-4.6777,-4.6308,-4.6308,-4.6308,-4.6308,-4.6308,-4.6172,-4.5801,-4.5078,-4.4726,-4.4199,-4.334,-4.2461,-4.1894,-4.1758,-4.1113,-4.082,-4.0976,-4.0976,-4.0976,-4.0976,-4.1113,-4.1133,-4.0976,-4.1133,-4.1139,-4.1029,-4.1029,-4.0983,-5.1001,-5.168,-5.1831,-5.0972,-4.82,-4.4689,-4.0937,-3.7505,-3.4352,-3.173,-3.077,-3.0398,-3.0398,-3.0938,-3.2301,-3.5073,-3.6545,-3.9451,-4.5449,-4.7513,-4.9804,-5.3613,-5.541,-5.6781,-5.8,-5.895,-5.9578,0.0,0.0,-5.9588,-5.8377,-5.7737,-5.6325,-5.3965,-5.3965,-5.2969,-5.0801,-5.1191,-5.0957,-5.0117,-5.0918,-5.1068,-5.0635,-5.0635,-5.066,-5.0675,-5.0675,0.0,-4.9551,-5.0019,-4.9687,-4.8944,-4.9313,-4.9108,-4.8638,-4.9003,-4.8759,-4.8182,-4.7721,-4.7278,-4.6894,-4.6894,-4.6297,-4.5586,-4.5586,-4.5624,-4.5815,-4.6278,-4.6156,-4.599,-4.6523,-4.6396,-4.6348,-4.7266,-4.7578,-4.7871,-4.8711,-4.8906,-4.8906,-4.8906,-4.8555,-4.8125,-4.7676,-4.7246,-4.6816,-4.6367,-4.6308,-4.6308,-4.6308,-4.6308,-4.6133,-4.5723,-4.5273,-4.4824,-4.4414,-4.3574,-4.2871,-4.2422,-4.2031,-4.1641,-4.1211,-4.1191,-4.1191,-4.1191,-4.1191,-4.1191,-4.1191,-4.1191,-4.139,-4.1712,-4.1287,-4.1547,-5.2261,-5.2935,-5.2743,-5.091,-4.7922,-4.4186,-3.9156,-3.6081,-3.3526,-3.0681,-3.0254,-3.0398,-3.0398,-3.0228,-3.0905,-3.3391,-3.3677,-3.5968,-4.2874,-4.5307,-4.806,-5.2631,-5.5674,0.0,-5.7735,-5.9184,0.0,0.0,0.0,0.0,-5.8107,-5.6875,-5.5443,-5.3847,-5.375,-5.2676,-5.0488,-5.1074,-5.0996,-5.0215,-5.1016,-5.1308,-5.1133,-5.0664,-5.0469,-5.0469,-5.0469,0.0,0.0,-5.0141,-4.9996,-4.9433,-5.0015,-4.9741,-4.9142,-5.0233,-5.0087,-4.9375,-4.9183,-4.8663,-4.8105,-4.8105,-4.6971,-4.5663,-4.6028,-4.6009,-4.6028,-4.6778,-4.6509,-4.6219,-4.6968,-4.6735,-4.6537,-4.746,-4.8574,-4.9394,-4.9219,-4.9316,-4.9433,-4.9433,-4.9297,-4.8965,-4.8281,-4.8008,-4.7578,-4.6719,-4.6582,-4.6504,-4.6328,-4.6308,-4.6308,-4.6308,-4.5683,-4.5273,-4.5273,-4.4473,-4.3691,-4.3008,-4.2773,-4.2305,-4.1484,-4.1465,-4.1387,-4.1191,-4.1367,-4.1465,-4.1465,-4.1641,-4.2051,-4.2637,-4.2024,-4.24,-5.2333,-5.3678,-5.4441,-5.1852,-4.8477,-4.4497,-3.9702,-3.6103,-3.3127,-3.0836,-3.0379,-3.0398,-3.0398,-3.0386,-3.12,-3.3749,-3.4486,-3.6844,-4.286,-4.5576,-4.8453,-5.2634,0.0,0.0,-5.8585,-5.9559,0.0,0.0,0.0,0.0,0.0,-5.653,-5.5404,-5.3847,-5.3164,-5.2324,-5.1308,-5.1367,-5.0996,-5.0215,-5.1016,-5.1016,-5.0332,-5.0996,-5.1289,-5.1289,0.0,0.0,0.0,-5.1082,-5.1015,-5.0908,-5.0977,-5.0874,-5.0605,-4.9971,-4.9586,-4.9298,-4.849,-4.8163,-4.8105,-4.8105,-4.6971,-4.5874,-4.7413,-4.7355,-4.6797,-4.6894,-4.6855,-4.6836,-4.6971,-4.6983,-4.721,-4.8326,-4.9902,-5.0976,-5.0234,-5.0644,-5.1172,-5.1172,-5.0586,-5.0058,-4.9961,-4.9297,-4.8476,-4.7617,-4.748,-4.7187,-4.6406,-4.6308,-4.6308,-4.6308,-4.623,-4.6172,-4.6172,-4.5371,-4.4844,-4.4766,-4.4023,-4.3183,-4.2324,-4.2285,-4.1953,-4.1211,-4.1914,-4.2285,-4.2285,-4.3086,-4.3476,-4.3496,-4.3415,-4.34,-5.1739,-5.334,-5.3716,-5.1344,-4.7365,-4.2981,-3.8918,-3.4997,-3.1745,-2.999,-3.0025,-3.0102,-2.9083,-2.8937,-2.9437,-3.0891,-3.0484,-3.1936,-3.7604,-4.0025,-4.3423,-4.9367,-5.2354,0.0,0.0,0.0,0.0,0.0,0.0,0.0,0.0,-5.5107,-5.4774,-5.3722,-5.2958,-5.2207,-5.1406,-5.1406,-5.123,-5.0937,-5.125,-5.123,-5.0937,-5.125,-5.1371,-5.128,0.0,0.0,0.0,-5.1141,-5.1122,-5.108,-5.1003,-5.0962,-5.0856,-5.0433,-5.024,-5.0125,-4.9779,-4.9317,-4.8971,-4.949,-4.849,-4.7221,-4.7894,-4.7875,-4.774,-4.8259,-4.8029,-4.7759,-4.8298,-4.849,-4.8704,-4.9239,-5.0334,-5.1191,-5.0879,-5.1113,-5.1406,-5.1406,-5.1089,-5.0665,-5.0269,-4.9844,-4.9121,-4.7793,-4.7598,-4.7285,-4.6406,-4.6308,-4.6308,-4.6308,-4.6308,-4.6308,-4.6308,-4.5976,-4.5566,-4.5039,-4.4605,-4.3995,-4.3169,-4.3111,-4.2969,-4.2656,-4.3008,-4.3183,-4.3183,-4.3535,-4.3965,-4.4433,-4.3896,-4.4197,-4.9414,-5.153,-5.2403,-5.0345,-4.6236,-4.1737,-3.8169,-3.4315,-3.0958,-2.9171,-2.9486,-2.964,-2.8214,-2.7995,-2.8247,-2.9012,-2.8382,-2.957,-3.4702,-3.7107,-4.0573,-4.6639,0.0,-5.2675,0.0,0.0,0.0,0.0,0.0,0.0,0.0,-5.3626,-5.3647,-5.3164,-5.2454,-5.1838,-5.131,-5.1326,-5.1348,-5.1348,-5.1387,-5.1406,-5.1406,-5.1406,-5.1323,-5.1203,0.0,0.0,0.0,-5.1024,-5.1029,-5.0972,-5.0895,-5.0856,-5.0837,-5.0721,-5.0702,-5.0702,-5.0702,-5.0298,-4.9894,-5.0491,-4.9875,-4.8875,-4.8875,-4.8682,-4.8606,-4.9221,-4.8952,-4.8625,-4.924,-4.9702,-5.0007,-5.0098,-5.0665,-5.1177,-5.1167,-5.1232,-5.131,-5.131,-5.1249,-5.1034,-5.0543,-5.0395,-4.9846,-4.8457,-4.803,-4.7545,-4.6683,-4.6332,-4.6175,-4.6175,-4.6175,-4.6206,-4.6231,-4.625,-4.5952,-4.5316,-4.5181,-4.4758,-4.3955,-4.3928,-4.3817,-4.3594,-4.3887,-4.4043,-4.4082,-4.4336,-4.4785,-4.5371,-4.4746,-4.5073,-4.4902,-4.7988,-5.0793,-4.8963,-4.5287,-4.1207,-3.7778,-3.4364,-3.1181,-2.8629,-2.8744,-2.9066,-2.8245,-2.8041,-2.8251,-2.9074,-2.9863,-3.184,-3.6089,-3.8873,-4.1758,0.0,0.0,-5.1395,0.0,0.0,0.0,0.0,0.0,0.0,0.0,-5.2395,-5.1991,-5.2106,-5.1457,-5.1113,-5.1094,-5.1171,-5.1191,-5.1191,-5.1348,-5.1406,-5.1406,-5.1406,-5.1323,0.0,0.0,0.0,0.0,-5.0914,-5.0837,-5.0702,-5.0702,-5.0702,-5.0702,-5.0702,-5.0702,-5.0702,-5.0702,-5.0683,-5.0683,-5.0702,-5.0683,-5.0664,-5.0664,-5.0067,-4.9394,-4.9394,-4.9394,-4.9394,-4.9394,-5.0125,-5.0895,-5.0895,-5.0991,-5.1099,-5.11,-5.1094,-5.1094,-5.1094,-5.1094,-5.1093,-5.1085,-5.1087,-5.0782,-4.9917,-4.9041,-4.8174,-4.7298,-4.6433,-4.5907,-4.5907,-4.5907,-4.5956,-4.6078,-4.6102,-4.6047,-4.5909,-4.5899,-4.5526,-4.472,-4.4684,-4.4354,-4.3613,-4.4375,-4.4844,-4.498,-4.5859,-4.6289,-4.6289,-4.6289,-4.615,-4.1699,-4.332,-4.4218,-4.3534,-4.0604,-3.7247,-3.4865,-3.2618,-3.0288,-2.7737,-2.8322,-2.8694,-2.6701,-2.6794,-2.7642,-2.91,-3.0046,-3.165,-3.4635,0.0,0.0,-4.5327,-5.0893,0.0,0.0,0.0,0.0,0.0,0.0,0.0,0.0,-5.1356,-5.1491,-5.2087,-5.1352,-5.1013,-5.109,-5.117,-5.1209,-5.1191,-5.1348,-5.1406,-5.1406,-5.1406,0.0,0.0,0.0,0.0,0.0,-5.0875,-5.0875,-5.0856,-5.0856,-5.0856,-5.0837,-5.0721,-5.0702,-5.0702,-5.0702,-5.0702,-5.0702,-5.0702,-5.0702,-5.0702,-5.0702,-5.051,-5.0279,-5.0279,-5.0279,-5.0279,-5.0279,-5.051,-5.076,-5.076,-5.0875,-5.0952,-5.096,-5.1032,-5.109,-5.109,-5.1032,-5.0982,-5.1068,-5.1024,-5.0703,-4.9934,-4.9567,-4.9064,-4.8191,-4.7337,-4.6776,-4.6776,-4.6254,-4.591,-4.596,-4.5959,-4.5943,-4.5911,-4.5853,-4.5715,-4.5451,-4.5451,-4.5353,-4.511,-4.5398,-4.5565,-4.5624,-4.5897,-4.6033,-4.6033,-4.6033,-4.5968,-3.7891,-3.9473,-4.0195,-4.0117,-3.75,-3.4567,-3.3098,-3.1436,-2.9581,-2.7332,-2.7949,-2.8301,-2.6415,-2.619,-2.6862,-2.8666,-2.965,-3.1251,-3.4342,0.0,0.0,-4.5806,0.0,0.0,0.0,0.0,0.0,0.0,0.0,0.0,0.0,0.0,-5.1222,-5.1702,-5.1203,-5.0952,-5.1029,-5.1145,-5.1192,-5.1199,-5.1335,-5.1406,-5.1406,-5.1406,0.0,0.0,0.0,0.0,0.0,-5.0875,-5.0875,-5.0837,-5.0837,-5.0837,-5.0818,-5.0721,-5.0702,-5.0702,-5.0702,-5.0702,-5.0702,-5.0702,-5.0702,-5.0702,-5.0702,-5.0702,-5.0702,-5.0702,-5.0702,-5.0702,-5.0702,-5.0702,-5.0702,-5.0702,-5.076,-5.0837,-5.0837,-5.0895,-5.0952,-5.0952,-5.0895,-5.0856,-5.0933,-5.0895,-5.0664,-5.0221,-4.9856,-4.9452,-4.8913,-4.8085,-4.7545,-4.7545,-4.6777,-4.6282,-4.628,-4.602,-4.5834,-4.5796,-4.5757,-4.5719,-4.5719,-4.5719,-4.5757,-4.5796,-4.5833,-4.5859,-4.5898,-4.5898,-4.5898,-4.5898,-4.5898,-4.5858,0.0,-3.6191,-3.8045,-3.8045,-3.5604,-3.2988,-3.2109,-3.0703,0.0,-2.7285,-2.7547,-2.7903,-2.7216,-2.6226,-2.6179,-2.8242,-2.9197,-3.112,0.0,-3.8338,0.0,0.0,0.0,0.0,0.0,0.0,0.0,0.0,0.0,0.0,0.0,0.0,-5.1106,-5.1106,-5.0991,-5.0933,-5.0894,-5.1106,-5.1203,-5.1203,-5.1349,-5.1406,-5.1406,-5.1406,0.0,0.0,0.0,0.0,0.0,-5.0895,-5.0837,-5.0721,-5.0721,-5.0721,-5.0721,-5.0702,-5.0702,-5.0702,-5.0702,-5.0702,-5.0702,-5.0702,-5.0702,-5.0702,-5.0702,-5.0702,-5.0702,-5.0702,-5.0702,-5.0702,-5.0702,-5.0741,-5.0779,-5.0779,-5.0779,-5.0798,-5.0856,-5.0779,-5.0721,-5.076,-5.0741,-5.0702,-5.0702,-5.0702,-5.0702,-5.0702,-5.001,-4.949,-4.949,-4.874,-4.8202,-4.8202,-4.7471,-4.699,-4.699,-4.624,-4.5738,-4.5605,-4.5586,-4.5586,-4.5586,-4.5586,-4.5643,-4.5776,-4.5796,-4.5815,-4.5873,-4.5873,-4.5873,-4.5873,-4.5873,-4.5853,-3.1621,0.0,-3.255,-3.255,-3.1903,-3.0891,0.0,-2.9336,-2.8848,-2.6484,-2.6693,-2.7436,-2.7912,-2.7166,-2.7721,-3.1555,-3.28,-3.4529,-3.808,0.0,0.0,0.0,0.0,0.0,0.0,0.0,0.0,0.0,0.0,0.0,0.0,0.0,-5.1155,-5.1101,-5.1114,-5.1097,-5.1042,-5.1153,-5.1203,-5.1203,-5.1349,-5.1406,-5.1406,-5.1406,0.0,0.0,0.0,0.0,-5.0894,-5.0892,-5.0952,-5.101,-5.0895,-5.0933,-5.0991,-5.0779,-5.0702,-5.0702,-5.0702,-5.0702,-5.0702,-5.0702,-5.0702,-5.0702,-5.0702,-5.0702,-5.0702,-5.0702,-5.0702,-5.0702,-5.0702,-5.1164,-5.1625,-5.1625,-5.1625,-5.1798,-5.2472,-5.1606,-5.0875,-5.151,-5.1125,-5.0702,-5.0702,-5.0702,-5.0702,-5.0702,-5.0529,-5.0375,-5.0375,-4.9625,-4.9086,-4.9086,-4.8336,-4.7817,-4.7817,-4.6471,-4.5624,-4.5586,-4.5586,-4.5586,-4.5586,-4.5586,-4.5605,-4.5643,-4.5643,-4.5643,-4.568,-4.568,-4.568,-4.568,-4.568,-4.5643,-3.0898,-3.0806,-3.0698,-3.0698,-3.0346,-2.9691,-2.8487,-2.8862,-2.8887,-2.6738,-2.6973,-2.7705,-2.8217,-2.7796,-2.8572,0.0,-3.404,0.0,0.0,0.0,0.0,0.0,0.0,0.0,0.0,0.0,0.0,0.0,0.0,0.0,0.0,0.0,-5.1288,-5.1249,-5.1277,-5.1236,-5.115,-5.1241,-5.1297,-5.1277,-5.1363,-5.1406,-5.1406,-5.1406,0.0,0.0,0.0,0.0,-5.1048,-5.1047,-5.1029,-5.101,-5.0926,-5.0908,-5.0914,-5.0741,-5.0702,-5.0702,-5.0702,-5.0702,-5.0702,-5.0702,-5.0702,-5.0702,-5.0702,-5.0702,-5.0702,-5.0702,-5.0702,-5.0702,-5.0702,-5.1298,-5.1914,-5.1914,-5.2222,-5.2645,-5.3106,-5.2491,-5.1972,-5.2414,-5.1818,-5.1241,-5.1241,-5.0933,-5.0702,-5.0702,-5.0702,-5.0702,-5.0702,-5.0279,-4.999,-4.999,-4.9221,-4.8702,-4.8702,-4.7163,-4.6201,-4.6201,-4.6201,-4.6009,-4.5605,-4.5586,-4.5586,-4.5586,-4.5586,-4.5586,-4.5586,-4.5586,-4.5586,-4.5586,-4.5586,-4.5586,-3.0898,-3.0896,-3.0877,-3.0722,-3.009,-2.9306,-2.8572,-2.8961,-2.9054,-2.7519,-2.7734,-2.8355,-2.8807,-2.8787,0.0,0.0,0.0,0.0,0.0,0.0,0.0,0.0,0.0,0.0,0.0,0.0,0.0,0.0,0.0,0.0,0.0,0.0,0.0,-5.1409,-5.1405,-5.1341,-5.1225,-5.1341,-5.1406,-5.1406,-5.1406,-5.1406,-5.1406,-5.1406,-5.1406,0.0,0.0,0.0,-5.1206,-5.1196,-5.1086,-5.0933,-5.0921,-5.0839,-5.076,-5.0721,-5.0702,-5.0702,-5.0702,-5.0702,-5.0702,-5.0702,-5.0702,-5.0702,-5.0702,-5.0702,-5.0702,-5.0702,-5.0702,-5.0702,-5.0702,-5.1395,-5.2068,-5.1933,-5.2683,-5.3395,-5.3395,-5.3299,-5.3203,-5.3203,-5.251,-5.1875,-5.1741,-5.1144,-5.0741,-5.0856,-5.0779,-5.0741,-5.0856,-5.0779,-5.0702,-5.0702,-5.0029,-4.9606,-4.9606,-4.8298,-4.7432,-4.7298,-4.6932,-4.6374,-4.5624,-4.5586,-4.5586,-4.5586,-4.5586,-4.5586,-4.5586,-4.5586,-4.5586,-4.5586,-4.5586,-4.5586,-3.0898,-3.1345,-3.162,-3.0887,-3.0544,-3.0206,-2.9471,-2.9404,-2.9237,-2.8294,-2.8203,-2.8956,0.0,-3.146,-3.2453,0.0,0.0,0.0,0.0,0.0,0.0,0.0,0.0,0.0,0.0,0.0,0.0,0.0,0.0,0.0,0.0,0.0,0.0,-5.1402,-5.1394,-5.1389,-5.1369,-5.1385,-5.1406,-5.1406,-5.1406,-5.1406,-5.1406,-5.1406,-5.1406,0.0,0.0,-5.1227,-5.1206,-5.1141,-5.1136,-5.1126,-5.0971,-5.0952,-5.101,-5.0779,-5.0702,-5.0702,-5.0702,-5.0702,-5.0702,-5.0702,-5.0702,-5.0702,-5.0702,-5.0702,-5.0702,-5.0702,-5.0702,-5.0702,-5.0702,-5.1837,-5.2818,-5.2087,-5.3126,-5.4299,-5.4299,-5.3722,-5.3203,-5.3203,-5.251,-5.1683,-5.0991,-5.0779,-5.0933,-5.1606,-5.1144,-5.0952,-5.1625,-5.1125,-5.0702,-5.0702,-5.0567,-5.0491,-5.0491,-5.026,-4.9798,-4.9067,-4.699,-4.574,-4.5605,-4.5586,-4.5586,-4.5586,-4.5586,-4.5586,-4.5586,-4.5586,-4.5586,-4.5586,-4.5586,-4.5586,-3.0191,-3.0742,-3.1325,-3.1475,-3.1753,-3.168,-3.0425,-3.0883,-3.1197,-2.9952,-3.043,-3.1424,0.0,0.0,-3.6248,-4.0641,0.0,0.0,0.0,0.0,0.0,0.0,0.0,0.0,0.0,0.0,0.0,0.0,0.0,0.0,0.0,0.0,0.0,0.0,-5.1406,-5.1406,-5.1406,-5.1406,-5.1406,-5.1406,-5.1406,-5.1406,-5.1406,-5.1406,-5.1406,-5.1406,0.0,-5.1308,-5.1308,-5.1268,-5.1245,-5.1189,-5.1073,-5.0993,-5.0972,-5.076,-5.0702,-5.0702,-5.0702,-5.0702,-5.0702,-5.0702,-5.0702,-5.0702,-5.0702,-5.0702,-5.0702,-5.0702,-5.101,-5.1241,-5.0798,-5.1933,-5.3106,-5.2702,-5.3568,-5.4626,-5.5049,-5.4838,-5.4414,-5.3991,-5.3203,-5.2337,-5.1491,-5.0991,-5.0818,-5.1202,-5.1318,-5.1318,-5.126,-5.1318,-5.1183,-5.0741,-5.0702,-5.0702,-5.0702,-5.026,-4.9817,-4.9433,-4.7451,-4.6297,-4.6297,-4.5836,-4.5586,-4.5586,-4.5586,-4.5586,-4.5586,-4.5586,-4.5586,-4.5586,-4.5586,-4.5586,-2.9581,-3.0286,-3.1152,-3.1758,-3.2287,-3.2527,-3.2061,-3.283,-3.3444,-3.2827,-3.3711,0.0,0.0,-3.6599,0.0,0.0,0.0,0.0,0.0,0.0,0.0,0.0,0.0,0.0,0.0,0.0,0.0,0.0,0.0,0.0,0.0,0.0,0.0,0.0,-5.1406,-5.1406,-5.1406,-5.1406,-5.1406,-5.1406,-5.1406,-5.1406,-5.1406,-5.1406,-5.1406,-5.1406,-5.1406,-5.1406,-5.1406,-5.1406,-5.1336,-5.1249,-5.1133,-5.1004,-5.0856,-5.0741,-5.0702,-5.0702,-5.0702,-5.0702,-5.0702,-5.0702,-5.0702,-5.0702,-5.0702,-5.0818,-5.0933,-5.0741,-5.1433,-5.1972,-5.0952,-5.1779,-5.2895,-5.2895,-5.3722,-5.4664,-5.528,-5.5568,-5.5453,-5.4664,-5.3953,-5.3241,-5.2356,-5.1683,-5.1337,-5.1548,-5.1933,-5.2068,-5.1645,-5.1952,-5.1895,-5.1068,-5.0971,-5.0894,-5.0721,-5.0087,-4.9702,-4.9702,-4.8125,-4.7182,-4.7182,-4.6355,-4.5893,-4.5893,-4.5701,-4.5586,-4.5586,-4.5586,-4.5586,-4.5586,-4.5586,-4.5586,-2.9586,-3.0734,-3.1758,-3.1152,-3.1035,-3.1874,-3.492,-3.5095,-3.5252,-3.7578,-3.8144,-3.8223,0.0,-3.9706,0.0,0.0,0.0,0.0,0.0,0.0,0.0,0.0,0.0,0.0,0.0,0.0,0.0,0.0,0.0,0.0,0.0,0.0,0.0,0.0,0.0,-5.1406,-5.1406,-5.1406,-5.1406,-5.1406,-5.1406,-5.1406,-5.1406,-5.1406,-5.1406,-5.1406,-5.1406,-5.1406,-5.1406,-5.1406,-5.1394,-5.1366,-5.1172,-5.0945,-5.0702,-5.0702,-5.0702,-5.0702,-5.0702,-5.0702,-5.0702,-5.0702,-5.0702,-5.0702,-5.0702,-5.1221,-5.1664,-5.0914,-5.1856,-5.2741,-5.1106,-5.1337,-5.1991,-5.1991,-5.328,-5.4511,-5.4568,-5.5164,-5.5453,-5.4664,-5.4453,-5.4126,-5.326,-5.3068,-5.3299,-5.4107,-5.3587,-5.3376,-5.4126,-5.3568,-5.2779,-5.1914,-5.1818,-5.151,-5.076,-5.0625,-5.0606,-5.0606,-4.8971,-4.8009,-4.8009,-4.724,-4.6817,-4.6817,-4.6009,-4.5586,-4.5586,-4.5586,-4.5586,-4.5586,-4.5586,-4.5586,-2.9571,-3.0762,-3.1948,-3.1753,-3.207,-3.3086,-3.5469,-3.6582,-3.7715,-3.9785,-4.1484,-4.2754,0.0,0.0,0.0,0.0,0.0,0.0,0.0,0.0,0.0,0.0,0.0,0.0,0.0,0.0,0.0,0.0,0.0,0.0,0.0,0.0,0.0,0.0,0.0,-5.1406,-5.1406,-5.1406,-5.1406,-5.1406,-5.1406,-5.1133,-5.0664,-5.1172,-5.1406,-5.1406,-5.1406,-5.1406,-5.1406,-5.1406,-5.1402,-5.1386,-5.1173,-5.0984,-5.0818,-5.0721,-5.0702,-5.0702,-5.0702,-5.0702,-5.0702,-5.0702,-5.0702,-5.0702,-5.0702,-5.0914,-5.1087,-5.0779,-5.1164,-5.1606,-5.1491,-5.2068,-5.2856,-5.3395,-5.401,-5.4645,-5.5145,-5.5491,-5.5453,-5.4664,-5.4491,-5.4222,-5.3356,-5.3203,-5.3318,-5.3645,-5.3876,-5.3933,-5.3722,-5.3876,-5.3472,-5.2049,-5.1452,-5.1221,-5.1433,-5.0991,-5.0914,-5.1414,-4.9856,-4.8913,-4.8913,-4.7625,-4.6913,-4.6913,-4.6028,-4.5586,-4.5586,-4.5586,-4.5586,-4.5586,-4.5586,-4.5586,-2.9162,-3.0192,-3.1294,-3.1686,-3.2812,-3.4414,-3.6719,-3.8379,-4.0137,-4.2695,-4.4394,-4.5762,-4.6914,0.0,0.0,0.0,0.0,0.0,0.0,0.0,0.0,0.0,0.0,0.0,0.0,0.0,0.0,0.0,0.0,0.0,0.0,0.0,0.0,0.0,0.0,0.0,-5.1016,-5.0742,-5.0469,-5.0195,-5.0488,-5.0605,-5.0605,-5.1152,-5.1406,-5.1387,-5.1133,-5.1172,-5.1387,-5.1133,-5.1152,-5.1326,-5.1191,-5.1045,-5.0952,-5.0875,-5.0837,-5.0837,-5.0779,-5.0779,-5.0837,-5.0779,-5.0779,-5.0837,-5.0779,-5.0952,-5.1087,-5.0779,-5.0875,-5.1202,-5.176,-5.2337,-5.2953,-5.3549,-5.4107,-5.4645,-5.5203,-5.5511,-5.553,-5.4991,-5.4876,-5.4684,-5.4087,-5.3991,-5.3991,-5.3991,-5.4491,-5.4664,-5.4068,-5.4511,-5.4222,-5.2491,-5.1818,-5.1491,-5.1529,-5.1241,-5.1202,-5.151,-5.0433,-4.9798,-4.9798,-4.8432,-4.7567,-4.7278,-4.6432,-4.5874,-4.5586,-4.5586,-4.5586,-4.5605,-4.5874,-4.6009,-2.8301,-2.8907,-2.9738,-3.0691,-3.2832,-3.5644,-3.9121,-4.0586,-4.2441,-4.6738,-4.6933,-4.6855,-4.8594,-4.748,0.0,0.0,0.0,0.0,0.0,0.0,0.0,0.0,0.0,0.0,0.0,0.0,0.0,0.0,0.0,0.0,0.0,0.0,0.0,0.0,0.0,0.0,-5.0195,-4.9336,-4.8476,-4.7617,-4.8496,-4.9766,-5.1367,-5.1367,-5.1387,-5.1328,-5.0527,-5.0644,-5.1308,-5.0527,-5.0586,-5.1191,-5.1191,-5.1145,-5.1106,-5.1087,-5.1087,-5.1068,-5.0952,-5.0991,-5.1087,-5.0952,-5.0991,-5.1068,-5.0933,-5.1472,-5.1896,-5.0972,-5.1279,-5.1895,-5.1895,-5.1895,-5.1914,-5.1933,-5.3241,-5.4491,-5.4511,-5.5145,-5.5703,-5.5703,-5.5703,-5.5703,-5.5703,-5.5703,-5.5703,-5.5703,-5.5703,-5.5703,-5.5703,-5.5684,-5.5049,-5.3376,-5.3203,-5.2529,-5.0856,-5.1433,-5.1568,-5.076,-5.0702,-5.0702,-5.0702,-4.9856,-4.899,-4.8125,-4.7317,-4.649,-4.5605,-4.5605,-4.5605,-4.5624,-4.6509,-4.6913,-3.0117,-3.0751,0.0,-3.244,0.0,0.0,-4.0156,-4.1933,-4.4199,-4.8535,-4.873,-4.8476,-4.9609,0.0,0.0,0.0,0.0,0.0,0.0,0.0,0.0,0.0,0.0,0.0,0.0,0.0,0.0,0.0,0.0,0.0,0.0,0.0,0.0,0.0,0.0,0.0,-4.9297,-4.9023,-4.8769,-4.8516,-4.8789,-4.8848,-4.875,-4.9355,-4.9648,-4.9629,-4.9394,-4.9414,-4.9629,-4.9375,-5.0098,-5.1289,-5.0605,-5.0691,-5.1167,-5.112,-5.1095,-5.1095,-5.1056,-5.1061,-5.1086,-5.1053,-5.1076,-5.1095,-5.1056,-5.1141,-5.1203,-5.0933,-5.0933,-5.1048,-5.1048,-5.1491,-5.2222,-5.3433,-5.4126,-5.4664,-5.5222,-5.553,-5.5703,-5.5703,-5.5703,-5.5703,-5.5703,-5.5703,-5.5703,-5.5703,-5.5703,-5.5703,-5.5703,-5.5203,-5.4434,-5.3318,-5.2664,-5.2337,-5.2452,-5.1606,-5.1452,-5.2395,-5.1337,-5.0702,-5.0702,-4.9856,-4.9279,-4.9029,-4.8182,-4.7625,-4.7355,-4.7355,-4.7355,-4.7355,-4.7625,-4.774,-2.9863,-3.0508,0.0,-3.3027,-3.5898,-3.9199,-4.248,0.0,0.0,0.0,-5.0254,-4.9785,-5.0976,0.0,0.0,0.0,0.0,0.0,0.0,0.0,0.0,0.0,0.0,0.0,0.0,0.0,0.0,0.0,0.0,0.0,0.0,0.0,0.0,0.0,0.0,0.0,-4.8379,-4.8047,-4.7871,-4.7871,-4.7871,-4.7598,-4.7129,-4.834,-4.8906,-4.8906,-4.8906,-4.8691,-4.8418,-4.8769,-4.9707,-5.082,-4.9922,-5.0078,-5.0761,-5.0367,-5.0452,-5.0731,-5.0686,-5.0906,-5.121,-5.1166,-5.1181,-5.1206,-5.1122,-5.1049,-5.0951,-5.0837,-5.076,-5.0702,-5.0702,-5.1048,-5.1683,-5.2741,-5.3491,-5.4126,-5.4607,-5.4972,-5.5318,-5.5645,-5.5703,-5.5703,-5.5703,-5.5703,-5.5703,-5.5703,-5.5703,-5.5703,-5.5703,-5.528,-5.4645,-5.3818,-5.353,-5.3356,-5.3222,-5.2587,-5.2356,-5.2664,-5.1741,-5.1029,-5.0702,-5.0202,-4.974,-4.9413,-4.8875,-4.8452,-4.8105,-4.8105,-4.8105,-4.8105,-4.8471,-4.8625,-2.8516,-2.9121,-3.0351,-3.2988,-3.6973,0.0,-4.5469,-4.7637,-4.9453,-5.1855,0.0,-5.0683,0.0,0.0,0.0,0.0,0.0,0.0,0.0,0.0,0.0,0.0,0.0,0.0,0.0,0.0,0.0,0.0,0.0,0.0,0.0,0.0,0.0,0.0,0.0,0.0,-4.746,-4.6679,-4.6289,0.0,-4.6289,-4.6308,-4.6348,-4.7949,-4.8652,-4.8652,-4.8652,-4.8262,-4.7656,-4.8356,-4.9213,-4.9976,-4.91,-4.9276,-4.996,-4.9159,-4.9354,-5.0038,-4.9901,-5.0468,-5.1232,-5.1102,-5.1219,-5.134,-5.1156,-5.1093,-5.1035,-5.0794,-5.0702,-5.0702,-5.0702,-5.0702,-5.0702,-5.0702,-5.1914,-5.3126,-5.328,-5.3933,-5.4741,-5.553,-5.5703,-5.5703,-5.5703,-5.5703,-5.5703,-5.5703,-5.5703,-5.5703,-5.5703,-5.5703,-5.5395,-5.4587,-5.5145,-5.4972,-5.3453,-5.3895,-5.3626,-5.2125,-5.1895,-5.1471,-5.0721,-5.0702,-5.0317,-4.9529,-4.951,-4.9125,-4.8336,-4.8336,-4.8336,-4.8355,-4.9144,-4.951,-3.0156,-3.0488,0.0,0.0,-3.9199,-4.3652,-4.6641,-4.7617,-4.8223,-4.9453,-4.9961,0.0,0.0,0.0,0.0,0.0,0.0,0.0,0.0,0.0,0.0,0.0,0.0,0.0,0.0,0.0,0.0,0.0,0.0,0.0,0.0,0.0,0.0,0.0,0.0,-4.6376,-4.6261,-4.6297,-4.625,0.0,-4.625,-4.6308,-4.6308,-4.6699,-4.6855,-4.6855,-4.6855,-4.7148,-4.7557,-4.6951,-4.7616,-4.8916,-4.794,-4.81,-4.8847,-4.8665,-4.8704,-4.8867,-4.8828,-4.9398,-5.0135,-5.0118,-5.0578,-5.1156,-5.1113,-5.1017,-5.0928,-5.0875,-5.0779,-5.0702,-5.0702,-5.0702,-5.0702,-5.0702,-5.1452,-5.2549,-5.3914,-5.4376,-5.4741,-5.553,-5.5703,-5.5703,-5.5703,-5.5703,-5.5703,-5.5703,-5.5703,-5.5703,-5.5703,-5.5703,-5.5395,-5.4587,-5.4645,-5.4607,-5.4241,-5.3145,-5.2587,-5.2895,-5.1683,-5.0875,-5.0702,-5.0702,-5.0606,-5.0414,-5.0414,-5.0317,-5.0144,-5.0144,-5.0144,-5.0144,-5.0317,-5.0414,-3.0156,0.0,0.0,-3.6172,0.0,-4.3652,-4.5859,-4.668,-4.7226,-4.8105,0.0,0.0,0.0,0.0,0.0,0.0,0.0,0.0,0.0,0.0,0.0,0.0,0.0,0.0,0.0,0.0,0.0,0.0,0.0,0.0,0.0,0.0,0.0,0.0,-4.6011,-4.5988,-4.6016,-4.6124,-4.6201,-4.6191,-4.6269,-4.6308,-4.6308,-4.6308,-4.6308,-4.6308,-4.6308,-4.6562,-4.6932,-4.6338,-4.6889,-4.7981,-4.6975,-4.7114,-4.7844,-4.7404,-4.7521,-4.7882,-4.7882,-4.8451,-4.9251,-4.965,-5.0114,-5.054,-5.0903,-5.096,-5.0798,-5.0317,-5.0414,-5.0587,-5.0183,-5.0375,-5.0702,-5.0702,-5.101,-5.1683,-5.2991,-5.3587,-5.4126,-5.4953,-5.5434,-5.5703,-5.5703,-5.5703,-5.5703,-5.5703,-5.5703,-5.5703,-5.5703,-5.5703,-5.553,-5.5126,-5.5068,-5.5068,-5.5068,-5.4241,-5.3568,-5.3222,-5.2375,-5.1529,-5.0721,-5.0702,-5.0702,-5.0702,-5.0702,-5.0702,-5.0702,-5.0702,-5.0702,-5.0702,-5.0702,-5.0702,-2.9785,0.0,-3.2461,-3.7207,-4.0195,0.0,-4.416,-4.5332,-4.6289,0.0,0.0,0.0,0.0,0.0,0.0,0.0,0.0,0.0,0.0,0.0,0.0,0.0,0.0,0.0,0.0,0.0,0.0,0.0,0.0,0.0,0.0,0.0,-4.6007,-4.5892,-4.5892,-4.595,-4.6046,-4.6103,-4.6183,-4.6267,-4.6287,-4.6308,-4.6308,-4.6308,-4.6308,-4.6308,-4.6308,-4.6308,-4.6287,-4.6127,-4.6497,-4.7062,-4.618,-4.6294,-4.6833,-4.6103,-4.6313,-4.6928,-4.6928,-4.7486,-4.8351,-4.9048,-4.9394,-4.9644,-5.0414,-5.0645,-5.0471,-4.9625,-4.9913,-5.0298,-4.9586,-4.9933,-5.051,-5.0644,-5.0702,-5.0914,-5.1741,-5.2472,-5.328,-5.4299,-5.5145,-5.5703,-5.5703,-5.5703,-5.5703,-5.5703,-5.5703,-5.5703,-5.5703,-5.564,-5.5621,-5.5684,-5.564,-5.5621,-5.5684,-5.5568,-5.4838,-5.3299,-5.3068,-5.2299,-5.076,-5.0702,-5.0702,-5.0702,-5.0837,-5.0914,-5.0914,-5.1048,-5.1048,-5.0914,-5.1048,-5.0971,-3.0527,0.0,-3.3789,0.0,-3.8867,-4.0684,0.0,0.0,-4.5215,0.0,0.0,0.0,0.0,0.0,0.0,0.0,0.0,0.0,0.0,0.0,0.0,0.0,0.0,0.0,0.0,0.0,0.0,0.0,0.0,0.0,0.0,-4.5988,-4.5892,-4.5815,-4.5873,-4.5873,-4.5834,-4.6123,-4.623,-4.6128,-4.6236,-4.6308,-4.6308,-4.6308,-4.6308,-4.6308,-4.6308,-4.6308,-4.6289,-4.6033,-4.6003,-4.6065,-4.5757,-4.5719,-4.5796,-4.568,-4.5719,-4.5815,-4.5815,-4.6392,-4.7124,-4.7259,-4.7759,-4.849,-4.9336,-4.9606,-4.9567,-4.9433,-4.9471,-4.9548,-4.9433,-4.949,-4.976,-5.051,-5.0702,-5.0914,-5.1741,-5.1991,-5.2549,-5.4184,-5.5145,-5.5703,-5.5703,-5.5703,-5.5703,-5.5703,-5.5703,-5.5703,-5.5703,-5.5399,-5.5306,-5.5662,-5.5399,-5.5306,-5.5662,-5.5049,-5.4241,-5.326,-5.2491,-5.1664,-5.0741,-5.0702,-5.0702,-5.0702,-5.1375,-5.1741,-5.1741,-5.251,-5.2491,-5.176,-5.251,-5.2087,-3.0801,-3.1797,-3.3105,0.0,-3.6797,-3.8769,-3.998,0.0,0.0,0.0,0.0,0.0,0.0,0.0,0.0,0.0,0.0,0.0,0.0,0.0,0.0,0.0,0.0,0.0,0.0,0.0,0.0,0.0,0.0,0.0,-4.599,-4.5426,-4.5064,-4.4951,-4.4586,-4.4411,-4.4453,-4.4685,-4.4785,-4.4764,-4.5319,-4.5566,-4.5586,-4.6074,-4.6308,-4.6308,-4.6308,-4.6257,-4.6173,-4.5987,-4.5879,-4.5834,-4.5643,-4.5586,-4.5586,-4.5586,-4.5586,-4.5586,-4.5586,-4.5836,-4.624,-4.674,-4.7144,-4.7586,-4.8413,-4.8663,-4.8586,-4.8125,-4.8317,-4.8663,-4.8663,-4.9029,-4.9625,-5.0491,-5.0702,-5.0798,-5.1144,-5.1587,-5.2433,-5.4164,-5.5145,-5.5703,-5.5703,-5.5703,-5.5703,-5.5703,-5.5703,-5.5703,-5.5703,-5.5554,-5.5512,-5.5684,-5.5535,-5.5512,-5.5684,-5.5376,-5.4818,-5.3972,-5.3568,-5.276,-5.1433,-5.1837,-5.1664,-5.0721,-5.1048,-5.1452,-5.1914,-5.2279,-5.2279,-5.1914,-5.2299,-5.1837,0.0,0.0,-3.207,-3.2891,-3.4707,-3.6601,0.0,0.0,0.0,0.0,0.0,0.0,0.0,0.0,0.0,0.0,0.0,0.0,0.0,0.0,0.0,0.0,0.0,0.0,0.0,0.0,0.0,0.0,0.0,0.0,-4.5285,-4.4564,-4.4122,-4.4028,-4.3528,-4.3308,-4.3458,-4.3562,-4.3653,-4.3711,-4.457,-4.5,-4.5039,-4.5898,-4.6284,-4.6245,-4.6245,-4.6183,-4.61,-4.5938,-4.5847,-4.5796,-4.5643,-4.5586,-4.5586,-4.5586,-4.5586,-4.5586,-4.5586,-4.5586,-4.5701,-4.6355,-4.6567,-4.6721,-4.7548,-4.7798,-4.7682,-4.7067,-4.7336,-4.7798,-4.7798,-4.8432,-4.9298,-5.0164,-5.0529,-5.0702,-5.0702,-5.1337,-5.2356,-5.3876,-5.4838,-5.5453,-5.5665,-5.5703,-5.5703,-5.5703,-5.5703,-5.5703,-5.5703,-5.5599,-5.5577,-5.5703,-5.5599,-5.5599,-5.5684,-5.5599,-5.5113,-5.4076,-5.4124,-5.3407,-5.166,-5.2407,-5.22,-5.0744,-5.102,-5.1525,-5.2241,-5.2664,-5.276,-5.2568,-5.2779,-5.2318,-3.0898,-3.0937,0.0,-3.2051,-3.2949,0.0,0.0,0.0,0.0,0.0,0.0,0.0,0.0,0.0,0.0,0.0,0.0,0.0,0.0,0.0,0.0,0.0,0.0,0.0,0.0,0.0,0.0,0.0,0.0,0.0,-4.3577,-4.3349,-4.3256,-4.3261,-4.3335,-4.3451,-4.3588,-4.3656,-4.369,-4.3711,-4.457,-4.5,-4.5039,-4.5898,-4.6228,-4.6114,-4.6114,-4.6116,-4.6065,-4.589,-4.5794,-4.5796,-4.5643,-4.5586,-4.5586,-4.5586,-4.5586,-4.5586,-4.5586,-4.5586,-4.5605,-4.5643,-4.5663,-4.5817,-4.6701,-4.6971,-4.6951,-4.6913,-4.6932,-4.6971,-4.6971,-4.7567,-4.8394,-4.926,-5.0087,-5.0702,-5.0702,-5.1337,-5.2183,-5.3087,-5.3972,-5.4799,-5.5568,-5.5703,-5.5703,-5.5703,-5.5703,-5.5703,-5.5703,-5.5375,-5.5282,-5.5662,-5.5356,-5.5282,-5.5662,-5.5331,-5.4454,-5.2793,-5.3073,-5.2515,-5.0816,-5.1552,-5.1571,-5.0722,-5.1901,-5.2724,-5.3145,-5.4722,-5.5107,-5.4376,-5.5145,-5.4626,-3.0898,-3.0898,0.0,-3.1289,-3.1992,-3.2793,0.0,0.0,0.0,0.0,0.0,0.0,0.0,0.0,0.0,0.0,0.0,0.0,0.0,0.0,0.0,0.0,0.0,0.0,0.0,0.0,0.0,0.0,0.0,0.0,-4.3307,-4.2736,-4.2428,-4.2431,-4.2063,-4.1912,-4.2071,-4.2002,-4.1956,-4.1985,-4.2767,-4.3469,-4.4121,-4.4907,-4.557,-4.6084,-4.5969,-4.5911,-4.5911,-4.5834,-4.5757,-4.568,-4.5605,-4.5586,-4.5586,-4.5586,-4.5586,-4.5586,-4.5586,-4.5586,-4.5586,-4.5586,-4.5586,-4.5663,-4.597,-4.6067,-4.6067,-4.6067,-4.6067,-4.6182,-4.6759,-4.7509,-4.8471,-4.9894,-5.0471,-5.0702,-5.0702,-5.1337,-5.2164,-5.3029,-5.3895,-5.4761,-5.5549,-5.5703,-5.5703,-5.5703,-5.5703,-5.5703,-5.5703,-5.5577,-5.5535,-5.5684,-5.5331,-5.516,-5.5306,-5.4952,-5.4208,-5.3063,-5.3671,-5.3296,-5.1598,-5.2315,-5.2322,-5.1492,-5.2767,-5.3238,-5.2824,-5.4233,-5.478,-5.4511,-5.4799,-5.4318,-3.0898,-3.0898,-3.0898,0.0,0.0,-3.1836,0.0,0.0,0.0,0.0,0.0,0.0,0.0,0.0,0.0,0.0,0.0,0.0,0.0,0.0,0.0,0.0,0.0,0.0,0.0,0.0,0.0,0.0,0.0,0.0,-4.2345,-4.1582,-4.1293,-4.1659,-4.128,-4.1099,-4.112,-4.104,-4.0966,-4.0927,-4.173,-4.2458,-4.3114,-4.3907,-4.4591,-4.512,-4.4987,-4.5257,-4.5796,-4.5757,-4.568,-4.5586,-4.5586,-4.5586,-4.5586,-4.5586,-4.5586,-4.5586,-4.5586,-4.5586,-4.5586,-4.5586,-4.5586,-4.5586,-4.5586,-4.5586,-4.5586,-4.5586,-4.5586,-4.572,-4.6317,-4.7278,-4.8548,-5.0279,-5.0702,-5.0702,-5.0702,-5.1125,-5.1837,-5.2991,-5.3664,-5.4414,-5.5511,-5.5703,-5.5703,-5.5703,-5.5703,-5.5703,-5.5703,-5.5703,-5.5703,-5.5703,-5.5331,-5.5088,-5.5088,-5.4609,-5.3879,-5.3067,-5.3668,-5.3449,-5.2083,-5.2776,-5.2797,-5.194,-5.3343,-5.3669,-5.2821,-5.4219,-5.4895,-5.4895,-5.4895,-5.4299,0.0,0.0,0.0,0.0,0.0,0.0,0.0,0.0,0.0,0.0,0.0,0.0,0.0,0.0,0.0,0.0,0.0,0.0,0.0,0.0,0.0,0.0,0.0,0.0,0.0,0.0,0.0,0.0,0.0,-3.9865,-4.06,-3.985,-3.9884,-4.0935,-4.112,-4.113,-4.0962,-4.0966,-4.0927,-4.0812,-4.1651,-4.2056,-4.2129,-4.2966,-4.3303,-4.3195,-4.3195,-4.4157,-4.5719,-4.5566,-4.5528,-4.5528,-4.5547,-4.5547,-4.5547,-4.5586,-4.5586,-4.5586,-4.5586,-4.5586,-4.5586,-4.5586,-4.5586,-4.5586,-4.5586,-4.5586,-4.5586,-4.5586,-4.5586,-4.5605,-4.5624,-4.6855,-4.8529,-5.024,-5.0664,-5.0702,-5.0702,-5.0702,-5.1202,-5.2876,-5.3222,-5.376,-5.5415,-5.5703,-5.5703,-5.5703,-5.5703,-5.5703,-5.5703,-5.5703,-5.5703,-5.5703,-5.5331,-5.5088,-5.5088,-5.4317,-5.346,-5.2658,-5.3001,-5.2839,-5.2013,-5.2747,-5.2803,-5.2073,-5.3655,-5.4082,-5.3263,-5.491,-5.5703,-5.5703,-5.5703,-5.4838,-3.0898,0.0,0.0,0.0,0.0,0.0,0.0,0.0,0.0,0.0,0.0,0.0,0.0,0.0,0.0,0.0,0.0,0.0,0.0,0.0,0.0,0.0,0.0,0.0,0.0,0.0,0.0,0.0,-3.8638,-3.8715,-3.8815,-3.9335,-3.9797,-4.0179,-4.0853,-4.0833,-4.0065,-4.06,-4.0812,-4.0735,-4.087,-4.1328,-4.2017,-4.2184,-4.2594,-4.3195,-4.314,-4.3393,-4.3835,-4.3816,-4.3797,-4.3855,-4.4432,-4.4662,-4.4739,-4.5355,-4.5586,-4.5586,-4.5586,-4.5586,-4.5586,-4.5586,-4.5586,-4.5586,-4.5586,-4.5586,-4.5586,-4.5586,-4.5586,-4.574,-4.6374,-4.7317,-4.8375,-4.949,-5.024,-5.0702,-5.0702,-5.0702,-5.1202,-5.2876,-5.3703,-5.4472,-5.5511,-5.5703,-5.5703,-5.5703,-5.5703,-5.5703,-5.5703,-5.5703,-5.5703,-5.5703,-5.5331,-5.5088,-5.5088,-5.4591,-5.383,-5.2658,-5.3274,-5.3135,-5.2073,-5.2197,-5.2659,-5.3291,-5.3455,-5.3883,-5.4571,-5.5331,-5.5703,-5.5703,-5.5703,-5.5453,-3.1523,-3.1699,-3.1855,-3.1523,0.0,0.0,-3.0976,-3.1934,0.0,0.0,0.0,0.0,0.0,0.0,0.0,0.0,0.0,0.0,0.0,0.0,0.0,0.0,0.0,0.0,0.0,0.0,0.0,0.0,-3.7406,-3.7353,-3.7714,-3.8646,-3.9381,-3.9882,-4.0391,-4.0504,-4.0152,-4.0598,-4.0735,-4.062,-4.0543,-4.0812,-4.1366,-4.1293,-4.1562,-4.2063,-4.2043,-4.2008,-4.2008,-4.2008,-4.2431,-4.3181,-4.3989,-4.4297,-4.4412,-4.5278,-4.5586,-4.5586,-4.5586,-4.5586,-4.5586,-4.5586,-4.5586,-4.5586,-4.5586,-4.5586,-4.5586,-4.5586,-4.5586,-4.5874,-4.7086,-4.7759,-4.8413,-4.9644,-5.0317,-5.0702,-5.0702,-5.0952,-5.1606,-5.2933,-5.3606,-5.4337,-5.5491,-5.5703,-5.5703,-5.5703,-5.5703,-5.5703,-5.5703,-5.5703,-5.5703,-5.5703,-5.5331,-5.5088,-5.5088,-5.4731,-5.4082,-5.3161,-5.3535,-5.342,-5.255,-5.2509,-5.2902,-5.3758,-5.3748,-5.4277,-5.5331,-5.5577,-5.5703,-5.5703,-5.5703,-5.5511,-3.2539,-3.2851,-3.3223,-3.2519,-3.2324,0.0,-3.123,-3.1719,0.0,0.0,0.0,0.0,0.0,0.0,0.0,0.0,0.0,0.0,0.0,0.0,0.0,0.0,0.0,0.0,0.0,0.0,-3.6157,-3.6799,-3.6138,-3.6138,-3.7153,-3.7893,-3.8695,-3.9589,-3.9782,-4.0083,-4.0529,-4.0707,-4.0696,-4.0489,-4.0489,-4.045,-4.0354,-4.045,-4.045,-4.0354,-4.045,-4.0489,-4.0489,-4.0489,-4.1412,-4.2893,-4.3701,-4.4085,-4.4259,-4.5143,-4.5509,-4.5586,-4.5586,-4.5586,-4.5586,-4.5586,-4.5586,-4.5586,-4.5586,-4.5586,-4.5586,-4.5586,-4.5586,-4.5932,-4.7432,-4.7971,-4.849,-5.0029,-5.0548,-5.0702,-5.0702,-5.126,-5.2029,-5.2895,-5.3126,-5.3664,-5.5164,-5.5491,-5.5568,-5.5568,-5.5645,-5.5703,-5.5703,-5.5703,-5.5703,-5.5703,-5.5375,-5.516,-5.516,-5.4809,-5.4355,-5.3924,-5.3851,-5.3624,-5.3206,-5.3206,-5.3422,-5.3888,-5.4387,-5.4979,-5.5703,-5.5703,-5.5703,-5.5703,-5.5703,-5.5318,-3.3203,-3.3281,-3.3359,-3.3203,0.0,0.0,-3.2129,-3.2578,-3.2773,0.0,0.0,0.0,0.0,0.0,0.0,0.0,0.0,0.0,0.0,0.0,0.0,0.0,0.0,0.0,0.0,0.0,-3.5776,-3.588,-3.5766,-3.6145,-3.7145,-3.7399,-3.7604,-3.7793,-3.9066,-3.9428,-3.8793,-4.0076,-4.0658,-4.0489,-4.0489,-4.0162,-3.9546,-4.02,-4.0142,-3.9565,-4.0219,-4.0489,-4.0489,-4.0489,-4.07,-4.1085,-4.195,-4.272,-4.3431,-4.4239,-4.4989,-4.5586,-4.5586,-4.5586,-4.5586,-4.5586,-4.5586,-4.5586,-4.5586,-4.5586,-4.5586,-4.5586,-4.5586,-4.5682,-4.599,-4.7086,-4.8202,-4.8529,-4.9683,-5.0702,-5.0702,-5.0818,-5.1183,-5.1991,-5.2722,-5.3299,-5.3626,-5.426,-5.4722,-5.4722,-5.528,-5.5703,-5.5703,-5.5703,-5.5703,-5.5703,-5.564,-5.5577,-5.5577,-5.5212,-5.479,-5.4387,-5.4013,-5.3624,-5.3206,-5.3206,-5.3563,-5.4373,-5.5088,-5.5535,-5.5703,-5.5703,-5.5703,-5.5703,-5.5703,-5.5607,0.0,0.0,0.0,-3.416,0.0,0.0,0.0,-3.2519,-3.2441,0.0,0.0,0.0,0.0,0.0,0.0,0.0,0.0,0.0,0.0,0.0,0.0,0.0,0.0,0.0,0.0,0.0,-3.5171,-3.5578,-3.562,-3.5903,-3.6523,-3.6992,-3.7253,-3.7254,-3.8419,-3.9025,-3.8961,-3.9667,-4.0235,-4.06,-4.0123,-3.9681,-3.9296,-3.9719,-3.9681,-3.9335,-4.0142,-4.0489,-4.0489,-4.0489,-4.0489,-4.0585,-4.147,-4.2335,-4.3201,-4.3989,-4.4855,-4.5586,-4.5586,-4.5586,-4.5586,-4.5586,-4.5586,-4.5586,-4.5586,-4.5586,-4.5586,-4.5586,-4.5586,-4.5701,-4.6144,-4.7163,-4.8221,-4.8644,-4.974,-5.0702,-5.0702,-5.0702,-5.0818,-5.1221,-5.1645,-5.2222,-5.3068,-5.3914,-5.4491,-5.4491,-5.5184,-5.5703,-5.5703,-5.5703,-5.5703,-5.5703,-5.5703,-5.5621,-5.5423,-5.5212,-5.4819,-5.4187,-5.3941,-5.3624,-5.3206,-5.3381,-5.3888,-5.476,-5.5399,-5.5703,-5.5703,-5.5703,-5.5703,-5.5703,-5.5703,-5.5703,0.0,0.0,0.0,0.0,0.0,-3.4551,0.0,0.0,0.0,0.0,0.0,0.0,0.0,0.0,0.0,0.0,0.0,0.0,0.0,0.0,0.0,0.0,0.0,0.0,0.0,0.0,-3.4584,-3.5276,-3.5507,-3.5678,-3.5851,-3.6716,-3.7214,-3.7226,-3.799,-3.8714,-3.9374,-3.9215,-3.949,-4.0196,-3.9411,-3.895,-3.8815,-3.8969,-3.9046,-3.9104,-3.9912,-4.0354,-4.0489,-4.0489,-4.0508,-4.0604,-4.1277,-4.2181,-4.3181,-4.3835,-4.472,-4.5586,-4.5586,-4.5586,-4.5586,-4.5586,-4.5586,-4.5586,-4.5586,-4.5586,-4.5586,-4.5586,-4.5586,-4.5759,-4.6471,-4.7375,-4.8279,-4.8971,-4.9933,-5.0702,-5.0702,-5.0702,-5.0702,-5.0702,-5.0702,-5.1183,-5.2683,-5.3664,-5.4241,-5.4241,-5.5068,-5.5645,-5.5491,-5.5588,-5.5703,-5.5703,-5.5703,-5.5554,-5.5115,-5.5034,-5.4652,-5.3832,-5.372,-5.3565,-5.3336,-5.3796,-5.4382,-5.5088,-5.5423,-5.5621,-5.5703,-5.5621,-5.5621,-5.5703,-5.5703,-5.5703,0.0,0.0,0.0,0.0,-3.5859,0.0,0.0,0.0,-3.3027,-3.2226,0.0,0.0,0.0,0.0,0.0,0.0,0.0,0.0,0.0,0.0,0.0,0.0,0.0,0.0,0.0,0.0,0.0,-3.4353,-3.5122,-3.563,-3.5719,-3.6664,-3.7226,-3.7297,-3.8016,-3.8444,-3.8541,-3.8346,-3.8303,-3.8377,-3.8238,-3.7738,-3.7026,-3.7796,-3.8142,-3.82,-3.9065,-3.9835,-4.0489,-4.0489,-4.0581,-4.0677,-4.0662,-4.1643,-4.3104,-4.3201,-4.4239,-4.5586,-4.5586,-4.5586,-4.5586,-4.5586,-4.5586,-4.5586,-4.5586,-4.5586,-4.5586,-4.5586,-4.5586,-4.5605,-4.572,-4.6913,-4.8125,-4.8221,-4.949,-5.0702,-5.0702,-5.0702,-5.0702,-5.0702,-5.0702,-5.0991,-5.1895,-5.2779,-5.3356,-5.3356,-5.4684,-5.5434,-5.4722,-5.5261,-5.5703,-5.5703,-5.5703,-5.5554,-5.5115,-5.476,-5.4355,-5.3851,-5.3484,-5.3422,-5.372,-5.4528,-5.5007,-5.5107,-5.5141,-5.5331,-5.5703,-5.5331,-5.5356,-5.5703,-5.5703,-5.5703,0.0,0.0,0.0,0.0,0.0,0.0,-3.4902,0.0,-3.3926,0.0,0.0,0.0,0.0,0.0,0.0,0.0,0.0,0.0,0.0,0.0,0.0,0.0,0.0,0.0,0.0,0.0,0.0,0.0,0.0,-3.5045,-3.568,-3.6577,-3.6894,-3.6504,-3.7285,-3.77,-3.7698,-3.7541,-3.7724,-3.8224,-3.7642,-3.7127,-3.6719,-3.7084,-3.7257,-3.7296,-3.8161,-3.9008,-3.9796,-3.9796,-4.0158,-4.0696,-4.0639,-4.137,-4.2521,-4.2989,-4.3874,-4.4913,-4.5413,-4.5586,-4.5586,-4.5586,-4.5586,-4.5586,-4.5586,-4.5586,-4.5586,-4.5586,-4.5586,-4.5586,-4.5586,-4.649,-4.7528,-4.799,-4.9048,-5.0067,-5.0587,-5.0702,-5.0702,-5.0702,-5.1087,-5.151,-5.1856,-5.2626,-5.3029,-5.2529,-5.4299,-5.5415,-5.4607,-5.5203,-5.5703,-5.5703,-5.5703,-5.5554,-5.5115,-5.4952,-5.4671,-5.4221,-5.405,-5.4118,-5.456,-5.4905,-5.5212,-5.5446,-5.5446,-5.5535,-5.5703,-5.5512,-5.5535,-5.5703,-5.5703,-5.5703,-3.8359,0.0,0.0,0.0,0.0,0.0,0.0,0.0,0.0,0.0,0.0,0.0,0.0,0.0,-3.3284,-3.2408,0.0,-3.141,0.0,0.0,0.0,0.0,0.0,0.0,0.0,0.0,0.0,0.0,-3.393,0.0,-3.5282,-3.6396,-3.6772,-3.6269,-3.6894,-3.7237,-3.722,-3.6885,-3.7027,-3.7627,-3.691,-3.6512,-3.6411,-3.6411,-3.6507,-3.6757,-3.7661,-3.8527,-3.9315,-3.9585,-4.01,-4.0716,-4.0754,-4.1155,-4.179,-4.2832,-4.3701,-4.447,-4.5297,-4.5586,-4.5586,-4.5586,-4.5586,-4.5586,-4.5586,-4.5586,-4.5586,-4.5586,-4.5586,-4.5586,-4.5586,-4.624,-4.7048,-4.7625,-4.8606,-4.9567,-5.0202,-5.0529,-5.0702,-5.0702,-5.1164,-5.1645,-5.1875,-5.2818,-5.3183,-5.2087,-5.4068,-5.5318,-5.428,-5.5049,-5.5703,-5.5703,-5.5703,-5.5554,-5.5115,-5.5088,-5.4924,-5.4535,-5.4579,-5.4809,-5.5088,-5.5212,-5.5399,-5.5684,-5.5599,-5.5599,-5.5703,-5.5599,-5.5599,-5.5703,-5.5703,-5.5703,0.0,0.0,0.0,-3.7266,0.0,0.0,0.0,0.0,-3.4687,0.0,0.0,0.0,0.0,-3.4609,-3.4251,-3.3307,-3.2396,0.0,0.0,0.0,0.0,0.0,0.0,0.0,0.0,0.0,0.0,-3.1775,-3.3276,0.0,-3.4332,-3.6037,-3.7045,-3.7148,-3.7246,-3.7305,-3.7304,-3.6386,-3.5957,-3.5976,-3.5815,-3.5699,-3.5641,-3.5641,-3.6026,-3.6757,-3.7752,-3.8618,-3.9373,-4.035,-4.0735,-4.0716,-4.0908,-4.0927,-4.1024,-4.2618,-4.3756,-4.4607,-4.5336,-4.5586,-4.5586,-4.5586,-4.5586,-4.5586,-4.5586,-4.5586,-4.5586,-4.5586,-4.5586,-4.5586,-4.5586,-4.624,-4.6913,-4.6932,-4.8202,-4.9413,-4.9433,-5.0087,-5.0702,-5.0702,-5.0721,-5.0991,-5.1779,-5.3318,-5.3876,-5.2164,-5.4068,-5.5107,-5.3453,-5.4684,-5.5703,-5.5703,-5.5703,-5.5554,-5.5115,-5.5088,-5.4924,-5.4535,-5.4867,-5.5088,-5.5088,-5.547,-5.5703,-5.5703,-5.5306,-5.5306,-5.5703,-5.5306,-5.5306,-5.5703,-5.5703,-5.5703,0.0,0.0,-3.873,-3.7598,0.0,0.0,0.0,0.0,0.0,0.0,0.0,0.0,0.0,-3.5508,-3.5146,-3.4206,-3.3274,-3.2338,0.0,0.0,0.0,0.0,0.0,0.0,0.0,0.0,0.0,-3.166,-3.2718,-3.3609,0.0,-3.5437,-3.6165,-3.6328,-3.6367,-3.6387,-3.6445,-3.6113,-3.5937,-3.5898,-3.5848,-3.5768,-3.5688,-3.626,-3.667,-3.6958,-3.7858,-3.8735,-3.9529,-3.9882,-4.0308,-4.0831,-4.1489,-4.1696,-4.1806,-4.2923,-4.3452,-4.3838,-4.5143,-4.5586,-4.5586,-4.5586,-4.5586,-4.5586,-4.5586,-4.5586,-4.5586,-4.5586,-4.5586,-4.5586,-4.5586,-4.5817,-4.6317,-4.7432,-4.8125,-4.8856,-5.001,-5.0491,-5.0702,-5.0702,-5.1125,-5.1587,-5.1856,-5.3356,-5.4107,-5.2953,-5.4434,-5.5299,-5.4203,-5.5011,-5.5703,-5.5703,-5.5703,-5.564,-5.5512,-5.5489,-5.5423,-5.5306,-5.5423,-5.5489,-5.5489,-5.564,-5.5703,-5.5703,-5.5577,-5.5577,-5.5703,-5.5577,-5.5577,-5.5703,-5.5703,-5.5703,-4.0351,-4.0137,0.0,-3.8516,-3.7988,0.0,-3.666,0.0,0.0,0.0,0.0,0.0,0.0,-3.5951,-3.5611,-3.4666,-3.3732,-3.2692,0.0,-3.0756,0.0,0.0,0.0,0.0,0.0,0.0,-3.0679,-3.1237,-3.2314,-3.3199,0.0,0.0,-3.5684,-3.5783,-3.5866,-3.5908,-3.5882,-3.5935,-3.5937,-3.5898,-3.5918,-3.5872,-3.5802,-3.6674,-3.7056,-3.7077,-3.8267,-3.9107,-3.9629,-3.9953,-4.0352,-4.0853,-4.1755,-4.2092,-4.2199,-4.3354,-4.3902,-4.4201,-4.524,-4.5586,-4.5586,-4.5586,-4.5586,-4.5586,-4.5586,-4.5586,-4.5663,-4.597,-4.5836,-4.5663,-4.597,-4.6067,-4.6336,-4.7432,-4.8125,-4.8875,-4.999,-5.0471,-5.0702,-5.0702,-5.1356,-5.201,-5.2318,-5.3549,-5.4203,-5.3337,-5.4626,-5.5415,-5.4607,-5.5203,-5.5703,-5.5703,-5.5703,-5.5703,-5.5703,-5.5703,-5.5703,-5.5703,-5.5703,-5.5703,-5.5703,-5.5703,-5.5992,-5.6607,-5.6011,-5.6011,-5.6626,-5.5992,-5.5857,-5.6145,-5.5838,-5.603]}]]